[[{"header":{"parameterUnit":"m.s-1","parameterCategory":1,"la1":30.6,"la2":29.2853,"lo1":-89.7004,"lo2":-87.6739,"dy":0.0162,"dx":0.0183,"nx":112,"ny":82,"refTime":"2024-08-28T06:00:00:Z","depth":0,"parameterNumber":2,"parameterNumberName":"U-component_of_WINDS"},"data":[0.0,0.0,0.0,0.0,0.0,0.0,0.0,0.0,0.0,0.0,0.0,0.0,0.0,0.0,0.0,0.0,0.0,0.0,0.0,0.0,0.0,0.0,0.0,0.0,0.0,0.0,0.0,0.0,0.0,0.0,0.0,0.0,0.0,0.0,0.0,0.0,0.0,0.0,0.0,0.0,0.0,0.0,0.0,0.0,0.0,0.0,0.0,0.0,0.0,0.0,0.0,0.0,0.0,0.0,0.0,0.0,0.0,0.0,0.0,0.0,0.0,0.0,0.0,0.0,0.0,0.0,0.0,0.0,0.0,0.0,0.0,0.0,0.0,0.0,0.0,0.0,0.0,0.0,0.0,0.0,0.0,0.0,0.0,0.0,0.0,0.0,0.0,0.0,0.0,0.0,0.0,-0.5401,-0.5676,-0.5756,-0.5515,-0.4779,-0.3993,-0.3148,0.0,0.0,0.0,0.0,0.0,0.0,0.0,0.0,0.0,0.0,0.0,0.0,0.0,0.0,0.0,0.0,0.0,0.0,0.0,0.0,0.0,0.0,0.0,0.0,0.0,0.0,0.0,0.0,0.0,0.0,0.0,0.0,0.0,0.0,0.0,0.0,0.0,0.0,0.0,0.0,0.0,0.0,0.0,0.0,0.0,0.0,0.0,0.0,0.0,0.0,0.0,0.0,0.0,0.0,0.0,0.0,0.0,0.0,0.0,0.0,0.0,0.0,0.0,0.0,0.0,0.0,0.0,0.0,0.0,0.0,0.0,0.0,0.0,0.0,0.0,0.0,0.0,0.0,0.0,0.0,0.0,0.0,0.0,0.0,0.0,0.0,0.0,0.0,0.0,0.0,0.0,0.0,0.0,0.0,0.0,0.0,0.0,0.0,0.0,0.0,0.0,0.0,0.0,0.0,-0.5429,-0.6809,-0.7212,-0.6848,-0.5597,-0.5178,-0.4431,-0.3177,0.0,0.0,0.0,0.0,0.0,0.0,0.0,0.0,0.0,0.0,0.0,0.0,0.0,0.0,0.0,0.0,0.0,0.0,0.0,0.0,0.0,0.0,0.0,0.0,0.0,0.0,0.0,0.0,0.0,0.0,0.0,0.0,0.0,0.0,0.0,0.0,0.0,0.0,0.0,0.0,0.0,0.0,0.0,0.0,0.0,0.0,0.0,0.0,0.0,0.0,0.0,0.0,0.0,0.0,0.0,0.0,0.0,0.0,0.0,0.0,0.0,0.0,0.0,0.0,0.0,0.0,0.0,0.0,0.0,0.0,0.0,0.0,0.0,0.0,0.0,0.0,0.0,0.0,0.0,0.0,0.0,0.0,0.0,0.0,0.0,0.0,0.0,0.0,0.0,0.0,0.0,0.0,0.0,0.0,0.0,0.0,0.0,0.0,0.0,0.0,0.0,0.0,0.0,-0.5708,-0.6405,-0.7942,-0.787,-0.7262,-0.6199,-0.549,-0.4537,-0.3177,-0.291,0.0,0.0,0.0,0.0,0.0,0.0,0.0,0.0,0.0,0.0,0.0,0.0,0.0,0.0,0.0,0.0,0.0,0.0,0.0,0.0,0.0,0.0,0.0,0.0,0.0,0.0,0.0,0.0,0.0,0.0,0.0,0.0,0.0,0.0,0.0,0.0,0.0,0.0,0.0,0.0,0.0,0.0,0.0,0.0,0.0,0.0,0.0,0.0,0.0,0.0,0.0,0.0,0.0,0.0,0.0,0.0,0.0,0.0,0.0,0.0,0.0,0.0,0.0,0.0,0.0,0.0,0.0,0.0,0.0,0.0,0.0,0.0,0.0,0.0,0.0,0.0,0.0,0.0,0.0,0.0,0.0,0.0,0.0,0.0,0.0,0.0,0.0,0.0,0.0,0.0,0.0,0.0,0.0,0.0,0.0,0.0,0.0,0.0,0.0,0.0,0.0,0.0,-0.6826,-0.7395,-0.8671,-0.8295,-0.7589,-0.6669,-0.5757,-0.4628,-0.3193,-0.2778,0.0,0.0,0.0,0.0,0.0,0.0,0.0,0.0,0.0,0.0,0.0,0.0,0.0,0.0,0.0,0.0,0.0,0.0,0.0,0.0,0.0,0.0,0.0,0.0,0.0,0.0,0.0,0.0,0.0,0.0,0.0,0.0,0.0,0.0,0.0,0.0,0.0,0.0,0.0,0.0,0.0,0.0,0.0,0.0,0.0,0.0,0.0,0.0,0.0,0.0,0.0,0.0,0.0,0.0,0.0,0.0,0.0,0.0,0.0,0.0,0.0,0.0,0.0,0.0,0.0,0.0,0.0,0.0,0.0,0.0,0.0,0.0,0.0,0.0,0.0,0.0,0.0,0.0,0.0,0.0,0.0,0.0,0.0,0.0,0.0,0.0,0.0,0.0,0.0,0.0,0.0,0.0,0.0,0.0,0.0,0.0,0.0,0.0,0.0,0.0,0.0,0.0,-0.6983,-0.8059,-0.8738,-0.8752,-0.8156,-0.6723,-0.6015,-0.4915,-0.3218,-0.2552,0.0,0.0,0.0,0.0,0.0,0.0,0.0,0.0,0.0,0.0,0.0,0.0,0.0,0.0,0.0,0.0,0.0,0.0,0.0,0.0,0.0,0.0,0.0,0.0,0.0,0.0,0.0,0.0,0.0,0.0,0.0,0.0,0.0,0.0,0.0,0.0,0.0,0.0,0.0,0.0,0.0,0.0,0.0,0.0,0.0,0.0,0.0,0.0,0.0,0.0,0.0,0.0,0.0,0.0,0.0,0.0,0.0,0.0,0.0,0.0,0.0,0.0,0.0,0.0,0.0,0.0,0.0,0.0,0.0,0.0,0.0,0.0,0.0,0.0,0.0,0.0,0.0,0.0,0.0,0.0,0.0,0.0,0.0,0.0,0.0,0.0,0.0,0.0,0.0,0.0,0.0,0.0,0.0,0.0,0.0,0.0,0.0,0.0,0.0,0.0,0.0,0.0,-0.7052,-0.7868,0.0,-0.9061,-0.8401,-0.7369,-0.6496,-0.5453,-0.4126,0.0,0.0,0.0,0.0,0.0,0.0,0.0,0.0,0.0,0.0,0.0,0.0,0.0,0.0,0.0,0.0,0.0,0.0,0.0,0.0,0.0,0.0,0.0,0.0,0.0,0.0,0.0,0.0,0.0,0.0,0.0,0.0,0.0,0.0,0.0,0.0,0.0,0.0,0.0,0.0,0.0,0.0,0.0,0.0,0.0,0.0,0.0,0.0,0.0,0.0,0.0,0.0,0.0,0.0,0.0,0.0,0.0,0.0,0.0,0.0,0.0,0.0,0.0,0.0,0.0,0.0,0.0,0.0,0.0,0.0,0.0,0.0,0.0,0.0,0.0,0.0,0.0,0.0,0.0,0.0,0.0,0.0,0.0,0.0,0.0,0.0,0.0,0.0,0.0,0.0,0.0,0.0,0.0,0.0,0.0,0.0,0.0,0.0,0.0,0.0,0.0,0.0,-0.6684,-0.7126,-0.785,0.0,-0.9087,-0.8507,-0.7777,-0.6843,-0.5793,-0.4547,0.0,0.0,0.0,0.0,0.0,0.0,0.0,0.0,0.0,0.0,0.0,0.0,0.0,0.0,0.0,0.0,0.0,0.0,0.0,0.0,0.0,0.0,0.0,0.0,0.0,0.0,0.0,0.0,0.0,0.0,0.0,0.0,0.0,0.0,0.0,0.0,0.0,0.0,0.0,0.0,0.0,0.0,0.0,0.0,0.0,0.0,0.0,0.0,0.0,0.0,0.0,0.0,0.0,0.0,0.0,0.0,0.0,0.0,0.0,0.0,0.0,0.0,0.0,0.0,0.0,0.0,0.0,0.0,0.0,0.0,0.0,0.0,0.0,0.0,0.0,0.0,0.0,0.0,0.0,0.0,0.0,0.0,0.0,0.0,0.0,0.0,0.0,0.0,0.0,0.0,0.0,0.0,0.0,0.0,0.0,0.0,0.0,0.0,0.0,0.0,0.0,0.0,-0.6152,-0.7216,-0.8156,-0.8744,-0.8811,-0.8507,-0.7777,-0.7041,-0.592,0.0,0.0,0.0,0.0,0.0,0.0,0.0,0.0,0.0,0.0,0.0,0.0,0.0,0.0,0.0,0.0,0.0,0.0,0.0,0.0,0.0,0.0,0.0,0.0,0.0,0.0,0.0,0.0,0.0,0.0,0.0,0.0,0.0,0.0,0.0,0.0,0.0,0.0,0.0,0.0,0.0,0.0,0.0,0.0,0.0,0.0,0.0,0.0,0.0,0.0,0.0,0.0,0.0,0.0,0.0,0.0,0.0,0.0,0.0,0.0,0.0,0.0,0.0,0.0,0.0,0.0,0.0,0.0,0.0,0.0,0.0,0.0,0.0,0.0,0.0,0.0,0.0,0.0,0.0,0.0,0.0,0.0,0.0,0.0,0.0,0.0,0.0,0.0,0.0,0.0,0.0,0.0,0.0,0.0,0.0,0.0,0.0,0.0,0.0,0.0,0.0,0.0,0.0,-0.746,-0.8112,-0.8904,-1.0089,-0.9361,-0.8725,-0.8507,-0.7536,-0.6475,-0.5326,0.0,0.0,0.0,0.0,0.0,0.0,0.0,0.0,0.0,0.0,0.0,0.0,0.0,0.0,0.0,0.0,0.0,0.0,0.0,0.0,0.0,0.0,0.0,0.0,0.0,0.0,0.0,0.0,0.0,0.0,0.0,0.0,0.0,0.0,0.0,0.0,0.0,0.0,0.0,0.0,0.0,0.0,0.0,0.0,0.0,0.0,0.0,0.0,0.0,0.0,0.0,0.0,0.0,0.0,0.0,0.0,0.0,0.0,0.0,0.0,0.0,0.0,0.0,0.0,0.0,0.0,0.0,0.0,0.0,0.0,0.0,0.0,0.0,0.0,0.0,0.0,0.0,0.0,0.0,0.0,0.0,0.0,0.0,0.0,0.0,0.0,0.0,0.0,0.0,0.0,0.0,0.0,0.0,0.0,0.0,0.0,0.0,0.0,0.0,0.0,0.0,0.0,-0.7661,-0.8558,-0.9439,-1.0318,-0.9692,-0.908,-0.8831,-0.7959,-0.6984,-0.5957,0.0,0.0,0.0,0.0,0.0,0.0,0.0,0.0,0.0,0.0,0.0,0.0,0.0,0.0,0.0,0.0,0.0,0.0,0.0,0.0,0.0,0.0,0.0,0.0,0.0,0.0,0.0,0.0,0.0,0.0,0.0,0.0,0.0,0.0,0.0,0.0,0.0,0.0,0.0,0.0,0.0,0.0,0.0,0.0,0.0,0.0,0.0,0.0,0.0,0.0,0.0,0.0,0.0,0.0,0.0,0.0,0.0,0.0,0.0,0.0,0.0,0.0,0.0,0.0,0.0,0.0,0.0,0.0,0.0,0.0,0.0,0.0,0.0,0.0,0.0,0.0,0.0,0.0,0.0,0.0,0.0,0.0,0.0,0.0,0.0,0.0,0.0,0.0,0.0,0.0,0.0,0.0,0.0,0.0,0.0,0.0,0.0,0.0,0.0,0.0,0.0,0.0,-0.7263,-0.8744,-0.9771,-0.9867,-0.9788,-0.9465,-0.8857,-0.8265,-0.7445,-0.6312,0.0,0.0,0.0,0.0,0.0,0.0,0.0,0.0,0.0,0.0,0.0,0.0,0.0,0.0,0.0,0.0,0.0,0.0,0.0,0.0,0.0,0.0,0.0,0.0,0.0,0.0,0.0,0.0,0.0,0.0,0.0,0.0,0.0,0.0,0.0,0.0,0.0,0.0,0.0,0.0,0.0,0.0,0.0,0.0,0.0,0.0,0.0,0.0,0.0,0.0,0.0,0.0,0.0,0.0,0.0,0.0,0.0,0.0,0.0,0.0,-0.4693,0.0,0.0,0.0,0.0,0.0,0.0,0.0,0.0,0.0,0.0,0.0,0.0,0.0,0.0,0.0,0.0,0.0,0.0,0.0,0.0,0.0,0.0,0.0,0.0,0.0,0.0,0.0,0.0,0.0,0.0,0.0,0.0,0.0,0.0,0.0,0.0,0.0,0.0,0.0,0.0,0.0,-0.8211,-0.9356,-1.0213,-1.0544,-0.964,-0.8956,-0.8804,-0.8484,-0.7777,-0.6601,-0.6136,0.0,0.0,0.0,0.0,0.0,0.0,0.0,0.0,0.0,0.0,0.0,0.0,0.0,0.0,0.0,0.0,0.0,0.0,0.0,0.0,0.0,0.0,0.0,0.0,0.0,0.0,0.0,0.0,0.0,0.0,0.0,0.0,0.0,0.0,0.0,0.0,0.0,0.0,0.0,0.0,0.0,0.0,0.0,0.0,0.0,0.0,0.0,0.0,0.0,0.0,0.0,0.0,0.0,0.0,0.0,0.0,0.0,0.0,0.0,0.0,-0.5331,0.0,0.0,0.0,0.0,0.0,0.0,0.0,0.0,0.0,0.0,0.0,0.0,0.0,0.0,0.0,0.0,0.0,0.0,0.0,0.0,0.0,0.0,0.0,0.0,0.0,0.0,0.0,0.0,0.0,0.0,0.0,0.0,0.0,0.0,0.0,0.0,0.0,0.0,0.0,0.0,-0.8793,-1.0229,-1.1184,-1.1273,-1.0364,-0.964,-0.9316,-0.8735,-0.8001,-0.7098,-0.6633,0.0,0.0,0.0,0.0,0.0,0.0,0.0,0.0,0.0,0.0,0.0,0.0,0.0,0.0,0.0,0.0,0.0,0.0,0.0,0.0,0.0,0.0,0.0,0.0,0.0,0.0,0.0,0.0,0.0,0.0,0.0,0.0,0.0,0.0,0.0,0.0,0.0,0.0,0.0,0.0,0.0,0.0,0.0,0.0,0.0,0.0,0.0,0.0,0.0,0.0,0.0,0.0,0.0,-0.8929,-0.9172,-0.8774,-0.9431,-0.9217,-0.8248,-0.7131,-0.6695,-0.6717,-0.6216,0.0,0.0,0.0,0.0,0.0,0.0,0.0,0.0,0.0,0.0,0.0,0.0,0.0,0.0,0.0,0.0,0.0,0.0,0.0,0.0,0.0,0.0,0.0,0.0,-0.9847,-0.9722,0.0,0.0,0.0,0.0,0.0,0.0,0.0,0.0,0.0,0.0,0.0,0.0,-0.931,-1.0999,-1.204,-1.1828,-1.1191,-1.0593,-1.0012,-0.9151,-0.8399,-0.7855,-0.7206,-0.654,0.0,0.0,0.0,0.0,0.0,0.0,0.0,0.0,0.0,0.0,0.0,0.0,0.0,0.0,0.0,0.0,0.0,0.0,0.0,0.0,0.0,0.0,0.0,0.0,0.0,0.0,0.0,0.0,0.0,0.0,0.0,0.0,-0.4131,-0.4965,0.0,0.0,0.0,0.0,0.0,0.0,0.0,0.0,0.0,0.0,0.0,0.0,0.0,-0.8984,-1.0168,-1.0789,-1.1272,-1.1606,-1.2064,-1.2209,-1.2146,-1.2259,-1.2025,-1.1469,-1.131,0.0,-0.7424,-0.7855,0.0,0.0,0.0,0.0,0.0,0.0,0.0,0.0,0.0,0.0,0.0,0.0,0.0,0.0,0.0,0.0,0.0,0.0,0.0,0.0,0.0,0.0,-1.257,-1.1945,-1.1946,-1.202,0.0,-0.9912,-0.8311,-0.7939,-0.7792,0.0,0.0,0.0,0.0,0.0,0.0,0.0,-1.0049,-1.1145,-1.1834,-1.1805,-1.1191,-1.0762,-1.0686,-1.0026,-0.947,-0.9175,-0.8254,-0.7346,-0.6506,-0.6137,0.0,0.0,0.0,0.0,0.0,0.0,0.0,0.0,0.0,0.0,0.0,0.0,0.0,0.0,0.0,0.0,0.0,0.0,0.0,0.0,0.0,0.0,0.0,0.0,0.0,0.0,0.0,0.0,0.0,-0.4016,-0.472,-0.5431,-0.6108,-0.6417,0.0,0.0,0.0,0.0,0.0,0.0,0.0,0.0,0.0,-1.1073,-1.1162,-1.1516,-1.2244,-1.2668,-1.2966,-1.3165,-1.3935,-1.4096,-1.3661,-1.4118,-1.3969,-1.3325,-1.3325,-1.2468,-1.1012,-1.0466,-1.0228,-1.0163,0.0,0.0,0.0,0.0,-1.0482,-1.0089,-1.0723,-1.06,0.0,-0.99,0.0,0.0,0.0,0.0,0.0,0.0,0.0,0.0,0.0,0.0,-1.3202,-1.375,-1.3641,-1.348,-1.3826,-1.2561,-1.0954,0.0,-0.9402,-0.9011,-0.775,0.0,0.0,0.0,0.0,-1.0366,-1.0958,-1.184,-1.2427,-1.2427,-1.1774,-1.1216,-1.0838,-1.0192,-0.9526,-0.8877,-0.8416,-0.7929,-0.7346,-0.6754,-0.6117,0.0,0.0,0.0,0.0,0.0,0.0,0.0,0.0,0.0,0.0,0.0,0.0,0.0,0.0,0.0,0.0,0.0,0.0,0.0,0.0,0.0,0.0,0.0,0.0,0.0,0.0,0.0,0.0,-0.5026,-0.5488,-0.6368,-0.7163,-0.7613,0.0,0.0,0.0,0.0,0.0,0.0,-1.124,-1.1837,-1.2552,-1.3376,-1.3561,-1.3816,-1.4236,-1.4435,-1.4588,-1.4725,-1.5574,-1.5678,-1.5123,-1.5711,-1.5591,-1.4909,-1.4909,-1.4775,-1.4407,-1.2869,-1.2339,-1.2454,-1.2248,-1.2316,-1.2641,-1.3189,-1.292,-1.2367,-1.3108,-1.2914,-1.2228,-1.1802,-1.158,-1.1338,-1.0408,0.0,0.0,0.0,0.0,-1.1997,-1.355,-1.3721,-1.3838,-1.5183,-1.5159,-1.4958,-1.5397,-1.4687,-1.3382,0.0,-1.1019,-1.0473,-0.8957,0.0,0.0,0.0,0.0,-1.123,-1.1702,-1.2426,-1.2905,-1.2905,-1.2403,-1.1882,-1.1384,-1.072,-1.0007,-0.9302,-0.8944,-0.8618,-0.8283,-0.7409,-0.6827,-0.6613,0.0,0.0,0.0,0.0,0.0,0.0,0.0,0.0,0.0,0.0,0.0,0.0,0.0,0.0,0.0,0.0,0.0,0.0,0.0,0.0,0.0,0.0,0.0,0.0,0.0,0.0,0.0,0.0,0.0,-0.8353,-0.9035,0.0,0.0,0.0,0.0,-1.0761,-1.1982,-1.3076,-1.387,-1.3755,-1.4382,-1.5878,-1.5331,-1.5495,-1.6534,-1.6553,-1.6776,-1.7216,-1.7268,-1.7278,-1.7245,-1.7278,-1.7054,-1.657,-1.657,-1.6551,-1.6398,-1.4496,-1.3922,-1.4264,-1.4245,-1.4646,-1.5176,-1.4814,-1.4678,-1.4572,-1.4177,-1.4014,-1.4053,-1.4449,-1.4274,-1.3837,-1.3406,-1.3285,0.0,0.0,-1.3646,-1.4119,-1.4909,-1.5426,-1.5844,-1.6249,-1.6598,-1.6748,-1.6427,-1.5698,-1.4774,0.0,-1.2667,-1.1957,-1.1494,0.0,-1.078,-1.0791,-1.1232,-1.1712,-1.2116,-1.2598,-1.2905,-1.2905,-1.2881,-1.2832,-1.2798,-1.2113,-1.1681,-1.1639,-1.0434,-0.9616,-0.9345,-0.8358,-0.7439,-0.6607,-0.5952,0.0,0.0,0.0,0.0,0.0,0.0,0.0,0.0,0.0,0.0,0.0,0.0,0.0,0.0,0.0,0.0,0.0,0.0,0.0,0.0,0.0,0.0,0.0,0.0,0.0,0.0,0.0,0.0,-0.9778,-1.0835,0.0,-1.1057,-1.2201,-1.2954,-1.2954,-1.3936,-1.4766,-1.5371,-1.5312,-1.5794,-1.6885,-1.6712,-1.6883,-1.7516,-1.7525,-1.7637,-1.7793,-1.7793,-1.7793,-1.7793,-1.7793,-1.7695,-1.7525,-1.7525,-1.7525,-1.7473,-1.6803,-1.6266,-1.588,-1.588,-1.6044,-1.621,-1.6094,-1.6005,-1.5985,-1.5829,-1.5781,-1.5751,-1.5684,-1.5127,-1.4521,-1.4375,-1.4131,-1.4044,-1.4832,-1.5149,-1.5496,-1.6483,-1.6879,-1.713,-1.7746,-1.7626,-1.7492,-1.7813,-1.7069,-1.6227,-1.583,-1.4486,-1.3259,-1.2787,-1.2629,-1.2295,-1.1477,-1.1966,-1.2494,-1.2627,-1.2807,-1.2905,-1.2905,-1.2905,-1.2715,-1.2236,-1.1947,-1.1509,-1.0801,-1.0327,-0.9718,-0.8981,-0.8432,-0.7839,-0.7182,-0.6412,-0.5628,0.0,0.0,0.0,0.0,0.0,0.0,0.0,0.0,0.0,0.0,0.0,0.0,0.0,0.0,0.0,0.0,0.0,0.0,0.0,0.0,0.0,0.0,0.0,0.0,0.0,0.0,-1.0009,-1.1116,-1.2252,-1.2884,-1.2728,-1.3947,-1.4785,-1.4785,-1.5449,-1.6045,-1.6515,-1.6545,-1.6936,-1.7773,-1.7803,-1.8178,-1.8937,-1.8611,-1.8611,-1.8947,-1.8611,-1.8437,-1.8437,-1.8437,-1.8437,-1.8437,-1.8281,-1.8188,-1.8178,-1.8066,-1.7676,-1.7126,-1.7126,-1.7126,-1.7116,-1.7002,-1.6953,-1.6902,-1.6755,-1.6697,-1.6648,-1.6387,-1.5898,-1.5439,-1.5439,-1.5425,-1.5586,-1.637,-1.6704,-1.701,-1.8022,-1.8114,-1.8167,-1.8912,-1.8688,-1.8474,-1.8965,-1.8295,-1.7667,-1.7903,-1.6055,-1.4435,-1.435,-1.3984,-1.3445,-1.2725,-1.2897,-1.3037,-1.2925,-1.2905,-1.2905,-1.2905,-1.2905,-1.2691,-1.2212,-1.2163,-1.1871,-1.1149,-1.0745,-1.0249,-0.9565,-0.8654,-0.7997,-0.7649,-0.6754,-0.6149,-0.588,0.0,0.0,0.0,0.0,0.0,0.0,0.0,0.0,0.0,0.0,0.0,0.0,0.0,0.0,0.0,0.0,0.0,0.0,0.0,0.0,0.0,0.0,0.0,-1.0629,-1.0684,-1.1175,-1.2435,-1.3369,-1.396,-1.4167,-1.5361,-1.6134,-1.6134,-1.6533,-1.6973,-1.7402,-1.7432,-1.7822,-1.8598,-1.8652,-1.9334,-2.079,-1.9847,-1.9883,-2.0825,-1.9847,-1.9396,-1.9396,-1.9396,-1.9396,-1.9367,-1.8909,-1.8723,-1.8693,-1.8282,-1.8115,-1.8115,-1.8018,-1.8008,-1.7959,-1.7582,-1.7468,-1.7442,-1.6978,-1.6831,-1.6831,-1.6831,-1.6821,-1.6811,-1.6811,-1.7367,-1.8057,-1.8077,-1.8316,-1.8731,-1.9475,-1.9209,-1.8936,-1.9668,-1.9811,-1.9798,-1.9798,-1.9228,-1.8965,-1.9669,-1.7358,-1.5562,-1.6322,-1.5211,-1.431,-1.4595,-1.4018,0.0,-1.2998,-1.2915,-1.2905,-1.2905,-1.2905,-1.2905,-1.2905,-1.2905,-1.2895,-1.2866,-1.1812,-1.121,-1.1178,-0.9101,-0.7968,-0.7948,-0.7041,-0.6735,-0.7039,0.0,0.0,0.0,0.0,0.0,0.0,0.0,0.0,0.0,0.0,0.0,0.0,0.0,0.0,0.0,0.0,0.0,0.0,0.0,0.0,0.0,-1.1265,-1.2082,-1.1857,-1.2713,-1.3671,-1.4515,-1.5358,-1.5929,-1.5965,-1.6631,-1.7054,-1.7054,-1.7695,-1.813,-1.8247,-1.8594,-1.8867,-1.9102,-1.9798,-2.0382,-2.079,-2.1202,-2.154,-2.1817,-2.154,-2.14,-2.14,-2.14,-2.14,-2.139,-2.1259,-2.1205,-2.1194,-2.1098,-2.1043,-2.0841,-1.8815,-1.8008,-1.8056,-1.8588,-1.9186,-1.9706,-1.9576,-1.9521,-1.9521,-1.9521,-1.9294,-1.9033,-1.9033,-1.8978,-1.9033,-1.9597,-1.9796,-2.0037,-2.0797,-2.0568,-2.02,-2.0399,-2.0138,-1.9798,-1.9798,-1.9643,-1.9553,-1.9747,-1.8686,-1.7714,-1.7633,-1.6833,-1.6131,-1.5939,-1.4982,0.0,-1.4156,-1.3415,-1.2905,-1.2905,-1.2905,-1.2905,-1.2905,-1.2905,-1.2631,-1.2008,-1.1663,-1.1164,-1.0442,-0.9811,-0.9317,-0.8914,-0.857,-0.8272,0.0,0.0,0.0,0.0,0.0,0.0,0.0,0.0,0.0,0.0,0.0,0.0,0.0,0.0,0.0,0.0,0.0,0.0,0.0,0.0,0.0,0.0,-1.3203,-1.3992,-1.4133,-1.4705,-1.5324,-1.5887,-1.6582,-1.7002,-1.7002,-1.7393,-1.7715,-1.79,-1.8325,-1.8887,-1.948,-1.9778,-2.0216,-2.0787,-2.1361,-2.1955,-2.2533,-2.2674,-2.2956,-2.3352,-2.2956,-2.2733,-2.2733,-2.2733,-2.2733,-2.2722,-2.2566,-2.2476,-2.25,-2.2285,-2.2195,0.0,0.0,0.0,0.0,0.0,-2.0171,-2.059,-2.059,-2.059,-2.059,-2.059,-2.0432,-2.0185,-2.0185,-2.0273,-2.0482,-2.0914,-2.1114,-2.1293,-2.1718,-2.1458,-2.1043,-2.1043,-2.0779,-2.0439,-2.0239,-2.0189,-2.0087,-1.9849,-1.9449,0.0,-1.8851,-1.7935,-1.7209,-1.7132,-1.6258,-1.5347,-1.4676,-1.402,-1.3425,-1.2949,-1.2905,-1.2905,-1.2905,-1.2905,0.0,0.0,0.0,-1.1356,-1.023,-1.0182,0.0,0.0,0.0,0.0,0.0,0.0,0.0,0.0,-0.8368,-0.8666,0.0,0.0,0.0,0.0,0.0,0.0,0.0,0.0,0.0,0.0,0.0,0.0,0.0,0.0,0.0,0.0,-1.4972,-1.5859,-1.6658,-1.6504,-1.6447,-1.6736,-1.7197,-1.7471,-1.7519,-1.7861,-1.8252,-1.8646,-1.8821,-1.9505,-2.0807,0.0,0.0,0.0,0.0,-2.3743,-2.5004,-2.4228,-2.4289,-2.5158,-2.4253,-2.3843,-2.3843,-2.3843,-2.3843,-2.3832,-2.346,-2.3313,-2.3279,-2.2857,-2.264,-2.2503,-2.1767,-2.1508,-2.1505,-2.0999,-2.086,-2.0878,-2.0878,0.0,0.0,-2.0878,-2.0878,-2.0878,-2.0878,-2.1428,-2.2044,-2.2044,-2.2224,-2.2397,-2.2397,-2.1995,-2.1581,-2.1581,-2.1531,-2.1355,-2.0893,-2.0729,-2.0541,-1.9999,-1.9849,-1.9798,-1.9798,-1.8715,-1.7947,-1.8237,-1.7629,-1.6617,-1.5188,-1.4889,-1.4352,-1.3208,0.0,0.0,-1.2905,-1.2905,-1.2886,-1.2812,-1.2418,-1.1695,-1.0568,-1.0566,-1.0566,-1.0519,-1.0566,-1.0831,-1.1317,-1.1362,-1.0848,-0.9767,-0.9136,-0.9399,0.0,0.0,0.0,0.0,0.0,0.0,0.0,0.0,0.0,0.0,0.0,0.0,0.0,0.0,0.0,-1.4941,-1.5878,-1.6629,-1.7187,-1.748,-1.7539,-1.7285,-1.7627,-1.8018,-1.8325,-1.8432,-1.8656,-1.9131,-2.022,-2.099,-2.1266,-2.2371,-2.3097,-2.338,-2.4162,-2.472,-2.5004,-2.5616,-2.6013,-2.6198,0.0,0.0,-2.5908,-2.5908,-2.5908,-2.5931,-2.5832,-2.5783,-2.5817,-2.5706,-2.5398,-2.4749,-2.2786,-2.2214,-2.2445,-2.235,-2.2423,-2.2628,-2.2628,-2.2628,-2.2628,-2.2628,-2.2628,-2.2628,-2.2628,-2.272,0.0,-2.2884,-2.2912,-2.2945,-2.2945,-2.2543,-2.2159,-2.2159,-2.1807,-2.1455,-2.1383,-2.1006,-2.0666,-2.0541,-2.0125,-1.9798,-1.9798,-1.9553,-1.9386,-1.9468,-1.8562,-1.778,-1.7467,-1.6617,-1.5579,-1.4412,-1.4261,-1.3906,-1.2983,-1.2905,-1.2734,-1.2359,-1.2252,-1.2079,-1.1837,-1.2188,-1.2217,-1.1837,-1.2198,-1.2261,-1.2008,-1.2402,-1.2445,-1.2192,-1.0943,-1.0099,0.0,0.0,0.0,0.0,0.0,0.0,0.0,0.0,0.0,0.0,0.0,-1.2515,-1.3597,0.0,-1.5137,-1.6221,-1.6768,-1.7207,-1.7637,-1.7881,-1.793,-1.7715,-1.7881,-1.8174,-1.8559,-1.8598,-1.9075,-2.0265,-2.1011,-2.1925,-2.3156,-2.3874,-2.448,-2.4981,-2.5499,-2.5734,-2.5734,-2.6233,-2.6499,-2.6499,-2.6499,-2.6499,-2.6499,-2.6499,-2.6499,-2.6499,-2.6499,-2.6499,-2.6499,-2.6499,-2.6323,-2.5933,-2.4808,-2.4114,-2.3761,-2.3761,-2.3825,-2.3948,-2.3948,-2.3772,-2.3534,-2.3534,-2.3346,-2.3108,-2.3108,-2.3108,-2.3108,-2.3108,-2.3108,-2.3108,-2.3108,-2.2895,-2.2694,-2.2694,-2.251,-2.2234,-2.1958,-2.1681,-2.1358,-2.0792,-2.0465,-2.0137,-1.9849,-1.9798,-1.9798,-1.9798,-1.933,-1.874,-1.8168,-1.7601,-1.6798,-1.5626,-1.5217,-1.4709,-1.3816,-1.3233,-1.2807,-1.2568,-1.2559,-1.2559,-1.2559,-1.2788,-1.2783,-1.2559,-1.2773,-1.2773,-1.2559,-1.2079,-1.2024,-1.2314,-1.0601,-1.0285,0.0,0.0,0.0,0.0,0.0,0.0,0.0,0.0,-1.1677,-1.3009,-1.3733,-1.4453,-1.5449,-1.6025,-1.6643,-1.748,-1.7627,-1.7773,-1.8193,-1.8184,-1.8135,-1.8135,-1.8057,-1.8178,-1.8676,-1.8724,-1.9425,-2.1135,-2.1602,-2.2677,-2.4612,-2.5075,-2.5652,-2.6452,-2.66,-2.665,-2.665,-2.6763,-2.6813,-2.6813,-2.6813,-2.6813,-2.6813,-2.67,-2.665,-2.665,-2.6549,-2.6499,-2.6499,-2.6499,-2.6499,-2.6499,-2.6499,-2.5946,-2.5121,-2.5008,-2.4876,-2.4788,-2.4788,-2.4531,-2.4142,-2.4029,-2.3678,-2.3246,-2.3145,-2.3108,-2.3108,-2.3108,-2.3108,-2.3108,-2.3108,-2.3108,-2.3108,-2.3108,-2.3108,-2.2982,-2.2543,-2.2355,-2.2046,-2.1182,-2.0842,-2.0541,-2.0049,-1.9874,-1.9798,-1.9798,-1.9798,-1.9482,-1.8553,-1.8416,-1.7982,-1.6846,-1.6173,-1.5419,-1.4482,-1.3475,-1.2905,-1.2905,-1.2905,-1.2905,-1.2905,-1.2905,-1.2905,-1.2905,-1.2905,-1.2905,-1.2905,-1.1767,-1.1528,-1.2093,-1.0456,-1.0688,-0.964,-0.9456,-0.9913,-1.1463,-1.1882,-1.2325,0.0,0.0,-1.4801,-1.4706,-1.5557,-1.6385,-1.6531,-1.6943,-1.751,-1.8325,-1.8461,-1.8617,-1.9082,-1.8809,-1.8529,-1.8529,-1.8208,-1.833,-1.9131,-1.9219,-1.9644,-2.0612,-2.2302,-2.3385,-2.3661,-2.5358,-2.6383,-2.6499,-2.6964,-2.7228,-2.7228,-2.767,-2.7921,-2.7921,-2.7921,-2.7921,-2.7908,-2.7419,-2.7228,-2.719,-2.6713,-2.6499,-2.6499,-2.6499,-2.6499,-2.6499,-2.6499,-2.6411,-2.6248,-2.5699,-2.5222,-2.4788,-2.4788,-2.475,-2.4612,-2.4155,-2.3954,-2.3803,-2.3258,-2.3108,-2.3108,-2.3108,-2.3108,-2.3108,-2.3108,-2.3108,-2.3108,-2.3108,-2.3108,-2.3083,-2.302,-2.2631,-2.2243,-2.2146,-2.1358,-2.0679,-2.0603,-2.0137,-1.9798,-1.9798,-1.9798,-1.9747,-1.9633,-1.9608,-1.9153,-1.8032,-1.7249,-1.5953,-1.382,-1.3165,-1.2905,-1.2905,-1.2905,-1.2905,-1.2905,-1.2905,-1.2905,-1.2905,-1.2905,-1.2905,-1.2905,-1.2749,-1.2884,-1.3301,-1.3087,-1.2113,-1.1553,-1.1699,-1.2096,0.0,-1.3685,-1.4342,-1.5354,-1.5707,-1.5926,-1.6268,-1.6748,-1.7187,-1.7399,-1.7627,-1.7939,0.0,-1.8598,-1.8754,-1.9228,-1.8916,-1.8598,-1.8598,-1.8227,-1.835,-1.9209,-1.9811,-2.0746,-2.2189,-2.3562,-2.4624,-2.5205,-2.6357,-2.6977,-2.6977,-2.7469,-2.7758,-2.7758,-2.7996,-2.8109,-2.8109,-2.8109,-2.8109,-2.8097,-2.7871,-2.7758,-2.7733,-2.7216,-2.6977,-2.6952,-2.6625,-2.6499,-2.6499,-2.6499,-2.6499,-2.6461,-2.6223,-2.5996,-2.5774,-2.5774,-2.5548,-2.5234,-2.5008,-2.4506,-2.3954,-2.3715,-2.3371,-2.3108,-2.3108,-2.3108,-2.3108,-2.3108,-2.3108,-2.3108,-2.3108,-2.3108,-2.3108,-2.3108,-2.292,-2.2669,-2.2343,-2.1945,-2.1418,-2.0805,-2.049,-2.0188,-1.9849,-1.9798,-1.9798,-1.9798,-1.9798,-1.9495,-1.8709,-1.8042,-1.6934,-1.5213,-1.4326,-1.3719,-1.3267,-1.3042,-1.2905,-1.2905,-1.2905,-1.2905,-1.2905,-1.3125,-1.3242,-1.3242,-1.3093,-1.3302,-1.3815,-1.3065,-1.2525,-1.3076,-1.3447,0.0,-1.4502,-1.5196,-1.5889,-1.6359,-1.6545,-1.6809,-1.7422,-1.7559,-1.7646,-1.7959,-1.8008,-1.8184,-1.8695,-1.8783,-1.9014,-1.9597,-1.917,-1.8783,-1.8783,-1.834,-1.8301,-1.9033,-1.9874,-2.1026,-2.2563,-2.3599,-2.4624,-2.5616,-2.6448,-2.7007,-2.7281,-2.7959,-2.8335,-2.8335,-2.8499,-2.8574,-2.8574,-2.8574,-2.8574,-2.8561,-2.8411,-2.8247,-2.8084,-2.7682,-2.7419,-2.7291,-2.6889,-2.6637,-2.6499,-2.6499,-2.6499,-2.6499,-2.6499,-2.6499,-2.6499,-2.6499,-2.6223,-2.5812,-2.5649,-2.4971,-2.4192,-2.4042,-2.359,-2.3108,-2.3108,-2.3108,-2.3108,-2.3108,-2.3108,-2.3108,-2.3108,-2.3108,-2.3108,-2.3108,-2.3108,-2.2995,-2.2594,-2.2393,-2.2058,-2.1282,-2.0893,-2.0553,-2.01,-1.9911,-1.9798,-1.9798,-1.9798,-1.9571,-1.8994,-1.8418,-1.7647,-1.6514,-1.5394,-1.4549,-1.3996,-1.349,-1.3232,-1.3232,-1.3232,-1.3232,-1.3232,-1.3525,-1.3682,-1.3656,-1.347,-1.3695,-1.4262,-1.3305,-1.3298,-1.3851,0.0,-1.4397,-1.5713,-1.6348,-1.6775,-1.7246,-1.7656,-1.7959,-1.7988,-1.7988,-1.7998,-1.8008,-1.8008,-1.8291,-1.9131,-1.9268,-1.9597,-2.0449,-1.9832,-1.9268,-1.9268,-1.8525,-1.8149,0.0,-1.9069,-1.9713,-2.0614,-2.1555,-2.2515,-2.3551,-2.5008,-2.6275,-2.7281,-2.8335,-2.8863,-2.8863,-2.9465,-2.9741,-2.9741,-2.9741,-2.9741,-2.9729,-2.9126,-2.8612,-2.8109,-2.8084,-2.777,-2.7281,-2.7268,-2.6977,-2.6499,-2.6499,-2.6499,-2.6499,-2.6499,-2.6499,-2.6499,-2.6499,-2.6487,-2.6373,-2.5774,-2.5234,-2.4662,-2.4167,-2.359,-2.3108,-2.3108,-2.3108,-2.3108,-2.3108,-2.3108,-2.3108,-2.3108,-2.3108,-2.3108,-2.3108,-2.3108,-2.3095,-2.3083,-2.2644,-2.2297,-2.2272,-2.1408,-2.0679,-2.0666,-2.0162,-1.9798,-1.9798,-1.9798,-1.9527,-1.8797,-1.8329,-1.7788,-1.7025,-1.5871,-1.5153,-1.5163,-1.4479,-1.4065,-1.4065,-1.4065,-1.4065,-1.4065,-1.4085,-1.4085,-1.4085,-1.4077,-1.4301,-1.4766,-1.4738,-1.4934,-1.4036,0.0,-1.5596,-1.6328,-1.6836,-1.7275,-1.7705,-1.791,-1.793,-1.7656,-1.7598,-1.751,-1.7184,-1.7126,-1.7408,-1.8301,-1.8672,-1.916,-2.001,-1.9883,-1.96,-1.9316,-1.9033,0.0,0.0,0.0,0.0,-2.1052,-2.2614,-2.3986,-2.496,-2.6481,-2.7643,-2.8324,-2.9114,-2.9503,-2.9503,-2.9691,-2.9792,-2.9792,-2.9792,-2.9792,-2.9779,-2.9591,-2.9402,-2.9202,-2.8812,-2.8512,-2.8323,-2.7582,-2.7168,-2.7002,-2.6637,-2.6499,-2.6499,-2.6499,-2.6499,-2.6499,-2.6499,-2.6499,-2.6461,-2.6273,-2.5787,-2.5234,-2.4707,-2.4155,-2.3597,-2.3208,-2.3108,-2.3108,-2.3108,-2.3108,-2.3108,-2.3108,-2.3108,-2.3108,-2.3108,-2.3108,-2.3108,-2.3108,-2.2957,-2.2706,-2.2343,-2.2008,-2.1506,-2.0805,-2.0201,-1.9798,-1.9798,-1.9798,-1.9695,-1.9449,-1.9315,-1.8726,-1.7495,-1.678,-1.5977,-1.5006,-1.4422,-1.4104,-1.4104,-1.4104,-1.4104,-1.4104,-1.4424,-1.4561,-1.457,-1.4816,-1.503,-1.5205,-1.5205,-1.5273,-1.4669,-1.5547,-1.6445,-1.7009,-1.7402,-1.7676,-1.7949,-1.79,-1.7666,-1.7236,-1.7021,-1.6777,-1.6307,-1.6229,-1.657,-1.7617,-1.81,-1.8724,-1.9775,-1.9912,-1.9814,-1.9541,-1.9375,-1.9287,0.0,0.0,0.0,-2.1534,-2.277,-2.4174,-2.573,-2.6907,-2.7953,-2.8875,-2.949,-2.9792,-2.9792,-2.9792,-2.9792,-2.9792,-2.9792,-2.9792,-2.9792,-2.9792,-2.9792,-2.9779,-2.9402,-2.9076,-2.8838,-2.816,-2.7645,-2.7291,-2.6927,-2.6663,-2.6499,-2.6499,-2.6499,-2.6499,-2.6499,-2.6499,-2.6499,-2.6499,-2.6097,-2.5536,-2.5197,-2.472,-2.418,-2.3572,-2.3409,-2.3358,-2.3158,-2.3108,-2.3108,-2.3108,-2.3108,-2.3108,-2.3108,-2.3108,-2.3108,-2.3108,-2.3108,-2.2995,-2.2644,-2.2447,-2.2008,-2.1119,-2.0503,-2.0037,-1.9823,-1.9798,-1.9798,-1.9798,-1.9798,-1.9423,-1.8474,-1.7676,-1.6824,-1.5849,-1.5014,-1.4562,-1.4562,-1.4562,-1.4562,-1.4562,-1.4863,-1.501,-1.501,-1.5283,-1.541,-1.541,-1.541,-1.541,-1.5791,-1.6436,-1.696,-1.7803,-1.8008,-1.8008,-1.7978,-1.7656,-1.7217,-1.6726,-1.6309,-1.5889,-1.54,0.0,-1.5791,-1.708,-1.7686,-1.8447,-1.9707,-1.9922,-1.9951,0.0,0.0,0.0,0.0,0.0,0.0,-2.1924,0.0,-2.3218,-2.5752,-2.64,-2.7404,-2.8913,-2.9503,-2.9792,-2.9792,-2.9792,-2.9792,-2.9792,-2.9792,-2.9792,-2.9792,-2.9792,-2.9792,-2.9792,-2.9792,-2.9478,-2.8938,-2.89,-2.831,-2.7369,-2.7306,-2.7002,-2.6537,-2.6499,-2.6499,-2.6499,-2.6499,-2.6499,-2.6499,-2.6499,-2.6122,-2.5636,-2.5598,-2.5247,-2.4713,-2.4192,-2.4017,-2.3866,-2.3296,-2.3133,-2.3108,-2.3108,-2.3108,-2.3108,-2.3108,-2.3108,-2.3108,-2.3108,-2.3108,-2.3108,-2.3108,-2.2644,-2.2133,-2.1606,-2.1081,-2.0528,-1.9924,-1.9823,-1.9798,-1.9798,-1.9798,-1.9773,-1.9747,-1.8463,-1.7633,-1.755,-1.6216,-1.5439,-1.541,-1.541,-1.541,-1.541,-1.541,-1.541,-1.541,-1.541,-1.541,-1.541,-1.541,-1.541,-1.6377,-1.7109,-1.7734,-1.7959,-1.8008,-1.793,-1.7617,-1.7207,-1.6648,-1.5878,-1.541,-1.4911,-1.4131,-1.4512,0.0,-1.5811,-1.709,0.0,-1.9316,-2.0,0.0,-2.0439,0.0,-2.0742,-2.0742,-2.1035,0.0,0.0,-2.314,-2.4388,-2.6935,-2.7849,-2.8699,-2.9553,-2.9716,-2.9792,-2.9792,-2.9792,-2.9792,-2.9792,-2.9792,-2.9792,-2.9792,-2.9792,-2.9792,-2.9792,-2.9792,-2.9704,-2.9541,-2.9076,-2.8725,-2.8423,-2.7607,-2.7241,-2.7052,-2.665,-2.6499,-2.6499,-2.6499,-2.6499,-2.6499,-2.6499,-2.6399,-2.6197,-2.5724,-2.5498,-2.5285,-2.4757,-2.4318,-2.3966,-2.3816,-2.3421,-2.3108,-2.3108,-2.3108,-2.3108,-2.3108,-2.3108,-2.3108,-2.3108,-2.3108,-2.3108,-2.3108,-2.2644,-2.2259,-2.2121,-2.1631,-2.1106,-2.0541,-2.0075,-1.9798,-1.9798,-1.9798,-1.9579,-1.9044,-1.8635,-1.7961,-1.6849,-1.6425,-1.5979,-1.541,-1.541,-1.541,-1.541,-1.541,-1.541,-1.541,-1.541,-1.541,-1.541,-1.541,-1.541,-1.6894,-1.75,-1.8008,-1.8008,-1.7871,-1.7617,-1.7197,-1.6465,-1.5635,-1.4756,-1.4092,0.0,-1.2783,-1.3394,0.0,0.0,0.0,0.0,-1.9141,-2.0067,-2.0674,0.0,-2.1044,0.0,-2.1504,-2.1748,-2.2388,0.0,-2.4062,-2.4979,-2.6588,-2.8092,-2.8948,-2.9042,-2.9534,-2.9792,-2.9792,-2.9792,-2.9792,-2.9792,-2.9792,-2.9792,-2.9792,-2.9792,-2.9792,-2.9792,0.0,-2.9792,-2.9767,-2.944,-2.9126,-2.8813,-2.7984,-2.7494,-2.7253,-2.67,-2.6499,-2.6499,-2.6499,-2.6499,-2.6499,-2.6499,-2.6499,-2.6436,-2.6109,-2.5975,-2.5862,-2.531,-2.4933,-2.4594,-2.4117,-2.3753,-2.3421,-2.3158,-2.3108,-2.3108,-2.3108,-2.3108,-2.3108,-2.3108,-2.3108,-2.3108,-2.3108,-2.2844,-2.2644,-2.2644,-2.2196,-2.1732,-2.143,-2.0717,-2.0175,-2.0175,-1.9962,-1.9631,-1.9228,-1.8874,-1.834,-1.7523,-1.7174,-1.6641,-1.5921,-1.5892,-1.5719,-1.541,-1.541,-1.541,-1.541,-1.541,-1.541,-1.541,-1.541,-1.541,-1.7353,-1.7734,-1.8008,-1.8008,-1.7695,-1.7256,-1.6758,-1.5596,-1.4375,-1.3516,0.0,-1.1892,-1.1496,-1.223,-1.3306,-1.4502,0.0,-1.7764,-1.9102,-2.0018,-2.0693,-2.122,-2.1278,-2.1473,-2.2002,-2.2051,-2.2595,-2.394,-2.4643,-2.5176,-2.5708,-2.7547,-2.8448,-2.8112,-2.9197,-2.9792,-2.9792,-2.9792,-2.9792,-2.9792,-2.9792,-2.9792,-2.9792,-2.9792,-2.9792,-2.9792,-2.9792,-2.9792,-2.9792,-2.9792,-2.9503,-2.895,-2.8348,-2.7808,-2.7318,-2.6725,-2.6499,-2.6499,-2.6499,-2.6499,-2.6499,-2.6499,-2.6499,-2.6499,-2.6499,-2.6499,-2.6386,-2.585,-2.5649,-2.5385,-2.4456,-2.4104,-2.3866,-2.3333,-2.3158,-2.3108,-2.3108,-2.3108,-2.3108,-2.3108,-2.3108,-2.3108,-2.3108,-2.3108,-2.3108,-2.3108,-2.2694,-2.2422,-2.2422,-2.1455,-2.0805,-2.0805,-2.0289,-1.9911,-1.9911,-1.9251,-1.8794,-1.8715,-1.8004,-1.7302,-1.668,-1.6454,-1.6093,-1.5555,-1.5439,-1.541,-1.541,-1.541,-1.541,-1.541,-1.541,-1.541,-1.7783,-1.7959,-1.8008,-1.8008,-1.7695,-1.72,-1.6398,-1.4912,0.0,0.0,-1.1726,-1.1006,-1.0606,-1.1829,-1.3184,-1.4075,0.0,0.0,0.0,0.0,-2.0459,0.0,0.0,0.0,0.0,0.0,0.0,0.0,0.0,-2.5288,-2.6296,-2.6717,-2.7279,-2.8084,-2.9197,-2.9792,-2.9792,-2.9792,-2.9792,-2.9792,-2.9792,-2.9792,-2.9792,-2.9792,-2.9792,-2.9792,-2.9792,0.0,-2.9792,-2.9792,-2.9729,-2.9541,-2.8511,-2.8047,-2.7846,-2.6864,-2.6499,-2.6499,-2.6499,-2.6499,-2.6499,-2.6499,-2.6499,-2.6499,-2.6499,-2.6499,-2.6474,-2.6373,-2.5963,-2.5548,-2.5372,-2.4657,-2.3966,-2.3866,-2.3446,-2.3108,-2.3108,-2.3108,-2.3108,-2.3108,-2.3108,-2.3108,-2.3108,-2.3108,-2.3108,-2.3108,-2.302,-2.2957,-2.2957,-2.2033,-2.1343,-2.1343,-2.088,-2.0541,-2.0541,-1.997,-1.9345,-1.8741,-1.8004,-1.755,-1.7413,-1.6255,-1.5806,-1.6293,-1.5719,-1.541,-1.541,-1.541,-1.541,-1.541,-1.541,-1.541,-1.79,-1.8008,-1.8008,-1.8008,-1.7344,-1.6506,-1.5625,0.0,0.0,0.0,-1.0527,-0.9922,-0.9941,-1.0996,0.0,0.0,0.0,0.0,0.0,0.0,0.0,0.0,0.0,0.0,0.0,0.0,0.0,0.0,0.0,-2.4425,-2.5546,-2.6707,-2.7815,-2.8937,-2.9495,-2.9792,-2.9792,-2.9792,-2.9792,-2.9792,-2.9792,-2.9792,-2.9792,-2.9792,-2.9792,-2.9792,-2.9792,0.0,-2.9792,-2.9792,-2.9792,-2.9679,-2.8549,-2.8109,-2.7971,-2.6901,-2.6499,-2.6499,-2.6499,-2.6499,-2.6499,-2.6499,-2.6499,-2.6499,-2.6499,-2.6499,-2.6499,-2.6499,-2.6298,-2.6009,-2.5674,-2.5222,-2.4682,-2.413,-2.3521,-2.3108,-2.3108,-2.3108,-2.3108,-2.3108,-2.3108,-2.3108,-2.3108,-2.3108,-2.3108,-2.3108,-2.3108,-2.3108,-2.3108,-2.2644,-2.2234,-2.1945,-2.1458,-2.1119,-2.1119,-2.0603,-2.0118,-1.9748,-1.9122,-1.8581,-1.8194,-1.7124,-1.6528,-1.6492,-1.5777,-1.541,-1.541,-1.541,-1.541,-1.542,-1.5644,-1.5752,-1.7793,-1.7939,-1.8008,-1.8008,-1.7031,-1.587,-1.5009,-1.3062,0.0,0.0,-0.9463,-0.9004,-0.9406,0.0,-1.124,0.0,-1.3799,0.0,0.0,0.0,0.0,0.0,0.0,0.0,0.0,0.0,0.0,0.0,0.0,0.0,-2.4414,-2.6315,-2.7815,-2.87,-2.8961,-2.9079,-2.9079,-2.9326,-2.9456,-2.9443,-2.9663,-2.9792,-2.9792,-2.9792,-2.9792,-2.9792,-2.9792,0.0,0.0,-2.9792,-2.9792,-2.9679,-2.8549,-2.8109,-2.7971,-2.6901,-2.6499,-2.6499,-2.6499,-2.6499,-2.6499,-2.6499,-2.6499,-2.6499,-2.6499,-2.6499,-2.6499,-2.6499,-2.6499,-2.6386,-2.5933,-2.5686,-2.5322,-2.4255,-2.3653,-2.3258,-2.3133,-2.3108,-2.3108,-2.3108,-2.3108,-2.3108,-2.3108,-2.3108,-2.3108,-2.3108,-2.3108,-2.3108,-2.3108,-2.3108,-2.2945,-2.2506,-2.1995,-2.1656,-2.1656,-2.1016,-2.0583,-2.0583,-1.9814,-1.9183,-1.8776,-1.8058,-1.7394,-1.6775,-1.6233,-1.5861,-1.5693,-1.5693,-1.5693,-1.5703,-1.6045,-1.6242,-1.7465,-1.7715,-1.8008,-1.8008,-1.7031,-1.587,-1.5009,0.0,0.0,-0.9854,-0.9023,-0.8581,-0.8984,-0.9766,-1.0919,-1.2631,-1.3301,-1.4502,0.0,0.0,0.0,0.0,0.0,0.0,0.0,0.0,0.0,0.0,0.0,0.0,-2.3299,-2.4414,-2.5157,-2.5241,-2.6254,-2.6812,-2.6812,-2.7775,-2.8255,-2.8255,-2.9326,-2.9792,-2.9792,-2.9792,-2.9792,-2.9792,-2.9792,0.0,0.0,-2.9792,-2.9792,-2.9679,-2.8549,-2.8109,-2.7971,-2.6901,-2.6499,-2.6499,-2.6499,-2.6499,-2.6499,-2.6499,-2.6499,-2.6499,-2.6499,-2.6499,-2.6499,-2.6499,-2.6499,-2.6487,-2.6424,-2.6021,-2.5322,-2.4255,-2.3954,-2.3778,-2.3221,-2.3108,-2.3108,-2.3108,-2.3108,-2.3108,-2.3108,-2.3108,-2.3108,-2.3108,-2.3108,-2.3108,-2.3108,-2.3108,-2.3083,-2.3032,-2.2543,-2.2234,-2.2234,-2.0998,-2.0253,-2.0253,-1.8811,-1.8251,-1.8866,-1.8291,-1.7859,-1.7666,-1.7737,-1.739,-1.658,-1.658,-1.658,-1.658,-1.6619,-1.6638,-1.7269,-1.7686,-1.8008,-1.8008,-1.6826,-1.5449,-1.459,0.0,-1.0361,-0.9737,-0.8965,-0.86,-0.924,-0.964,-1.0371,-1.1868,-1.225,-1.3057,-1.5137,0.0,0.0,0.0,0.0,0.0,0.0,0.0,0.0,0.0,0.0,0.0,-2.3135,-2.4851,-2.5797,-2.5797,-2.6265,-2.6524,-2.6524,-2.7562,-2.8096,-2.8124,-2.9275,-2.9792,-2.9792,-2.9792,-2.9792,-2.9792,-2.9792,0.0,0.0,-2.9792,-2.9792,-2.9716,-2.8913,-2.8361,-2.8009,-2.7278,-2.6788,-2.6499,-2.6499,-2.6499,-2.6499,-2.6499,-2.6499,-2.6499,-2.6499,-2.6499,-2.6499,-2.6499,-2.6499,-2.6499,-2.6499,-2.6059,-2.5485,-2.5059,-2.4469,-2.3941,-2.3703,-2.3346,-2.3108,-2.3108,-2.3108,-2.3108,-2.3108,-2.3108,-2.3108,-2.3108,-2.3108,-2.3108,-2.3108,-2.3108,-2.3108,-2.3108,-2.2907,-2.2782,-2.2782,-2.1964,-2.1253,-2.0718,-1.9775,-1.913,-1.891,-1.8239,-1.7852,-1.7791,-1.742,-1.7065,-1.6697,-1.6697,-1.6697,-1.6707,-1.7002,-1.7119,-1.6602,-1.7207,-1.7637,-1.7637,-1.6426,-1.5,0.0,-1.2148,-1.0303,-0.9728,-0.9062,-0.8779,-0.9484,-0.9592,-1.003,-1.1369,-1.1606,-1.223,-1.4036,-1.4923,0.0,0.0,0.0,0.0,0.0,0.0,0.0,0.0,0.0,0.0,-2.3091,-2.4595,-2.5473,-2.5473,-2.5473,-2.5473,-2.5473,-2.6912,-2.7643,-2.7643,-2.9118,-2.9792,-2.9792,-2.9792,-2.9792,-2.9792,-2.9792,0.0,0.0,-2.9792,-2.9792,-2.9729,-2.9151,-2.8549,-2.8047,-2.7494,-2.6964,-2.6499,-2.6499,-2.6499,-2.6499,-2.6499,-2.6499,-2.6499,-2.6499,-2.6499,-2.6499,-2.6499,-2.6499,-2.6499,-2.6499,-2.6185,-2.5812,-2.5636,-2.5021,-2.4431,-2.4268,-2.3791,-2.3358,-2.3358,-2.3221,-2.3108,-2.3108,-2.3108,-2.3108,-2.3108,-2.3108,-2.3108,-2.3108,-2.3108,-2.3108,-2.3108,-2.3108,-2.3108,-2.3108,-2.2536,-2.1932,-2.1307,-2.044,-1.9659,-1.9047,-1.8531,-1.8113,-1.786,-1.7594,-1.7357,-1.7077,-1.7077,-1.7077,-1.7087,-1.7422,-1.7568,-1.5312,-1.6044,-1.6716,-1.6716,-1.5762,-1.457,-1.3711,-1.2158,-1.0644,-0.9786,-0.9279,-0.9114,-0.9533,-0.9592,-1.003,-1.1369,-1.1606,-1.2361,-1.45,-1.5146,0.0,0.0,0.0,0.0,0.0,0.0,0.0,0.0,0.0,0.0,-2.3091,-2.3135,-2.3144,-2.3144,-2.3144,-2.3144,-2.3144,-2.5389,-2.6524,-2.6565,-2.8752,-2.9792,-2.9792,-2.9792,-2.9792,-2.9792,0.0,0.0,0.0,-2.9792,-2.9792,-2.9729,-2.9151,-2.8549,-2.8047,-2.7494,-2.6964,-2.6499,-2.6499,-2.6499,-2.6499,-2.6499,-2.6499,-2.6499,-2.6499,-2.6499,-2.6499,-2.6499,-2.6499,-2.6499,-2.6499,-2.6487,-2.6336,-2.5737,-2.5586,-2.5435,-2.4888,-2.4381,-2.3991,-2.3991,-2.3496,-2.3108,-2.3108,-2.3108,-2.3108,-2.3108,-2.3108,-2.3108,-2.3108,-2.3108,-2.3108,-2.3108,-2.3108,-2.3108,-2.3108,-2.2384,-2.1896,-2.1908,-2.0257,-1.9321,-1.9288,-1.9288,-1.8867,-1.7998,-1.8834,-1.8834,-1.7998,-1.7998,-1.7998,-1.7998,-1.7998,-1.8008,-1.3994,-1.4746,-1.5332,-1.5001,-1.4397,-1.3691,-1.2808,-1.1716,-1.0752,-1.0186,-0.9718,-0.9552,-1.0,-1.0078,-1.0498,-1.1807,-1.2289,-1.2925,0.0,0.0,0.0,0.0,0.0,0.0,0.0,0.0,0.0,0.0,0.0,0.0,-2.3091,-2.3091,-2.3091,-2.3091,-2.3091,-2.3091,-2.3091,-2.4595,-2.5336,-2.5378,-2.6842,-2.7545,-2.7545,-2.7545,-2.7545,0.0,0.0,0.0,0.0,-2.9495,-2.9792,-2.9779,-2.9591,-2.8938,-2.8084,-2.7908,-2.7291,-2.6499,-2.6499,-2.6499,-2.6499,-2.6499,-2.6499,-2.6499,-2.6499,-2.6499,-2.6499,-2.6499,-2.6499,-2.6499,-2.6499,-2.6499,-2.6449,-2.626,-2.5921,-2.5548,-2.5385,-2.4933,-2.4456,-2.4067,-2.3853,-2.3572,-2.317,-2.3108,-2.3108,-2.3108,-2.3108,-2.3108,-2.3108,-2.3108,-2.3108,-2.3108,-2.3108,-2.3108,-2.3108,-2.2854,-2.2476,-2.1939,-2.1396,-2.0526,-1.9332,-1.9299,-1.8877,-1.8008,-1.8269,-1.8269,-1.8008,-1.8008,-1.8008,-1.8008,-1.8008,-1.8008,-1.2553,-1.3433,-1.3994,-1.373,-1.3315,-1.2779,-1.1901,-1.1182,-1.0557,-1.0127,-0.9806,-0.9747,-1.0215,-1.0303,-1.0674,-1.1797,-1.223,0.0,0.0,0.0,0.0,0.0,0.0,0.0,0.0,0.0,0.0,0.0,0.0,0.0,-2.3091,-2.3091,-2.3091,-2.3091,-2.3091,-2.3091,-2.3091,-2.4211,-2.4787,-2.483,-2.5975,-2.6524,-2.6524,-2.6524,-2.6524,0.0,0.0,0.0,0.0,-2.9326,-2.9792,-2.9753,-2.9326,-2.8846,-2.8312,-2.7718,-2.7196,-2.6776,-2.6562,-2.6499,-2.6499,-2.6499,-2.6499,-2.6499,-2.6499,-2.6499,-2.6499,-2.6499,-2.6499,-2.6499,-2.6499,-2.6499,-2.6499,-2.6499,-2.6223,-2.5925,-2.5925,-2.5498,-2.4958,-2.4418,-2.4142,-2.3816,-2.3208,-2.3108,-2.3108,-2.3108,-2.3108,-2.3108,-2.3108,-2.3108,-2.3108,-2.3108,-2.2823,-2.2641,-2.2641,-2.2914,-2.2763,-2.1939,-2.1585,-2.0782,-1.9365,-1.8977,-1.8563,-1.8008,-1.8008,-1.8008,-1.8008,-1.8008,-1.8008,-1.8008,-1.8008,-1.8008,0.0,-1.2005,-1.267,-1.2641,-1.2324,-1.1804,-1.0967,-1.0498,0.0,-0.9659,-0.9573,-0.9757,-1.0263,-1.0352,-1.0655,-1.1587,-1.1773,0.0,0.0,0.0,0.0,0.0,0.0,0.0,0.0,0.0,0.0,0.0,0.0,0.0,-2.3091,-2.3091,-2.3091,-2.3091,-2.3091,-2.3091,-2.3091,-2.4168,-2.467,-2.4702,-2.5766,-2.6265,-2.6265,-2.6265,-2.6265,0.0,0.0,0.0,0.0,-2.9197,-2.9714,-2.9702,-2.8636,-2.8504,-2.8712,-2.7241,-2.6919,-2.7241,-2.6738,-2.6524,-2.6499,-2.6499,-2.6499,-2.6499,-2.6499,-2.6499,-2.6499,-2.6499,-2.6499,-2.6499,-2.6499,-2.6499,-2.6499,-2.6499,-2.6499,-2.6499,-2.6499,-2.6072,-2.5498,-2.4938,-2.4456,-2.3916,-2.3271,-2.3097,-2.3055,-2.3017,-2.3005,-2.3005,-2.3005,-2.3078,-2.3108,-2.3108,-2.2445,-2.197,-2.1908,-2.2537,-2.2598,-2.1846,-2.1037,-2.0204,-1.9342,-1.8529,-1.8076,-1.8008,-1.8008,-1.8008,-1.8008,-1.8008,-1.8008,-1.8008,-1.8008,-1.8008,-0.9048,0.0,-1.0293,-1.0,-1.0059,-1.0079,0.0,-0.9611,-0.965,-0.9221,-0.9387,-0.9845,-1.0625,-1.0762,-1.126,-1.2803,0.0,0.0,0.0,0.0,0.0,0.0,0.0,0.0,0.0,0.0,0.0,0.0,0.0,-2.3091,-2.3091,-2.3091,-2.3091,-2.3091,-2.3091,-2.3091,-2.3091,-2.3387,-2.3507,-2.3507,-2.3757,-2.3887,-2.3887,-2.3887,-2.3887,0.0,0.0,0.0,-2.6964,-2.8068,-2.9028,-2.9753,-2.9495,-2.9185,-2.8838,-2.8474,-2.7889,-2.7268,-2.7165,-2.6851,-2.6499,-2.6499,-2.6499,-2.6499,-2.6499,-2.6499,-2.6499,-2.6499,-2.6499,-2.6499,-2.6499,-2.6499,-2.6499,-2.6499,-2.6499,-2.6499,-2.6499,-2.6386,-2.6122,-2.5523,-2.531,-2.4921,-2.3954,-2.3236,-2.2657,-2.2259,-2.2199,-2.2199,-2.2199,-2.2732,-2.3108,-2.3108,-2.2914,-2.2567,-2.1939,-2.1447,-2.1101,-2.091,-2.0719,-2.0204,-1.9342,-1.911,-1.8687,-1.8008,-1.8008,-1.8008,-1.8008,-1.8008,-1.8008,-1.8008,-1.8008,-1.8008,-0.8086,-0.8984,-0.9873,-0.9648,-0.9902,-1.0088,-0.9687,-0.9591,-0.9534,-0.9318,-0.9455,-0.9874,-1.0732,-1.1074,0.0,0.0,-1.3714,0.0,0.0,0.0,0.0,0.0,0.0,0.0,0.0,0.0,0.0,0.0,0.0,-2.3091,-2.3091,-2.3091,-2.3091,-2.3091,-2.3091,-2.3091,-2.3091,-2.3091,-2.3091,-2.3091,-2.3091,-2.3091,-2.3091,-2.3091,-2.3091,0.0,0.0,0.0,-2.6565,-2.7128,-2.8331,-2.9714,-2.8673,-2.8699,-2.9213,-2.8457,-2.7953,-2.762,-2.7369,-2.6952,-2.6499,-2.6499,-2.6499,-2.6499,-2.6499,-2.6499,-2.6499,-2.6499,-2.6499,-2.6383,-2.5921,-2.5804,-2.5699,-2.524,-2.5122,-2.5122,-2.5122,-2.5499,-2.5644,-2.508,-2.5319,-2.5335,-2.4519,-2.3974,-2.3389,-2.2659,-2.2389,-2.2107,-2.1638,-2.1788,-2.1959,-2.1959,-2.1604,-2.1184,-2.0751,-1.9911,-1.9595,-1.9977,-2.0009,-1.9617,-1.8754,-1.8687,-1.8496,-1.8008,-1.8008,-1.8008,-1.8008,-1.8008,-1.8008,-1.8008,-1.8008,-1.8008,-0.7851,-0.9072,-1.0254,-1.0058,-1.041,-1.0703,-1.0303,-0.9951,-0.9718,-0.9718,0.0,-1.0069,-1.0936,-1.1523,0.0,0.0,0.0,0.0,0.0,0.0,0.0,0.0,0.0,0.0,0.0,0.0,0.0,0.0,0.0,-2.3091,-2.3091,-2.3091,-2.3091,-2.3091,-2.3091,-2.3091,-2.3091,-2.3091,-2.3091,-2.3091,-2.3091,-2.3091,-2.3091,-2.3091,-2.3178,-2.3387,0.0,0.0,-2.6524,-2.6524,-2.7718,-2.9365,-2.7678,-2.8131,-2.9639,-2.8082,-2.7775,-2.8009,-2.7381,-2.6889,-2.6499,-2.6499,-2.6499,-2.6499,-2.6499,-2.6499,-2.6499,-2.6499,-2.6383,-2.6094,-2.5406,-2.5004,-2.4636,-2.4072,-2.3734,-2.3551,-2.3708,-2.4264,-2.4649,-2.4178,-2.4752,-2.5102,-2.4583,-2.4353,-2.3975,-2.3021,-2.2614,-2.206,-2.1219,-2.093,-2.0782,-2.0782,-2.0128,-1.9642,-1.9509,-1.8822,-1.8662,-1.9251,-1.9183,-1.8754,-1.8042,-1.8008,-1.8008,-1.8008,-1.8008,-1.8008,-1.8008,-1.8008,-1.8008,-1.8008,-1.8008,-1.8008,-0.8597,-0.9531,-1.0038,-0.8952,-0.9549,-1.0264,-0.9815,-0.9961,-1.0186,0.0,0.0,0.0,0.0,-1.2652,-1.3613,0.0,0.0,0.0,0.0,0.0,0.0,0.0,0.0,0.0,0.0,0.0,0.0,0.0,0.0,-2.3091,-2.3091,-2.3091,-2.3091,-2.3091,-2.3091,-2.3091,-2.3091,-2.3091,-2.3091,-2.3091,-2.3091,-2.3091,-2.3091,-2.3091,-2.3637,-2.45,0.0,-2.4563,-2.6524,-2.6524,-2.725,-2.8426,-2.9028,-2.9507,-2.9716,-2.8936,-2.8425,-2.7959,-2.6977,-2.6562,-2.6499,-2.6499,-2.6499,-2.6499,-2.6499,-2.6499,-2.6499,-2.6499,-2.5873,-2.5406,-2.6094,-2.5028,-2.4108,-2.5687,-2.4731,-2.3734,-2.46,-2.4228,-2.3722,-2.3607,-2.3729,-2.3642,-2.3106,-2.2426,-2.1725,-2.1115,-2.0951,-2.0874,-2.0699,-2.1296,-2.1687,-2.1687,-2.1595,-2.1218,-2.0464,-2.0298,-1.9945,-1.9334,-1.8607,-1.8134,-1.8008,-1.8008,-1.8008,-1.8008,-1.8008,-1.8008,-1.8008,-1.8008,-1.8008,-1.8008,-1.8008,-1.8008,-0.8197,-0.9084,-0.9785,-0.9199,-1.0381,-1.1653,-1.1436,-1.1543,-1.1712,-1.1712,0.0,0.0,0.0,0.0,0.0,0.0,0.0,0.0,0.0,0.0,0.0,0.0,0.0,0.0,0.0,0.0,0.0,0.0,0.0,0.0,-2.3091,-2.3091,-2.3091,-2.3091,-2.3091,-2.3091,-2.3091,-2.3091,-2.3091,-2.3091,-2.3091,-2.3091,-2.3091,-2.3091,-2.3387,-2.3877,0.0,-2.4628,-2.563,-2.6265,-2.7128,-2.8136,-2.8688,-2.9275,-2.9679,-2.8812,-2.8134,-2.7544,-2.6776,-2.6499,-2.6499,-2.6499,-2.6499,-2.6383,-2.5838,-2.606,-2.6383,-2.5838,-2.5734,-2.5652,-2.5028,-2.4169,-2.3478,-2.3331,-2.2601,-2.2048,-2.2526,-2.2675,-2.2702,-2.2702,-2.3147,-2.3411,-2.3176,-2.2779,-2.2276,-2.1476,-2.1162,-2.0834,-2.0299,-2.0365,-2.0496,-2.0496,-2.0496,-2.0329,-1.9945,-1.9919,-1.9639,-1.8945,-1.8564,-1.8217,-1.8018,-1.8008,-1.8008,-1.8008,-1.8008,-1.8008,-1.8008,-1.8008,-1.8008,-1.8008,-1.8008,-1.8008,-0.7954,-0.8775,-0.9641,-0.9864,-1.126,-1.267,-1.2959,-1.3027,-1.314,-1.3408,0.0,0.0,0.0,0.0,0.0,0.0,0.0,0.0,0.0,0.0,0.0,0.0,0.0,0.0,0.0,0.0,0.0,0.0,0.0,0.0,-2.2945,-2.2945,-2.2994,-2.3091,-2.3091,-2.3091,-2.3091,-2.3091,-2.3091,-2.3091,-2.3091,-2.3091,-2.3091,-2.3091,-2.3266,-2.3551,-2.4414,-2.4957,-2.5294,-2.6419,-2.7371,-2.8136,-2.8386,-2.8868,-2.9277,-2.8273,-2.7557,-2.7065,-2.6637,-2.6499,-2.6452,-2.6245,-2.6129,-2.5943,-2.4969,-2.5182,-2.5687,-2.5158,-2.5406,-2.5499,-2.4181,-2.3514,-2.2813,-2.1565,-2.0934,-2.0644,-2.0895,-2.1336,-2.1659,-2.1659,-2.2301,-2.2824,-2.2824,-2.2824,-2.2553,-2.1773,-2.1408,-2.0941,-2.0172,-1.9785,-1.959,-1.959,-1.959,-1.959,-1.959,-1.959,-1.9394,-1.8929,-1.8812,-1.8643,-1.832,-1.8311,-1.8311,-1.8311,-1.8311,-1.8311,-1.8311,-1.8311,-1.8311,-1.8311,-1.8311,-1.8311,-0.8685,-0.925,-0.9787,-1.0595,-1.1261,-1.1995,-1.3184,-1.3467,-1.3799,-1.499,0.0,0.0,0.0,0.0,0.0,0.0,0.0,0.0,0.0,0.0,0.0,0.0,0.0,0.0,0.0,0.0,0.0,0.0,0.0,0.0,-2.2539,-2.2559,-2.2691,-2.3081,-2.3091,-2.3091,-2.3091,-2.3091,-2.3091,-2.3091,-2.3091,-2.3091,-2.3091,-2.3091,-2.3671,-2.466,-2.4745,-2.542,-2.6472,-2.7522,-2.8044,-2.8215,-2.9275,-2.9075,-2.816,-2.7557,-2.7027,-2.6549,-2.6512,-2.6499,-2.6349,-2.5406,-2.5123,-2.4933,-2.3927,-2.3661,-2.3891,-2.4743,-2.4373,-2.3891,-2.4671,-2.3526,-2.2291,-2.311,-2.1897,-2.0828,-2.1697,-2.126,-2.0712,-2.0712,-2.075,-2.0828,-2.0828,-2.0828,-2.0789,-2.0712,-2.0692,-2.0634,-2.0556,-2.0527,-2.0507,-2.0507,-2.0507,-2.0507,-2.0507,-2.0507,-2.0331,-1.9853,-1.9453,-1.9228,-1.9199,-1.9199,-1.9199,-1.9199,-1.9199,-1.9199,-1.9199,-1.9199,-1.9199,-1.9199,-1.9199,-1.9199,-0.811,-0.9102,-1.0117,-1.0439,-1.1486,-1.267,-1.3636,-1.4521,-1.542,-1.6426,-1.6846,0.0,0.0,0.0,0.0,0.0,0.0,0.0,0.0,0.0,0.0,0.0,0.0,0.0,0.0,0.0,0.0,0.0,0.0,0.0,-2.2119,-2.2129,-2.2197,-2.2353,-2.2353,-2.2353,-2.2353,-2.2617,-2.2711,-2.2711,-2.2974,-2.3091,-2.3091,-2.3091,-2.3343,-2.3844,-2.5263,-2.5714,-2.563,-2.8119,-2.8359,-2.7134,-2.7275,-2.7067,-2.6554,-2.5751,-2.5094,-2.4624,-2.4624,-2.4624,-2.4576,-2.4181,-2.4072,-2.3891,-2.2888,-2.2999,-2.3441,-2.3184,-2.3294,-2.3745,-2.4743,-2.3514,-2.2103,-2.2478,-2.1565,-2.0712,-2.1039,-2.0857,-2.0605,-2.0605,-2.0605,-2.0605,-2.0605,-2.0605,-2.0605,-2.0605,-2.0605,-2.0605,-2.0605,-2.0605,-2.0605,-2.0605,-2.0605,-2.0605,-2.0605,-2.0605,-2.0537,-2.037,-1.9912,-1.9561,-1.9297,-1.9287,-1.9287,-1.9287,-1.9287,-1.9287,-1.9287,-1.9287,-1.9287,-1.9287,-1.9287,-1.9287,-0.811,-0.9277,-1.0537,-1.0674,-1.1917,-1.333,-1.4289,-1.5332,-1.6418,-1.7539,-1.7803,-1.7939,-1.834,0.0,0.0,0.0,0.0,0.0,0.0,0.0,0.0,0.0,0.0,0.0,0.0,0.0,0.0,0.0,0.0,0.0,0.0,-2.168,-2.1748,-2.1885,-2.1885,-2.1885,-2.1885,-2.2168,-2.2314,-2.2314,-2.2607,-2.2769,-2.2896,-2.276,-2.2701,-2.282,-2.4742,-2.5103,-2.4607,-2.7265,-2.7475,-2.6049,-2.5543,-2.5348,-2.5228,-2.4374,-2.3806,-2.3514,-2.3514,-2.3514,-2.3441,-2.3147,-2.3036,-2.285,-2.1849,-2.2038,-2.2478,-2.2103,-2.2291,-2.2898,-2.4192,-2.3257,-2.1924,-2.1631,-2.1088,-2.0605,-2.0605,-2.0605,-2.0605,-2.0605,-2.0605,-2.0605,-2.0605,-2.0605,-2.0605,-2.0605,-2.0605,-2.0605,-2.0605,-2.0605,-2.0605,-2.0605,-2.0605,-2.0605,-2.0605,-2.0605,-2.0605,-2.0605,-2.0283,-1.999,-1.9707,-1.9725,-1.9725,-1.9725,-1.9725,-1.9725,-1.9725,-1.9725,-1.9725,-1.9725,-1.9725,-1.9725,-0.9004,-0.9941,-1.1025,-1.1486,-1.2582,-1.3857,-1.5137,-1.5762,-1.6604,-1.8266,-1.7988,-1.7793,-1.9062,0.0,0.0,0.0,0.0,0.0,0.0,0.0,0.0,0.0,0.0,0.0,0.0,0.0,0.0,0.0,0.0,0.0,0.0,-2.119,-2.1426,-2.1855,-2.1875,-2.1875,-2.1875,-2.1875,-2.1875,-2.1875,-2.1875,-2.21,-2.249,-2.207,-2.1885,-2.1967,-2.3041,-2.3492,-2.3572,-2.4731,-2.521,-2.5115,-2.452,-2.428,-2.4224,-2.3657,-2.3478,-2.3478,-2.3478,-2.3478,-2.3294,-2.2328,-2.1989,-2.1811,-2.0895,-2.0605,-2.0789,-2.1735,-2.1336,-2.1049,-2.2962,-2.2739,-2.1735,-2.0818,-2.0605,-2.0605,-2.0605,-2.0605,-2.0605,-2.0605,-2.0605,-2.0605,-2.0605,-2.0605,-2.0605,-2.0605,-2.0605,-2.0605,-2.0605,-2.0605,-2.0605,-2.0605,-2.0605,-2.0605,-2.0605,-2.0605,-2.0605,-2.0605,-2.0605,-2.0605,-2.0605,-2.0605,-2.0605,-2.0605,-2.0605,-2.0605,-2.0605,-2.0605,-2.0605,-2.0605,-2.0605,-2.0605,-0.8944,-1.0175,0.0,-1.2328,0.0,0.0,0.0,-1.6904,0.0,0.0,-1.9551,-1.9277,-1.9658,0.0,0.0,0.0,0.0,0.0,0.0,0.0,0.0,0.0,0.0,0.0,0.0,0.0,0.0,0.0,0.0,0.0,0.0,-2.0762,-2.082,-2.0997,-2.0997,-2.0997,-2.0997,-2.1269,-2.1385,-2.1385,-2.1385,-2.165,-2.207,-2.1943,-2.1885,-2.1967,-2.3041,-2.3492,-2.3532,-2.3852,-2.4248,-2.439,-2.2765,-2.2348,-2.2595,-2.1759,-2.1451,-2.1451,-2.1451,-2.1451,-2.1413,-2.1116,-2.1011,-2.0972,-2.0673,-2.0605,-2.0644,-2.0934,-2.0828,-2.0712,-2.1308,-2.1231,-2.1116,-2.1479,-2.1078,-2.0605,-2.0605,-2.0605,-2.0605,-2.0605,-2.0605,-2.0605,-2.0605,-2.0605,-2.0605,-2.0605,-2.0605,-2.0605,-2.0605,-2.0605,-2.0605,-2.0605,-2.0605,-2.0605,-2.0605,-2.0605,-2.0605,-2.0605,-2.0605,-2.0605,-2.0605,-2.0605,-2.0605,-2.0605,-2.0605,-2.0605,-2.0605,-2.0605,-2.0605,-2.0605,-2.0605,-2.0605,-0.9847,-1.1173,0.0,-1.3443,-1.4658,-1.5986,-1.7174,0.0,0.0,0.0,-1.9971,-1.9766,-2.0107,-1.9687,0.0,0.0,0.0,0.0,0.0,0.0,0.0,0.0,0.0,0.0,0.0,0.0,0.0,0.0,0.0,0.0,0.0,-2.0605,-2.0605,-2.0605,-2.0605,-2.0605,-2.0605,-2.083,-2.0967,-2.0967,-2.0967,-2.1113,-2.1357,-2.1357,-2.1357,-2.1438,-2.2079,-2.2336,-2.2336,-2.2336,-2.2553,-2.2726,-2.146,-2.1173,-2.1375,-2.0828,-2.0605,-2.0605,-2.0605,-2.0605,-2.0605,-2.0605,-2.0605,-2.0605,-2.0605,-2.0605,-2.0605,-2.0605,-2.0605,-2.0605,-2.0605,-2.0605,-2.075,-2.1298,-2.1011,-2.0605,-2.0605,-2.0605,-2.0605,-2.0605,-2.0605,-2.0605,-2.0605,-2.0605,-2.0605,-2.0605,-2.0605,-2.0605,-2.0605,-2.0605,-2.0605,-2.0605,-2.0605,-2.0605,-2.0605,-2.0605,-2.0605,-2.0605,-2.0605,-2.0605,-2.0605,-2.0605,-2.0605,-2.0605,-2.0605,-2.0605,-2.0605,-2.0605,-2.0605,-2.0605,-2.0605,-2.0605,-1.1123,-1.2445,0.0,-1.4609,-1.5576,0.0,-1.8188,-1.8916,-1.9355,-1.9814,0.0,-1.959,-2.0458,0.0,0.0,0.0,0.0,0.0,0.0,0.0,0.0,0.0,0.0,0.0,0.0,0.0,0.0,0.0,0.0,0.0,0.0,-2.0605,-2.0605,-2.0605,-2.0605,-2.0605,-2.0605,-2.0605,-2.0605,-2.0605,-2.0605,-2.0605,-2.0605,-2.0605,-2.0605,-2.0605,-2.0605,-2.0605,-2.0605,-2.0605,-2.0605,-2.0605,-2.0605,-2.0605,-2.0605,-2.0605,-2.0605,-2.0605,-2.0605,-2.0605,-2.0605,-2.0605,-2.0605,-2.0605,-2.0605,-2.0605,-2.0605,-2.0605,-2.0605,-2.0605,-2.0605,-2.0605,-2.0605,-2.0605,-2.0605,-2.0605,-2.0605,-2.0605,-2.0605,-2.0605,-2.0605,-2.0605,-2.0605,-2.0605,-2.0605,-2.0605,-2.0605,-2.0605,-2.0605,-2.0605,-2.0605,-2.0605,-2.0605,-2.0605,-2.0605,-2.0605,-2.0605,-2.0605,-2.0605,-2.0605,-2.0605,-2.0605,-2.0605,-2.0605,-2.0605,-2.0605,-2.0605,-2.0605,-2.0605,-2.0605,-2.0605,-2.0605,-1.0359,-1.178,0.0,0.0,-1.6445,-1.7686,-1.8057,-1.8442,-1.8958,-1.9756,-1.9844,0.0,0.0,0.0,0.0,0.0,0.0,0.0,0.0,0.0,0.0,0.0,0.0,0.0,0.0,0.0,0.0,0.0,0.0,0.0,-2.0605,-2.0605,-2.0605,-2.0605,-2.0605,-2.0605,-2.0605,-2.0605,-2.0605,0.0,-2.0605,-2.0605,-2.0605,-2.0605,-2.0605,-2.0605,-2.0605,-2.0605,-2.0605,-2.0605,-2.0605,-2.0605,-2.0605,-2.0605,-2.0605,-2.0605,-2.0605,-2.0605,-2.0605,-2.0605,-2.0605,-2.0605,-2.0605,-2.0605,-2.0605,-2.0605,-2.0605,-2.0605,-2.0605,-2.0605,-2.0605,-2.0605,-2.0605,-2.0605,-2.0605,-2.0605,-2.0605,-2.0605,-2.0605,-2.0605,-2.0605,-2.0605,-2.0605,-2.0605,-2.0605,-2.0605,-2.0605,-2.0605,-2.0605,-2.0605,-2.0605,-2.0605,-2.0605,-2.0605,-2.0605,-2.0605,-2.0605,-2.0605,-2.0605,-2.0605,-2.0605,-2.0605,-2.0605,-2.0605,-2.0605,-2.0605,-2.0605,-2.0605,-2.0605,-2.0605,-2.0605,-2.0605,-1.0555,0.0,0.0,-1.5537,0.0,-1.7764,-1.7969,-1.8149,-1.8481,-1.9134,0.0,0.0,0.0,0.0,0.0,0.0,0.0,0.0,0.0,0.0,0.0,0.0,0.0,0.0,0.0,0.0,0.0,0.0,0.0,-2.0605,-2.0605,-2.0605,-2.0605,-2.0605,-2.0605,-2.0605,-2.0605,-2.0605,-2.0605,-2.0605,-2.0605,-2.0605,-2.0605,-2.0605,-2.0605,-2.0605,-2.0605,-2.0605,-2.0605,-2.0605,-2.0605,-2.0605,-2.0605,-2.0605,-2.0605,-2.0605,-2.0605,-2.0605,-2.0605,-2.0605,-2.0605,-2.0605,-2.0605,-2.0605,-2.0605,-2.0605,-2.0605,-2.0605,-2.0605,-2.0605,-2.0605,-2.0605,-2.0605,-2.0605,-2.0605,-2.0605,-2.0605,-2.0605,-2.0605,-2.0605,-2.0605,-2.0605,-2.0605,-2.0605,-2.0605,-2.0605,-2.0605,-2.0605,-2.0605,-2.0605,-2.0605,-2.0605,-2.0605,-2.0605,-2.0605,-2.0605,-2.0605,-2.0605,-2.0605,-2.0605,-2.0605,-2.0605,-2.0605,-2.0605,-2.0605,-2.0605,-2.0605,-2.0605,-2.0605,-2.0605,-2.0605,-2.0605,-1.044,0.0,-1.3896,-1.5956,-1.6953,0.0,-1.7822,-1.7959,-1.8105,0.0,0.0,0.0,0.0,0.0,0.0,0.0,0.0,0.0,0.0,0.0,0.0,0.0,0.0,0.0,0.0,0.0,0.0,0.0,0.0,-2.0605,-2.0605,-2.0605,-2.0605,-2.0605,-2.0605,-2.0605,-2.0605,-2.0605,-2.0605,-2.0605,-2.0605,-2.0605,-2.0605,-2.0605,-2.0605,-2.0605,-2.0605,-2.0605,-2.0605,-2.0605,-2.0605,-2.0605,-2.0605,-2.0605,-2.0605,-2.0605,-2.0605,-2.0605,-2.0605,-2.0605,-2.0605,-2.0605,-2.0605,-2.0605,-2.0605,-2.0605,-2.0605,-2.0605,-2.0605,-2.0605,-2.0605,-2.0605,-2.0605,-2.0605,-2.0605,-2.0605,-2.0605,-2.0605,-2.0605,-2.0605,-2.0605,-2.0605,-2.0605,-2.0605,-2.0605,-2.0605,-2.0605,-2.0605,-2.0605,-2.0605,-2.0605,-2.0605,-2.0605,-2.0605,-2.0605,-2.0605,-2.0605,-2.0605,-2.0605,-2.0605,-2.0605,-2.0605,-2.0605,-2.0605,-2.0605,-2.0605,-2.0605,-2.0605,-2.0605,-2.0605,-2.0605,-2.0605,-0.8149,0.0,-1.3414,0.0,-1.6494,-1.7402,0.0,0.0,0.0,0.0,0.0,0.0,0.0,0.0,0.0,0.0,0.0,0.0,0.0,0.0,0.0,0.0,0.0,0.0,0.0,0.0,0.0,0.0,-2.0605,-2.0605,-2.0605,-2.0605,-2.0605,-2.0605,-2.0605,-2.0605,-2.0605,-2.0605,-2.0605,-2.0605,-2.0605,-2.0605,-2.0605,-2.0605,-2.0605,-2.0605,-2.0605,-2.0605,-2.0605,-2.0605,-2.0605,-2.0605,-2.0605,-2.0605,-2.0605,-2.0605,-2.0605,-2.0605,-2.0605,-2.0605,-2.0605,-2.0605,-2.0605,-2.0605,-2.0605,-2.0605,-2.0605,-2.0605,-2.0605,-2.0605,-2.0605,-2.0605,-2.0605,-2.0605,-2.0605,-2.0605,-2.0605,-2.0605,-2.0605,-2.0605,-2.0605,-2.0605,-2.0605,-2.0605,-2.0605,-2.0605,-2.0605,-2.0605,-2.0605,-2.0605,-2.0605,-2.0605,-2.0605,-2.0605,-2.0605,-2.0605,-2.0605,-2.0605,-2.0605,-2.0605,-2.0605,-2.0605,-2.0605,-2.0605,-2.0605,-2.0605,-2.0605,-2.0605,-2.0605,-2.0605,-2.0605,-2.0605,-0.9036,-1.0966,-1.2978,0.0,-1.585,-1.6475,-1.7217,0.0,0.0,0.0,0.0,0.0,0.0,0.0,0.0,0.0,0.0,0.0,0.0,0.0,0.0,0.0,0.0,0.0,0.0,0.0,0.0,0.0,-2.0605,-2.0605,-2.0605,-2.0605,-2.0605,-2.0605,-2.0605,-2.0605,-2.0605,-2.0605,-2.0605,-2.0605,-2.0605,-2.0605,-2.0605,-2.0605,-2.0605,-2.0605,-2.0605,-2.0605,-2.0605,-2.0605,-2.0605,-2.0605,-2.0605,-2.0605,-2.0605,-2.0605,-2.0605,-2.0605,-2.0605,-2.0605,-2.0605,-2.0605,-2.0605,-2.0605,-2.0605,-2.0605,-2.0605,-2.0605,-2.0605,-2.0605,-2.0605,-2.0605,-2.0605,-2.0605,-2.0605,-2.0605,-2.0605,-2.0605,-2.0605,-2.0605,-2.0605,-2.0605,-2.0605,-2.0605,-2.0605,-2.0605,-2.0605,-2.0605,-2.0605,-2.0605,-2.0605,-2.0605,-2.0605,-2.0605,-2.0605,-2.0605,-2.0605,-2.0605,-2.0605,-2.0605,-2.0605,-2.0605,-2.0605,-2.0605,-2.0605,-2.0605,-2.0605,-2.0605,-2.0605,-2.0605,-2.0605,-2.0605,0.0,0.0,-1.1901,-1.4046,-1.4816,-1.54,0.0,0.0,0.0,0.0,0.0,0.0,0.0,0.0,0.0,0.0,0.0,0.0,0.0,0.0,0.0,0.0,0.0,0.0,0.0,0.0,0.0,0.0,-2.0282,-2.0321,-2.0429,-2.0439,-2.0488,-2.0595,-2.0605,-2.0605,-2.0605,-2.0605,-2.0605,-2.0605,-2.0605,-2.0605,-2.0605,-2.0605,-2.0605,-2.0605,-2.0605,-2.0605,-2.0605,-2.0605,-2.0605,-2.0605,-2.0605,-2.0605,-2.0605,-2.0605,-2.0605,-2.0605,-2.0605,-2.0605,-2.0605,-2.0605,-2.0605,-2.0605,-2.0605,-2.0605,-2.0605,-2.0605,-2.0605,-2.0605,-2.0605,-2.0605,-2.0605,-2.0605,-2.0605,-2.0605,-2.0605,-2.0605,-2.0605,-2.0605,-2.0605,-2.0605,-2.0605,-2.0605,-2.0605,-2.0605,-2.0605,-2.0605,-2.0605,-2.0605,-2.0605,-2.0605,-2.0605,-2.0605,-2.0605,-2.0605,-2.0605,-2.0605,-2.0605,-2.0605,-2.0605,-2.0605,-2.0605,-2.0605,-2.0605,-2.0605,-2.0605,-2.0605,-2.0605,-2.0605,-2.0605,-2.0605,0.0,-0.8838,0.0,-1.1833,-1.3276,0.0,0.0,0.0,0.0,0.0,0.0,0.0,0.0,0.0,0.0,0.0,0.0,0.0,0.0,0.0,0.0,0.0,0.0,0.0,0.0,0.0,0.0,0.0,-1.9355,-1.9531,-1.9932,-1.9951,-2.0137,-2.0595,-2.0605,-2.0605,-2.0605,-2.0605,-2.0605,-2.0605,-2.0605,-2.0605,-2.0605,-2.0605,-2.0605,-2.0605,-2.0605,-2.0605,-2.0605,-2.0605,-2.0605,-2.0605,-2.0605,-2.0605,-2.0605,-2.0605,-2.0605,-2.0605,-2.0605,-2.0605,-2.0605,-2.0605,-2.0605,-2.0605,-2.0605,-2.0605,-2.0605,-2.0605,-2.0605,-2.0605,-2.0605,-2.0605,-2.0605,-2.0605,-2.0605,-2.0605,-2.0605,-2.0605,-2.0605,-2.0605,-2.0605,-2.0605,-2.0605,-2.0605,-2.0605,-2.0605,-2.0605,-2.0605,-2.0605,-2.0605,-2.0605,-2.0605,-2.0605,-2.0605,-2.0605,-2.0605,-2.0605,-2.0605,-2.0605,-2.0605,-2.0605,-2.0605,-2.0605,-2.0605,-2.0605,-2.0605,-2.0605,-2.0605,-2.0605,-2.0605,-2.0605,-2.0605,0.0,0.0,0.0,-1.0966,-1.2125,-1.3178,0.0,0.0,0.0,0.0,0.0,0.0,0.0,0.0,0.0,0.0,0.0,0.0,0.0,0.0,0.0,0.0,0.0,0.0,0.0,0.0,0.0,0.0,0.0,-1.9355,-1.9502,-1.9766,-1.999,-2.0146,-2.0458,-2.0605,-2.0605,-2.0605,-2.0605,-2.0605,-2.0605,-2.0605,-2.0605,-2.0605,-2.0605,-2.0605,-2.0605,-2.0605,-2.0605,-2.0605,-2.0605,-2.0605,-2.0605,-2.0605,-2.0605,-2.0605,-2.0605,-2.0605,-2.0605,-2.0605,-2.0605,-2.0605,-2.0605,-2.0605,-2.0605,-2.0605,-2.0605,-2.0605,-2.0605,-2.0605,-2.0605,-2.0605,-2.0605,-2.0605,-2.0605,-2.0605,-2.0605,-2.0605,-2.0605,-2.0605,-2.0605,-2.0605,-2.0605,-2.0605,-2.0605,-2.0605,-2.0605,-2.0605,-2.0605,-2.0605,-2.0605,-2.0605,-2.0605,-2.0605,-2.0605,-2.0605,-2.0605,-2.0605,-2.0605,-2.0605,-2.0605,-2.0605,-2.0605,-2.0605,-2.0605,-2.0605,-2.0605,-2.0605,-2.0605,-2.0605,-2.0605,-2.0605,-0.6585,0.0,0.0,0.0,0.0,0.0,0.0,0.0,0.0,0.0,0.0,0.0,0.0,0.0,0.0,0.0,0.0,0.0,0.0,0.0,0.0,0.0,0.0,0.0,0.0,0.0,0.0,0.0,0.0,0.0,-1.9062,-1.9336,-1.9619,-1.9902,-2.0195,-2.0458,-2.0605,-2.0605,-2.0605,-2.0605,-2.0605,-2.0605,-2.0605,-2.0605,-2.0605,-2.0605,-2.0605,-2.0605,-2.0605,-2.0605,-2.0605,-2.0605,-2.0605,-2.0605,-2.0605,-2.0605,-2.0605,-2.0605,-2.0605,-2.0605,-2.0605,-2.0605,-2.0605,-2.0605,-2.0605,-2.0605,-2.0605,-2.0605,-2.0605,-2.0605,-2.0605,-2.0605,-2.0605,-2.0605,-2.0605,-2.0605,-2.0605,-2.0605,-2.0605,-2.0605,-2.0605,-2.0605,-2.0605,-2.0605,-2.0605,-2.0605,-2.0605,-2.0605,-2.0605,-2.0605,-2.0605,-2.0605,-2.0605,-2.0605,-2.0605,-2.0605,-2.0605,-2.0605,-2.0605,-2.0605,-2.0605,-2.0605,-2.0605,-2.0605,-2.0605,-2.0605,-2.0605,-2.0605,-2.0605,-2.0605,-2.0605,-2.0605,0.0,0.0,0.0,0.0,0.0,0.0,0.0,0.0,0.0,0.0,0.0,0.0,0.0,0.0,0.0,0.0,0.0,0.0,0.0,0.0,0.0,0.0,0.0,0.0,0.0,0.0,0.0,0.0,-1.8008,-1.8184,-1.8559,-1.8598,-1.8987,-1.9873,-1.9902,-2.0117,-2.0576,-2.0595,-2.0605,-2.0605,-2.0605,-2.0605,-2.0605,-2.0605,-2.0605,-2.0605,-2.0605,-2.0605,-2.0605,-2.0605,-2.0605,-2.0605,-2.0605,-2.0605,-2.0605,-2.0605,-2.0605,-2.0605,-2.0605,-2.0605,-2.0605,-2.0605,-2.0605,-2.0605,-2.0605,-2.0605,-2.0605,-2.0605,-2.0605,-2.0605,-2.0605,-2.0605,-2.0605,-2.0605,-2.0605,-2.0605,-2.0605,-2.0605,-2.0605,-2.0605,-2.0605,-2.0605,-2.0605,-2.0605,-2.0605,-2.0605,-2.0605,-2.0605,-2.0605,-2.0605,-2.0605,-2.0605,-2.0605,-2.0605,-2.0605,-2.0605,-2.0605,-2.0605,-2.0605,-2.0605,-2.0605,-2.0605,-2.0605,-2.0605,-2.0605,-2.0605,-2.0605,-2.0605,-2.0605,-2.0605,-2.0605,-2.0605,-0.6406,0.0,0.0,0.0,0.0,0.0,0.0,0.0,0.0,0.0,0.0,0.0,0.0,0.0,0.0,0.0,0.0,0.0,0.0,0.0,0.0,0.0,0.0,0.0,0.0,0.0,0.0,0.0,-1.8008,-1.8057,-1.8174,-1.8432,-1.8851,-1.9443,-1.9756,-1.9971,-2.0088,-2.0449,-2.0605,-2.0605,-2.0605,-2.0605,-2.0605,-2.0605,-2.0605,-2.0605,-2.0605,-2.0605,-2.0605,-2.0605,-2.0605,-2.0605,-2.0605,-2.0605,-2.0605,-2.0605,-2.0605,-2.0605,-2.0605,-2.0605,-2.0605,-2.0605,-2.0605,-2.0605,-2.0605,-2.0605,-2.0605,-2.0605,-2.0605,-2.0605,-2.0605,-2.0605,-2.0605,-2.0605,-2.0605,-2.0605,-2.0605,-2.0605,-2.0605,-2.0605,-2.0605,-2.0605,-2.0605,-2.0605,-2.0605,-2.0605,-2.0605,-2.0605,-2.0605,-2.0605,-2.0605,-2.0605,-2.0605,-2.0605,-2.0605,-2.0605,-2.0605,-2.0605,-2.0605,-2.0605,-2.0605,-2.0605,-2.0605,-2.0605,-2.0605,-2.0605,-2.0605,-2.0605,-2.0605,-2.0605,-2.0605,-2.0605,0.0,0.0,0.0,0.0,0.0,0.0,0.0,-1.0426,0.0,0.0,0.0,0.0,0.0,0.0,0.0,0.0,0.0,0.0,0.0,0.0,0.0,0.0,0.0,0.0,0.0,-1.791,-1.8008,-1.8008,-1.8008,-1.8008,-1.8008,-1.8208,-1.8539,-1.9004,-1.9258,-1.9514,-1.9912,-2.0166,-2.0429,-2.0605,-2.0605,-2.0605,-2.0605,-2.0605,-2.0605,-2.0605,-2.0605,-2.0605,-2.0605,-2.0605,-2.0605,-2.0605,-2.0605,-2.0605,-2.0605,-2.0605,-2.0605,-2.0605,-2.0605,-2.0605,-2.0605,-2.0605,-2.0605,-2.0605,-2.0605,-2.0605,-2.0605,-2.0605,-2.0605,-2.0605,-2.0605,-2.0605,-2.0605,-2.0605,-2.0605,-2.0605,-2.0605,-2.0605,-2.0605,-2.0605,-2.0605,-2.0605,-2.0605,-2.0605,-2.0605,-2.0605,-2.0605,-2.0605,-2.0605,-2.0605,-2.0605,-2.0605,-2.0605,-2.0605,-2.0605,-2.0605,-2.0605,-2.0605,-2.0605,-2.0605,-2.0605,-2.0605,-2.0605,-2.0605,-2.0605,-2.0605,-2.0605,-2.0605,-2.0605,-2.0605,-2.0605,-2.0605,-0.8718,-0.8913,0.0,0.0,0.0,0.0,-1.0301,-1.0074,-1.0022,0.0,0.0,0.0,0.0,0.0,0.0,0.0,0.0,0.0,0.0,0.0,0.0,0.0,0.0,0.0,-1.7314,-1.7686,-1.7939,-1.7939,-1.7978,-1.8008,-1.8008,-1.8008,-1.8149,-1.852,-1.8578,-1.8968,-1.9766,-1.9863,-2.0107,-2.0537,-2.0586,-2.0605,-2.0605,-2.0605,-2.0605,-2.0605,-2.0605,-2.0605,-2.0605,-2.0605,-2.0605,-2.0605,-2.0605,-2.0605,-2.0605,-2.0605,-2.0605,-2.0605,-2.0605,-2.0605,-2.0605,-2.0605,-2.0605,-2.0605,-2.0605,-2.0605,-2.0605,-2.0605,-2.0605,-2.0605,-2.0605,-2.0605,-2.0605,-2.0605,-2.0605,-2.0605,-2.0605,-2.0605,-2.0605,-2.0605,-2.0605,-2.0605,-2.0605,-2.0605,-2.0605,-2.0605,-2.0605,-2.0605,-2.0605,-2.0605,-2.0605,-2.0605,-2.0605,-2.0605,-2.0605,-2.0605,-2.0605,-2.0605,-2.0605,-2.0605,-2.0605,-2.0605,-2.0605,-2.0605,-2.0605,-2.0605,-2.0605,-2.0605,-2.0605,-2.0605,-2.0605,-2.0605,-1.0048,-1.0215,-1.039,-0.9874,0.0,0.0,-0.9511,-0.948,-0.9691,0.0,0.0,0.0,0.0,0.0,0.0,0.0,0.0,0.0,0.0,0.0,0.0,0.0,0.0,0.0,-1.6824,-1.7246,-1.75,-1.75,-1.7822,-1.8008,-1.8008,-1.8008,-1.8047,-1.8091,-1.8422,-1.8685,-1.8851,-1.9533,-1.9961,-2.0049,-2.0439,-2.0605,-2.0605,-2.0605,-2.0605,-2.0605,-2.0605,-2.0605,-2.0605,-2.0605,-2.0605,-2.0605,-2.0605,-2.0605,-2.0605,-2.0605,-2.0605,-2.0605,-2.0605,-2.0605,-2.0605,-2.0605,-2.0605,-2.0605,-2.0605,-2.0605,-2.0605,-2.0605,-2.0605,-2.0605,-2.0605,-2.0605,-2.0605,-2.0605,-2.0605,-2.0605,-2.0605,-2.0605,-2.0605,-2.0605,-2.0605,-2.0605,-2.0605,-2.0605,-2.0605,-2.0605,-2.0605,-2.0605,-2.0605,-2.0605,-2.0605,-2.0605,-2.0605,-2.0605,-2.0605,-2.0605,-2.0605,-2.0605,-2.0605,-2.0605,-2.0605,-2.0605,-2.0605,-2.0605,-2.0605,-2.0605,-2.0605,-2.0605,-2.0605,-2.0605,-2.0605,-2.0605,-1.1377,-1.1385,-1.1492,-1.1309,0.0,0.0,0.0,-1.006,-1.006,-1.0414,0.0,0.0,0.0,0.0,0.0,0.0,0.0,0.0,0.0,0.0,0.0,0.0,0.0,0.0,-1.6044,-1.667,-1.7148,-1.7363,-1.7578,-1.7793,-1.7998,-1.8008,-1.8008,-1.8008,-1.8213,-1.8393,-1.8598,-1.9026,-1.9455,-1.9912,-2.0137,-2.0352,-2.0605,-2.0605,-2.0605,-2.0605,-2.0605,-2.0605,-2.0605,-2.0605,-2.0605,-2.0605,-2.0605,-2.0605,-2.0605,-2.0605,-2.0605,-2.0605,-2.0605,-2.0605,-2.0605,-2.0605,-2.0605,-2.0605,-2.0605,-2.0605,-2.0605,-2.0605,-2.0605,-2.0605,-2.0605,-2.0605,-2.0605,-2.0605,-2.0605,-2.0605,-2.0605,-2.0605,-2.0605,-2.0605,-2.0605,-2.0605,-2.0605,-2.0605,-2.0605,-2.0605,-2.0605,-2.0605,-2.0605,-2.0605,-2.0605,-2.0605,-2.0605,-2.0605,-2.0605,-2.0605,-2.0605,-2.0605,-2.0605,-2.0605,-2.0605,-2.0605,-2.0605,-2.0605,-2.0605,-2.0605,-2.0605,-2.0605,-2.0605,-2.0605,-2.0605,-2.0605,0.0,0.0,0.0,0.0,0.0,-1.194,0.0,0.0,0.0,-1.1118,0.0,0.0,0.0,0.0,0.0,0.0,0.0,0.0,0.0,0.0,0.0,0.0,0.0,0.0,0.0,-1.5829,-1.6482,-1.7207,-1.7021,-1.7178,-1.7852,-1.7891,-1.793,-1.8008,-1.8008,-1.8174,-1.8481,-1.8559,-1.8948,-1.9631,-1.9834,-2.0098,-2.0478,-2.0566,-2.0605,-2.0605,-2.0605,-2.0605,-2.0605,-2.0605,-2.0605,-2.0605,-2.0605,-2.0605,-2.0605,-2.0605,-2.0605,-2.0605,-2.0605,-2.0605,-2.0605,-2.0605,-2.0605,-2.0605,-2.0605,-2.0605,-2.0605,-2.0605,-2.0605,-2.0605,-2.0605,-2.0605,-2.0605,-2.0605,-2.0605,-2.0605,-2.0605,-2.0605,-2.0605,-2.0605,-2.0605,-2.0605,-2.0605,-2.0605,-2.0605,-2.0605,-2.0605,-2.0605,-2.0605,-2.0605,-2.0605,-2.0605,-2.0605,-2.0605,-2.0605,-2.0605,-2.0605,-2.0605,-2.0605,-2.0605,-2.0605,-2.0605,-2.0605,-2.0605,-2.0605,-2.0605,-2.0605,-2.0605,-2.0605,-2.0605,-2.0605,-2.0605,0.0,0.0,0.0,0.0,-1.3359,0.0,0.0,0.0,-1.1697,-1.0642,0.0,0.0,0.0,0.0,0.0,0.0,0.0,0.0,0.0,0.0,0.0,0.0,0.0,0.0,0.0,-1.4572,-1.5059,-1.6658,-1.5732,-1.5781,-1.7373,-1.7484,-1.7627,-1.7998,-1.8008,-1.8037,-1.8076,-1.8412,-1.8646,-1.8754,-1.9514,-1.9941,-2.0,-2.0429,-2.0605,-2.0605,-2.0605,-2.0605,-2.0605,-2.0605,-2.0605,-2.0605,-2.0605,-2.0605,-2.0605,-2.0605,-2.0605,-2.0605,-2.0605,-2.0605,-2.0605,-2.0605,-2.0605,-2.0605,-2.0605,-2.0605,-2.0605,-2.0605,-2.0605,-2.0605,-2.0605,-2.0605,-2.0605,-2.0605,-2.0605,-2.0605,-2.0605,-2.0605,-2.0605,-2.0605,-2.0605,-2.0605,-2.0605,-2.0605,-2.0605,-2.0605,-2.0605,-2.0605,-2.0605,-2.0605,-2.0605,-2.0605,-2.0605,-2.0605,-2.0605,-2.0605,-2.0605,-2.0605,-2.0605,-2.0605,-2.0605,-2.0605,-2.0605,-2.0605,-2.0605,-2.0605,-2.0605,-2.0605,-2.0605,-2.0605,-2.0605,-2.0605,0.0,0.0,0.0,0.0,0.0,0.0,-1.2686,0.0,-1.2125,0.0,0.0,0.0,0.0,0.0,0.0,0.0,0.0,0.0,0.0,0.0,0.0,0.0,0.0,0.0,0.0,0.0,0.0,0.0,-1.4853,-1.5049,-1.6574,-1.7132,-1.7461,-1.7637,-1.7881,-1.8008,-1.8008,-1.8184,-1.8364,-1.8607,-1.8968,-1.9397,-1.9922,-2.0098,-2.0322,-2.0605,-2.0605,-2.0605,-2.0605,-2.0605,-2.0605,-2.0605,-2.0605,-2.0605,-2.0605,-2.0605,-2.0605,-2.0605,-2.0605,-2.0605,-2.0605,-2.0605,-2.0605,-2.0605,-2.0605,-2.0605,-2.0605,-2.0605,-2.0605,-2.0605,-2.0605,-2.0605,-2.0605,-2.0605,-2.0605,-2.0605,-2.0605,-2.0605,-2.0605,-2.0605,-2.0605,-2.0683,-2.0908,-2.0732,-2.0605,-2.0605,-2.0605,-2.0605,-2.0605,-2.0605,-2.0605,-2.0605,-2.0605,-2.0605,-2.0605,-2.0605,-2.0605,-2.0605,-2.0605,-2.0605,-2.0605,-2.0605,-2.0605,-2.0605,-2.0605,-2.0605,-2.0605,-2.0605,-2.0605,-2.0605,-2.0605,-2.0605,-1.3975,0.0,0.0,0.0,0.0,0.0,0.0,0.0,0.0,0.0,0.0,0.0,0.0,0.0,0.0,0.0,0.0,0.0,0.0,0.0,0.0,0.0,0.0,0.0,0.0,0.0,0.0,0.0,0.0,-1.4023,-1.5821,-1.6643,-1.7161,-1.7373,-1.7793,-1.8008,-1.8008,-1.8008,-1.8164,-1.8432,-1.8549,-1.8987,-1.9746,-1.9863,-2.0156,-2.0605,-2.0605,-2.0605,-2.0605,-2.0605,-2.0605,-2.0605,-2.0605,-2.0605,-2.0605,-2.0605,-2.0605,-2.0605,-2.0605,-2.0605,-2.0605,-2.0605,-2.0605,-2.0605,-2.0605,-2.0605,-2.0605,-2.0605,-2.0605,-2.0605,-2.0605,-2.0605,-2.0605,-2.0605,-2.0605,-2.0605,-2.0605,-2.0605,-2.0605,-2.0605,-2.0703,-2.085,-2.1142,-2.0967,-2.0791,-2.0948,-2.0967,-2.0967,-2.0967,-2.0967,-2.0967,-2.0967,-2.0967,-2.0918,-2.0762,-2.0752,-2.0732,-2.0615,-2.0605,-2.0605,-2.0605,-2.0605,-2.0605,-2.0605,-2.0605,-2.0605,-2.0605,-2.0605,-2.0605,-2.0605,-2.0605,-2.0605,0.0,0.0,0.0,-1.4319,0.0,0.0,0.0,0.0,-1.335,0.0,0.0,0.0,0.0,0.0,0.0,0.0,0.0,0.0,0.0,0.0,0.0,0.0,0.0,0.0,0.0,0.0,0.0,0.0,0.0,0.0,-1.5273,-1.5889,-1.6535,-1.7353,-1.7793,-1.8008,-1.8008,-1.8008,-1.8018,-1.8037,-1.8403,-1.8831,-1.9316,-1.9727,-2.0156,-2.0605,-2.0605,-2.0605,-2.0605,-2.0605,-2.0605,-2.0605,-2.0605,-2.0605,-2.0605,-2.0605,-2.0605,-2.0605,-2.0605,-2.0605,-2.0605,-2.0605,-2.0605,-2.0605,-2.0605,-2.0605,-2.0605,-2.0605,-2.0605,-2.0605,-2.0605,-2.0605,-2.0605,-2.0605,-2.0605,-2.0605,-2.0605,-2.0605,-2.0605,-2.0605,-2.0918,-2.1181,-2.119,-2.1181,-2.1317,-2.1777,-2.1846,-2.1846,-2.1846,-2.1846,-2.1846,-2.1846,-2.1846,-2.167,-2.121,-2.1171,-2.1025,-2.0635,-2.0605,-2.0605,-2.0605,-2.0605,-2.0605,-2.0605,-2.0605,-2.0605,-2.0605,-2.0605,-2.0605,-2.0605,-2.0605,-2.0605,0.0,0.0,-1.6436,-1.5273,0.0,0.0,0.0,0.0,0.0,0.0,0.0,0.0,0.0,0.0,0.0,0.0,0.0,0.0,0.0,0.0,0.0,0.0,0.0,0.0,0.0,0.0,0.0,0.0,-1.1692,0.0,0.0,-1.5088,-1.5898,-1.6525,-1.7217,-1.7734,-1.8008,-1.8008,-1.8008,-1.8008,-1.8154,-1.8447,-1.8831,-1.9307,-1.9727,-2.0146,-2.0478,-2.0605,-2.0605,-2.0605,-2.0605,-2.0605,-2.0605,-2.0605,-2.0605,-2.0605,-2.0605,-2.0605,-2.0605,-2.0605,-2.0605,-2.0605,-2.0605,-2.0605,-2.0605,-2.0605,-2.0605,-2.0605,-2.0605,-2.0605,-2.0605,-2.0605,-2.0605,-2.0605,-2.0605,-2.0605,-2.0605,-2.0605,-2.0693,-2.0947,-2.1093,-2.1375,-2.1941,-2.2038,-2.2031,-2.1904,-2.1885,-2.1885,-2.1885,-2.1885,-2.1885,-2.1885,-2.1885,-2.1826,-2.168,-2.1356,-2.1132,-2.1016,-2.0772,-2.0605,-2.0605,-2.0605,-2.0605,-2.0605,-2.0605,-2.0605,-2.0605,-2.0605,-2.0752,-2.1006,-2.1006,-2.1006,-1.6299,-1.6719,0.0,-1.5898,-1.5644,0.0,-1.3997,0.0,0.0,0.0,0.0,0.0,0.0,0.0,0.0,0.0,0.0,0.0,0.0,0.0,0.0,0.0,0.0,0.0,0.0,0.0,-0.9999,-1.1498,-1.1154,0.0,0.0,0.0,-1.5459,-1.6075,-1.6956,-1.7578,-1.8008,-1.8008,-1.8008,-1.8008,-1.8008,-1.8198,-1.8617,-1.8926,-1.9365,-1.9932,-2.0215,-2.0458,-2.0605,-2.0605,-2.0605,-2.0605,-2.0605,-2.0605,-2.0605,-2.0605,-2.0605,-2.0605,-2.0605,-2.0605,-2.0605,-2.0605,-2.0605,-2.0605,-2.0605,-2.0605,-2.0605,-2.0605,-2.0605,-2.0605,-2.0605,-2.0605,-2.0605,-2.0605,-2.0605,-2.0605,-2.0605,-2.0605,-2.0742,-2.1103,-2.1317,-2.1689,-2.2393,-2.2637,-2.2646,-2.2373,-2.2334,-2.2334,-2.2334,-2.2334,-2.2334,-2.2334,-2.2334,-2.2275,-2.2119,-2.1719,-2.1356,-2.121,-2.0967,-2.0732,-2.0615,-2.0605,-2.0674,-2.0801,-2.0683,-2.0762,-2.1075,-2.0879,-2.1035,-2.1465,-2.1465,-2.1543]},{"header":{"parameterUnit":"m.s-1","parameterCategory":1,"la1":30.6,"la2":29.2853,"lo1":-89.7004,"lo2":-87.6739,"dy":0.0162,"dx":0.0183,"nx":112,"ny":82,"refTime":"2024-08-28T06:00:00:Z","depth":0,"parameterNumber":3,"parameterNumberName":"V-component_of_WINDS"},"data":[0.0,0.0,0.0,0.0,0.0,0.0,0.0,0.0,0.0,0.0,0.0,0.0,0.0,0.0,0.0,0.0,0.0,0.0,0.0,0.0,0.0,0.0,0.0,0.0,0.0,0.0,0.0,0.0,0.0,0.0,0.0,0.0,0.0,0.0,0.0,0.0,0.0,0.0,0.0,0.0,0.0,0.0,0.0,0.0,0.0,0.0,0.0,0.0,0.0,0.0,0.0,0.0,0.0,0.0,0.0,0.0,0.0,0.0,0.0,0.0,0.0,0.0,0.0,0.0,0.0,0.0,0.0,0.0,0.0,0.0,0.0,0.0,0.0,0.0,0.0,0.0,0.0,0.0,0.0,0.0,0.0,0.0,0.0,0.0,0.0,0.0,0.0,0.0,0.0,0.0,0.0,1.8993,2.2659,2.493,2.5004,2.43,2.2083,1.7968,0.0,0.0,0.0,0.0,0.0,0.0,0.0,0.0,0.0,0.0,0.0,0.0,0.0,0.0,0.0,0.0,0.0,0.0,0.0,0.0,0.0,0.0,0.0,0.0,0.0,0.0,0.0,0.0,0.0,0.0,0.0,0.0,0.0,0.0,0.0,0.0,0.0,0.0,0.0,0.0,0.0,0.0,0.0,0.0,0.0,0.0,0.0,0.0,0.0,0.0,0.0,0.0,0.0,0.0,0.0,0.0,0.0,0.0,0.0,0.0,0.0,0.0,0.0,0.0,0.0,0.0,0.0,0.0,0.0,0.0,0.0,0.0,0.0,0.0,0.0,0.0,0.0,0.0,0.0,0.0,0.0,0.0,0.0,0.0,0.0,0.0,0.0,0.0,0.0,0.0,0.0,0.0,0.0,0.0,0.0,0.0,0.0,0.0,0.0,0.0,0.0,0.0,0.0,0.0,1.762,2.21,2.3774,2.4693,2.4986,2.3599,2.1302,1.7904,0.0,0.0,0.0,0.0,0.0,0.0,0.0,0.0,0.0,0.0,0.0,0.0,0.0,0.0,0.0,0.0,0.0,0.0,0.0,0.0,0.0,0.0,0.0,0.0,0.0,0.0,0.0,0.0,0.0,0.0,0.0,0.0,0.0,0.0,0.0,0.0,0.0,0.0,0.0,0.0,0.0,0.0,0.0,0.0,0.0,0.0,0.0,0.0,0.0,0.0,0.0,0.0,0.0,0.0,0.0,0.0,0.0,0.0,0.0,0.0,0.0,0.0,0.0,0.0,0.0,0.0,0.0,0.0,0.0,0.0,0.0,0.0,0.0,0.0,0.0,0.0,0.0,0.0,0.0,0.0,0.0,0.0,0.0,0.0,0.0,0.0,0.0,0.0,0.0,0.0,0.0,0.0,0.0,0.0,0.0,0.0,0.0,0.0,0.0,0.0,0.0,0.0,0.0,1.6935,1.8802,2.3313,2.4222,2.4615,2.4864,2.3428,2.112,1.7904,1.6503,0.0,0.0,0.0,0.0,0.0,0.0,0.0,0.0,0.0,0.0,0.0,0.0,0.0,0.0,0.0,0.0,0.0,0.0,0.0,0.0,0.0,0.0,0.0,0.0,0.0,0.0,0.0,0.0,0.0,0.0,0.0,0.0,0.0,0.0,0.0,0.0,0.0,0.0,0.0,0.0,0.0,0.0,0.0,0.0,0.0,0.0,0.0,0.0,0.0,0.0,0.0,0.0,0.0,0.0,0.0,0.0,0.0,0.0,0.0,0.0,0.0,0.0,0.0,0.0,0.0,0.0,0.0,0.0,0.0,0.0,0.0,0.0,0.0,0.0,0.0,0.0,0.0,0.0,0.0,0.0,0.0,0.0,0.0,0.0,0.0,0.0,0.0,0.0,0.0,0.0,0.0,0.0,0.0,0.0,0.0,0.0,0.0,0.0,0.0,0.0,0.0,0.0,1.8882,2.0317,2.3823,2.4348,2.4537,2.4782,2.2981,2.066,1.7881,1.5753,0.0,0.0,0.0,0.0,0.0,0.0,0.0,0.0,0.0,0.0,0.0,0.0,0.0,0.0,0.0,0.0,0.0,0.0,0.0,0.0,0.0,0.0,0.0,0.0,0.0,0.0,0.0,0.0,0.0,0.0,0.0,0.0,0.0,0.0,0.0,0.0,0.0,0.0,0.0,0.0,0.0,0.0,0.0,0.0,0.0,0.0,0.0,0.0,0.0,0.0,0.0,0.0,0.0,0.0,0.0,0.0,0.0,0.0,0.0,0.0,0.0,0.0,0.0,0.0,0.0,0.0,0.0,0.0,0.0,0.0,0.0,0.0,0.0,0.0,0.0,0.0,0.0,0.0,0.0,0.0,0.0,0.0,0.0,0.0,0.0,0.0,0.0,0.0,0.0,0.0,0.0,0.0,0.0,0.0,0.0,0.0,0.0,0.0,0.0,0.0,0.0,0.0,1.9718,2.2216,2.4006,2.4209,2.4375,2.4768,2.1782,1.9266,1.7797,1.4662,0.0,0.0,0.0,0.0,0.0,0.0,0.0,0.0,0.0,0.0,0.0,0.0,0.0,0.0,0.0,0.0,0.0,0.0,0.0,0.0,0.0,0.0,0.0,0.0,0.0,0.0,0.0,0.0,0.0,0.0,0.0,0.0,0.0,0.0,0.0,0.0,0.0,0.0,0.0,0.0,0.0,0.0,0.0,0.0,0.0,0.0,0.0,0.0,0.0,0.0,0.0,0.0,0.0,0.0,0.0,0.0,0.0,0.0,0.0,0.0,0.0,0.0,0.0,0.0,0.0,0.0,0.0,0.0,0.0,0.0,0.0,0.0,0.0,0.0,0.0,0.0,0.0,0.0,0.0,0.0,0.0,0.0,0.0,0.0,0.0,0.0,0.0,0.0,0.0,0.0,0.0,0.0,0.0,0.0,0.0,0.0,0.0,0.0,0.0,0.0,0.0,0.0,1.8736,2.1184,0.0,2.4074,2.4312,2.4583,2.256,2.0174,1.7609,0.0,0.0,0.0,0.0,0.0,0.0,0.0,0.0,0.0,0.0,0.0,0.0,0.0,0.0,0.0,0.0,0.0,0.0,0.0,0.0,0.0,0.0,0.0,0.0,0.0,0.0,0.0,0.0,0.0,0.0,0.0,0.0,0.0,0.0,0.0,0.0,0.0,0.0,0.0,0.0,0.0,0.0,0.0,0.0,0.0,0.0,0.0,0.0,0.0,0.0,0.0,0.0,0.0,0.0,0.0,0.0,0.0,0.0,0.0,0.0,0.0,0.0,0.0,0.0,0.0,0.0,0.0,0.0,0.0,0.0,0.0,0.0,0.0,0.0,0.0,0.0,0.0,0.0,0.0,0.0,0.0,0.0,0.0,0.0,0.0,0.0,0.0,0.0,0.0,0.0,0.0,0.0,0.0,0.0,0.0,0.0,0.0,0.0,0.0,0.0,0.0,0.0,1.6237,1.8625,2.1065,0.0,2.4064,2.4275,2.4478,2.2559,2.0201,1.7505,0.0,0.0,0.0,0.0,0.0,0.0,0.0,0.0,0.0,0.0,0.0,0.0,0.0,0.0,0.0,0.0,0.0,0.0,0.0,0.0,0.0,0.0,0.0,0.0,0.0,0.0,0.0,0.0,0.0,0.0,0.0,0.0,0.0,0.0,0.0,0.0,0.0,0.0,0.0,0.0,0.0,0.0,0.0,0.0,0.0,0.0,0.0,0.0,0.0,0.0,0.0,0.0,0.0,0.0,0.0,0.0,0.0,0.0,0.0,0.0,0.0,0.0,0.0,0.0,0.0,0.0,0.0,0.0,0.0,0.0,0.0,0.0,0.0,0.0,0.0,0.0,0.0,0.0,0.0,0.0,0.0,0.0,0.0,0.0,0.0,0.0,0.0,0.0,0.0,0.0,0.0,0.0,0.0,0.0,0.0,0.0,0.0,0.0,0.0,0.0,0.0,0.0,1.6675,1.9759,2.2409,2.4025,2.4208,2.4275,2.4478,2.1432,1.892,0.0,0.0,0.0,0.0,0.0,0.0,0.0,0.0,0.0,0.0,0.0,0.0,0.0,0.0,0.0,0.0,0.0,0.0,0.0,0.0,0.0,0.0,0.0,0.0,0.0,0.0,0.0,0.0,0.0,0.0,0.0,0.0,0.0,0.0,0.0,0.0,0.0,0.0,0.0,0.0,0.0,0.0,0.0,0.0,0.0,0.0,0.0,0.0,0.0,0.0,0.0,0.0,0.0,0.0,0.0,0.0,0.0,0.0,0.0,0.0,0.0,0.0,0.0,0.0,0.0,0.0,0.0,0.0,0.0,0.0,0.0,0.0,0.0,0.0,0.0,0.0,0.0,0.0,0.0,0.0,0.0,0.0,0.0,0.0,0.0,0.0,0.0,0.0,0.0,0.0,0.0,0.0,0.0,0.0,0.0,0.0,0.0,0.0,0.0,0.0,0.0,0.0,0.0,1.6089,1.9345,2.2039,2.3343,2.3917,2.4218,2.4275,2.244,2.0075,1.7284,0.0,0.0,0.0,0.0,0.0,0.0,0.0,0.0,0.0,0.0,0.0,0.0,0.0,0.0,0.0,0.0,0.0,0.0,0.0,0.0,0.0,0.0,0.0,0.0,0.0,0.0,0.0,0.0,0.0,0.0,0.0,0.0,0.0,0.0,0.0,0.0,0.0,0.0,0.0,0.0,0.0,0.0,0.0,0.0,0.0,0.0,0.0,0.0,0.0,0.0,0.0,0.0,0.0,0.0,0.0,0.0,0.0,0.0,0.0,0.0,0.0,0.0,0.0,0.0,0.0,0.0,0.0,0.0,0.0,0.0,0.0,0.0,0.0,0.0,0.0,0.0,0.0,0.0,0.0,0.0,0.0,0.0,0.0,0.0,0.0,0.0,0.0,0.0,0.0,0.0,0.0,0.0,0.0,0.0,0.0,0.0,0.0,0.0,0.0,0.0,0.0,0.0,1.5972,1.9109,2.1773,2.3242,2.3764,2.4046,2.418,2.2791,2.0648,1.7675,0.0,0.0,0.0,0.0,0.0,0.0,0.0,0.0,0.0,0.0,0.0,0.0,0.0,0.0,0.0,0.0,0.0,0.0,0.0,0.0,0.0,0.0,0.0,0.0,0.0,0.0,0.0,0.0,0.0,0.0,0.0,0.0,0.0,0.0,0.0,0.0,0.0,0.0,0.0,0.0,0.0,0.0,0.0,0.0,0.0,0.0,0.0,0.0,0.0,0.0,0.0,0.0,0.0,0.0,0.0,0.0,0.0,0.0,0.0,0.0,0.0,0.0,0.0,0.0,0.0,0.0,0.0,0.0,0.0,0.0,0.0,0.0,0.0,0.0,0.0,0.0,0.0,0.0,0.0,0.0,0.0,0.0,0.0,0.0,0.0,0.0,0.0,0.0,0.0,0.0,0.0,0.0,0.0,0.0,0.0,0.0,0.0,0.0,0.0,0.0,0.0,0.0,1.6265,1.9132,2.169,2.3458,2.3703,2.3876,2.417,2.2786,2.088,1.8462,0.0,0.0,0.0,0.0,0.0,0.0,0.0,0.0,0.0,0.0,0.0,0.0,0.0,0.0,0.0,0.0,0.0,0.0,0.0,0.0,0.0,0.0,0.0,0.0,0.0,0.0,0.0,0.0,0.0,0.0,0.0,0.0,0.0,0.0,0.0,0.0,0.0,0.0,0.0,0.0,0.0,0.0,0.0,0.0,0.0,0.0,0.0,0.0,0.0,0.0,0.0,0.0,0.0,0.0,0.0,0.0,0.0,0.0,0.0,0.0,1.5843,0.0,0.0,0.0,0.0,0.0,0.0,0.0,0.0,0.0,0.0,0.0,0.0,0.0,0.0,0.0,0.0,0.0,0.0,0.0,0.0,0.0,0.0,0.0,0.0,0.0,0.0,0.0,0.0,0.0,0.0,0.0,0.0,0.0,0.0,0.0,0.0,0.0,0.0,0.0,0.0,0.0,1.6835,1.9838,2.2218,2.3205,2.3785,2.4113,2.419,2.3309,2.1736,1.9375,1.7449,0.0,0.0,0.0,0.0,0.0,0.0,0.0,0.0,0.0,0.0,0.0,0.0,0.0,0.0,0.0,0.0,0.0,0.0,0.0,0.0,0.0,0.0,0.0,0.0,0.0,0.0,0.0,0.0,0.0,0.0,0.0,0.0,0.0,0.0,0.0,0.0,0.0,0.0,0.0,0.0,0.0,0.0,0.0,0.0,0.0,0.0,0.0,0.0,0.0,0.0,0.0,0.0,0.0,0.0,0.0,0.0,0.0,0.0,0.0,0.0,1.7303,0.0,0.0,0.0,0.0,0.0,0.0,0.0,0.0,0.0,0.0,0.0,0.0,0.0,0.0,0.0,0.0,0.0,0.0,0.0,0.0,0.0,0.0,0.0,0.0,0.0,0.0,0.0,0.0,0.0,0.0,0.0,0.0,0.0,0.0,0.0,0.0,0.0,0.0,0.0,0.0,1.6847,1.9755,2.2009,2.286,2.3414,2.3785,2.3955,2.3362,2.2133,2.0112,1.8412,0.0,0.0,0.0,0.0,0.0,0.0,0.0,0.0,0.0,0.0,0.0,0.0,0.0,0.0,0.0,0.0,0.0,0.0,0.0,0.0,0.0,0.0,0.0,0.0,0.0,0.0,0.0,0.0,0.0,0.0,0.0,0.0,0.0,0.0,0.0,0.0,0.0,0.0,0.0,0.0,0.0,0.0,0.0,0.0,0.0,0.0,0.0,0.0,0.0,0.0,0.0,0.0,0.0,2.0908,2.1674,2.2636,2.2286,2.2671,2.3455,2.0783,2.0229,2.1064,1.8989,0.0,0.0,0.0,0.0,0.0,0.0,0.0,0.0,0.0,0.0,0.0,0.0,0.0,0.0,0.0,0.0,0.0,0.0,0.0,0.0,0.0,0.0,0.0,0.0,1.9643,1.9552,0.0,0.0,0.0,0.0,0.0,0.0,0.0,0.0,0.0,0.0,0.0,0.0,1.7103,1.974,2.1776,2.26,2.3009,2.3311,2.3588,2.3307,2.2465,2.0938,1.9533,1.7968,0.0,0.0,0.0,0.0,0.0,0.0,0.0,0.0,0.0,0.0,0.0,0.0,0.0,0.0,0.0,0.0,0.0,0.0,0.0,0.0,0.0,0.0,0.0,0.0,0.0,0.0,0.0,0.0,0.0,0.0,0.0,0.0,1.3565,1.5001,0.0,0.0,0.0,0.0,0.0,0.0,0.0,0.0,0.0,0.0,0.0,0.0,0.0,1.9945,2.1139,2.2747,2.3901,2.4607,2.5363,2.5813,2.5972,2.5919,2.5641,2.5166,2.4745,0.0,2.2848,2.2414,0.0,0.0,0.0,0.0,0.0,0.0,0.0,0.0,0.0,0.0,0.0,0.0,0.0,0.0,0.0,0.0,0.0,0.0,0.0,0.0,0.0,0.0,2.233,2.1113,2.2117,2.2786,0.0,1.8642,1.6807,1.5793,1.4968,0.0,0.0,0.0,0.0,0.0,0.0,0.0,1.8702,2.1017,2.2552,2.2678,2.3009,2.3212,2.3247,2.3476,2.3221,2.2287,2.1644,2.0252,1.7876,1.6805,0.0,0.0,0.0,0.0,0.0,0.0,0.0,0.0,0.0,0.0,0.0,0.0,0.0,0.0,0.0,0.0,0.0,0.0,0.0,0.0,0.0,0.0,0.0,0.0,0.0,0.0,0.0,0.0,0.0,1.2885,1.4526,1.5605,1.5605,1.5163,0.0,0.0,0.0,0.0,0.0,0.0,0.0,0.0,0.0,2.1385,2.2326,2.3546,2.5103,2.6264,2.7032,2.737,2.7949,2.8349,2.8561,2.8316,2.8172,2.8094,2.8094,2.7437,2.6261,2.4435,2.264,2.1011,0.0,0.0,0.0,0.0,1.9356,1.9277,2.0599,2.086,0.0,1.9965,0.0,0.0,0.0,0.0,0.0,0.0,0.0,0.0,0.0,0.0,2.3454,2.2772,2.345,2.3947,2.2841,2.1593,2.0122,0.0,1.7453,1.6554,1.4615,0.0,0.0,0.0,0.0,1.8416,1.9517,2.1306,2.2477,2.2477,2.2738,2.2996,2.3177,2.3511,2.343,2.2827,2.2584,2.1785,2.0252,1.8493,1.675,0.0,0.0,0.0,0.0,0.0,0.0,0.0,0.0,0.0,0.0,0.0,0.0,0.0,0.0,0.0,0.0,0.0,0.0,0.0,0.0,0.0,0.0,0.0,0.0,0.0,0.0,0.0,0.0,1.4443,1.5937,1.7032,1.7455,1.7199,0.0,0.0,0.0,0.0,0.0,0.0,1.9469,2.0815,2.2586,2.4829,2.5505,2.6541,2.8016,2.8638,2.902,2.9214,2.9523,2.9799,3.0085,2.9782,2.9712,2.9821,2.9821,2.9473,2.8739,2.6384,2.4816,2.3859,2.3218,2.2449,2.184,2.2786,2.2895,2.2777,2.4331,2.461,2.4129,2.3163,2.2245,2.1157,1.9218,0.0,0.0,0.0,0.0,2.1755,2.3119,2.3765,2.3968,2.3605,2.3968,2.4231,2.3653,2.3503,2.2832,0.0,1.993,1.8893,1.6539,0.0,0.0,0.0,0.0,1.9452,2.0217,2.1468,2.2296,2.2296,2.249,2.2704,2.2958,2.3253,2.3293,2.2952,2.3073,2.2822,2.2008,2.0083,1.8757,1.8108,0.0,0.0,0.0,0.0,0.0,0.0,0.0,0.0,0.0,0.0,0.0,0.0,0.0,0.0,0.0,0.0,0.0,0.0,0.0,0.0,0.0,0.0,0.0,0.0,0.0,0.0,0.0,0.0,0.0,2.0871,2.0904,0.0,0.0,0.0,0.0,1.8685,2.0754,2.2649,2.4085,2.5202,2.635,2.7571,2.7946,2.839,2.8929,2.8963,2.9353,3.0046,3.0061,3.0078,3.0097,3.0078,2.9688,2.9065,2.9065,2.9031,2.8983,2.876,2.7999,2.6968,2.6933,2.6696,2.6285,2.5659,2.5423,2.5303,2.4742,2.452,2.4588,2.5216,2.4911,2.4149,2.3338,2.3069,0.0,0.0,2.3695,2.4211,2.3802,2.4215,2.4457,2.3314,2.3594,2.3919,2.3189,2.3383,2.3587,0.0,2.205,2.0814,1.9908,0.0,1.8719,1.8691,1.9406,2.0234,2.1038,2.182,2.2296,2.2296,2.231,2.2338,2.2335,2.2603,2.2742,2.272,2.3298,2.3288,2.2491,2.1917,2.0509,1.8151,1.6353,0.0,0.0,0.0,0.0,0.0,0.0,0.0,0.0,0.0,0.0,0.0,0.0,0.0,0.0,0.0,0.0,0.0,0.0,0.0,0.0,0.0,0.0,0.0,0.0,0.0,0.0,0.0,0.0,2.158,2.24,0.0,2.124,2.1955,2.2494,2.2494,2.4137,2.5575,2.6556,2.6995,2.7844,2.9245,2.9389,2.9764,3.0415,3.0431,3.0548,3.0818,3.0818,3.0818,3.0818,3.0818,3.0649,3.0431,3.0431,3.0431,3.0417,3.0391,2.9572,2.8356,2.8356,2.8286,2.8147,2.7875,2.7791,2.7757,2.7486,2.7402,2.7351,2.7097,2.6201,2.5152,2.4898,2.4475,2.4142,2.4263,2.4481,2.4679,2.4668,2.4848,2.4866,2.4092,2.4372,2.4637,2.4018,2.393,2.3945,2.3859,2.3582,2.2678,2.0614,2.1122,2.1295,1.9828,2.0673,2.1586,2.187,2.2127,2.2296,2.2296,2.2296,2.236,2.2537,2.2647,2.2588,2.233,2.2531,2.2418,2.1817,2.1134,2.0422,1.9667,1.7557,1.5411,0.0,0.0,0.0,0.0,0.0,0.0,0.0,0.0,0.0,0.0,0.0,0.0,0.0,0.0,0.0,0.0,0.0,0.0,0.0,0.0,0.0,0.0,0.0,0.0,0.0,0.0,2.171,2.248,2.3788,2.4295,2.3381,2.4715,2.5609,2.5609,2.6759,2.7791,2.8534,2.8584,2.9261,3.0784,3.0835,3.1092,3.1595,3.1834,3.1834,3.1612,3.1834,3.1935,3.1935,3.1935,3.1935,3.1935,3.1664,3.1582,3.1565,3.1292,3.0615,2.9738,2.9738,2.9738,2.9721,2.9448,2.9364,2.9348,2.9094,2.8993,2.8908,2.8383,2.7537,2.6742,2.6742,2.6253,2.5748,2.5883,2.5599,2.5278,2.5266,2.5104,2.4776,2.4261,2.441,2.4572,2.422,2.4169,2.415,2.3975,2.4085,2.3613,2.163,2.2653,2.3112,2.1178,2.1894,2.2581,2.233,2.2296,2.2296,2.2296,2.2296,2.2374,2.255,2.2577,2.2444,2.218,2.2031,2.1792,2.1483,2.0388,1.9856,1.9993,1.7596,1.5966,1.517,0.0,0.0,0.0,0.0,0.0,0.0,0.0,0.0,0.0,0.0,0.0,0.0,0.0,0.0,0.0,0.0,0.0,0.0,0.0,0.0,0.0,0.0,0.0,2.0582,2.1429,2.2538,2.3825,2.5276,2.5779,2.4725,2.6607,2.7874,2.7874,2.8636,2.9397,3.0142,3.0192,3.0869,3.2293,3.2307,3.2337,3.2399,3.3031,3.3009,3.2377,3.3031,3.3343,3.3343,3.3343,3.3343,3.3292,3.2587,3.2266,3.2215,3.1506,3.1219,3.1219,3.1207,3.119,3.1106,3.0376,3.0104,2.9983,2.9259,2.9006,2.9006,2.9006,2.8989,2.8972,2.8972,2.855,2.8073,2.8037,2.7154,2.608,2.5553,2.4921,2.4292,2.3754,2.361,2.3595,2.3595,2.4012,2.422,2.3702,2.3674,2.3568,2.3096,2.3819,2.4053,2.2799,2.3044,0.0,2.24,2.2313,2.2296,2.2296,2.2296,2.2296,2.2296,2.2296,2.2279,2.2229,2.1812,2.1534,2.1529,1.9913,1.9002,1.9011,1.6638,1.5771,1.6533,0.0,0.0,0.0,0.0,0.0,0.0,0.0,0.0,0.0,0.0,0.0,0.0,0.0,0.0,0.0,0.0,0.0,0.0,0.0,0.0,0.0,2.0218,2.1909,2.2009,2.4164,2.5779,2.5919,2.7283,2.8082,2.7792,2.8805,2.9463,2.9463,3.0649,3.1481,3.1684,3.2205,3.2679,3.3085,3.2627,3.2381,3.2399,3.2108,3.1859,3.167,3.1859,3.1952,3.1952,3.1952,3.1952,3.1936,3.1741,3.166,3.1644,3.1426,3.1345,3.1339,3.1236,3.119,3.1117,3.0482,2.9971,2.9561,2.9366,2.9285,2.9285,2.9285,2.8944,2.8484,2.8484,2.8003,2.7373,2.6972,2.6632,2.6231,2.5682,2.5062,2.4505,2.4365,2.3947,2.3595,2.3595,2.3724,2.3773,2.3638,2.3917,2.3994,2.3347,2.3763,2.3916,2.303,2.2851,0.0,2.2545,2.2381,2.2296,2.2296,2.2296,2.2296,2.2296,2.2296,2.1823,2.0694,2.051,2.0296,1.9952,1.9464,1.9316,1.9505,1.8222,1.7391,0.0,0.0,0.0,0.0,0.0,0.0,0.0,0.0,0.0,0.0,0.0,0.0,0.0,0.0,0.0,0.0,0.0,0.0,0.0,0.0,0.0,0.0,2.2868,2.442,2.5171,2.6529,2.7503,2.7656,2.8721,2.9448,2.9448,3.0125,3.0683,3.1004,3.1819,3.2306,3.234,3.2754,3.299,3.3026,3.2658,3.2474,3.2481,3.2382,3.2183,3.1921,3.2183,3.2317,3.2317,3.2317,3.2317,3.2301,3.2004,3.1877,3.1836,3.1533,3.1406,0.0,0.0,0.0,0.0,0.0,2.9695,2.9406,2.9406,2.9406,2.9406,2.9406,2.9112,2.876,2.876,2.8291,2.768,2.7379,2.6903,2.6412,2.6114,2.5516,2.5023,2.5023,2.4709,2.4358,2.4066,2.4007,2.3939,2.3655,2.3858,0.0,2.3488,2.4073,2.4238,2.3258,2.3165,2.3078,2.2654,2.2492,2.2398,2.2316,2.2296,2.2296,2.2296,2.2296,0.0,0.0,0.0,2.0122,1.9291,1.925,0.0,0.0,0.0,0.0,0.0,0.0,0.0,0.0,1.81,1.7525,0.0,0.0,0.0,0.0,0.0,0.0,0.0,0.0,0.0,0.0,0.0,0.0,0.0,0.0,0.0,0.0,2.5997,2.7469,2.8925,2.8586,2.8415,2.9061,2.9786,3.026,3.0345,3.0937,3.1613,3.2378,3.2435,3.2462,3.2504,0.0,0.0,0.0,0.0,3.253,3.2586,3.3119,3.305,3.2492,3.3077,3.3349,3.3349,3.3349,3.3349,3.3334,3.2663,3.2384,3.2336,3.1677,3.1376,3.1258,3.0728,3.0433,3.0219,2.9644,2.9312,2.9203,2.9203,0.0,0.0,2.9203,2.9203,2.9203,2.9203,2.8826,2.8407,2.8407,2.7567,2.6692,2.6692,2.6213,2.5719,2.5719,2.5659,2.545,2.4844,2.4649,2.4425,2.3834,2.3655,2.3595,2.3595,2.4389,2.4646,2.35,2.3716,2.3676,2.2785,2.2655,2.2583,2.2368,0.0,0.0,2.2296,2.2296,2.2262,2.2192,2.1563,2.0671,1.9464,1.951,1.951,1.9424,1.951,2.021,2.1567,2.1653,2.1937,2.2396,1.9316,1.8447,0.0,0.0,0.0,0.0,0.0,0.0,0.0,0.0,0.0,0.0,0.0,0.0,0.0,0.0,0.0,2.5879,2.7571,2.8874,2.977,3.0277,3.0378,2.9939,3.0531,3.1207,3.1819,3.2005,3.2395,3.3136,3.3239,3.3267,3.3301,3.3324,3.3372,3.339,3.2877,3.2582,3.2586,3.2132,3.1838,3.171,0.0,0.0,3.1923,3.1923,3.1923,3.1879,3.1758,3.1697,3.1669,3.1533,3.1155,3.07,3.1076,3.0575,2.965,2.9526,2.883,2.7944,2.7944,2.7944,2.7944,2.7944,2.7944,2.7944,2.7944,2.787,0.0,2.776,2.761,2.7405,2.7405,2.6926,2.6408,2.6408,2.5989,2.557,2.5427,2.4978,2.4575,2.4425,2.3984,2.3595,2.3595,2.3773,2.3834,2.3565,2.3493,2.3383,2.3179,2.3029,2.2827,2.2568,2.2548,2.2471,2.2319,2.2296,2.2057,2.1461,2.1275,2.1081,2.0815,2.1379,2.143,2.0815,2.1396,2.1562,2.1279,2.1864,2.2221,2.2339,2.213,2.197,0.0,0.0,0.0,0.0,0.0,0.0,0.0,0.0,0.0,0.0,0.0,2.1732,2.3611,0.0,2.6218,2.8095,2.9042,2.9803,3.0548,3.097,3.1055,3.0683,3.097,3.1478,3.2226,3.2293,3.2626,3.3395,3.3462,3.3362,3.307,3.3087,3.2933,3.2555,3.2201,3.2064,3.2064,3.1682,3.1511,3.1511,3.1511,3.1511,3.1511,3.1511,3.1511,3.1511,3.1511,3.1511,3.1511,3.1511,3.1301,3.1042,3.1328,3.0657,2.954,2.954,2.9161,2.8603,2.8603,2.8393,2.8109,2.8109,2.7884,2.76,2.76,2.76,2.76,2.76,2.76,2.76,2.76,2.7345,2.7106,2.7106,2.6826,2.6497,2.6168,2.5839,2.5397,2.4724,2.4335,2.3999,2.3655,2.3595,2.3595,2.3595,2.3501,2.3402,2.3306,2.32,2.3067,2.2842,2.2507,2.2329,2.2435,2.2353,2.2127,2.1769,2.1752,2.1752,2.1752,2.2093,2.2141,2.1752,2.2124,2.2124,2.1752,2.2422,2.2673,2.2561,2.3329,2.3236,0.0,0.0,0.0,0.0,0.0,0.0,0.0,0.0,2.0276,2.2935,2.4028,2.5033,2.6826,2.7757,2.8753,3.0277,3.0531,3.0784,3.1512,3.1495,3.141,3.141,3.1275,3.1565,3.2429,3.2513,3.2896,3.3822,3.3665,3.3306,3.281,3.2532,3.2104,3.1524,3.163,3.169,3.169,3.1824,3.1884,3.1884,3.1884,3.1884,3.1884,3.175,3.169,3.169,3.157,3.1511,3.1511,3.1511,3.1511,3.1511,3.1511,3.0853,2.9939,2.9804,2.9711,2.9606,2.9606,2.9235,2.8771,2.8637,2.8218,2.7764,2.7645,2.76,2.76,2.76,2.76,2.76,2.76,2.76,2.76,2.76,2.76,2.745,2.6926,2.6701,2.6273,2.5187,2.4784,2.4425,2.3894,2.3684,2.3595,2.3595,2.3595,2.3528,2.3376,2.336,2.3277,2.308,2.2674,2.2487,2.2732,2.2482,2.2296,2.2296,2.2296,2.2296,2.2296,2.2296,2.2296,2.2296,2.2296,2.2296,2.2296,2.2786,2.2995,2.2924,2.3694,2.359,1.6739,1.6462,1.7213,1.9904,2.0632,2.184,0.0,0.0,2.6094,2.7441,2.8066,2.8451,2.8705,2.9347,3.0328,3.1819,3.2056,3.2327,3.3051,3.2577,3.2175,3.2175,3.1616,3.1749,3.3136,3.3288,3.3854,3.5256,3.426,3.3553,3.3479,3.2312,3.1582,3.1511,3.2064,3.2378,3.2378,3.2976,3.3275,3.3275,3.3275,3.3275,3.326,3.2677,3.2378,3.2333,3.1765,3.1511,3.1511,3.1511,3.1511,3.1511,3.1511,3.1406,3.1212,3.0627,3.0058,2.9606,2.9606,2.9562,2.9397,2.8786,2.8547,2.8368,2.7779,2.76,2.76,2.76,2.76,2.76,2.76,2.76,2.76,2.76,2.76,2.757,2.7495,2.7031,2.6566,2.6393,2.5397,2.459,2.45,2.3999,2.3595,2.3595,2.3595,2.3586,2.3554,2.3576,2.3495,2.3288,2.3632,2.3706,2.3345,2.2688,2.2296,2.2296,2.2296,2.2296,2.2296,2.2296,2.2296,2.2296,2.2296,2.2296,2.2296,2.2363,2.2714,2.333,2.3428,2.3903,2.001,2.0264,2.1004,0.0,2.3763,2.503,2.7487,2.7691,2.7724,2.9124,2.9526,2.977,3.0211,3.0531,3.1072,0.0,3.2293,3.2564,3.3305,3.2763,3.2293,3.2293,3.165,3.1782,3.3271,3.3053,3.3282,3.4332,3.3572,3.2826,3.2407,3.2187,3.2079,3.2079,3.2736,3.308,3.308,3.3365,3.3499,3.3499,3.3499,3.3499,3.3484,3.3215,3.308,3.3051,3.2363,3.2079,3.2049,3.166,3.1511,3.1511,3.1511,3.1511,3.1466,3.1182,3.0913,3.0717,3.0717,3.0447,3.0073,2.9804,2.9205,2.8547,2.8263,2.7914,2.76,2.76,2.76,2.76,2.76,2.76,2.76,2.76,2.76,2.76,2.76,2.7375,2.7076,2.6686,2.6153,2.5525,2.4739,2.4365,2.4059,2.3655,2.3595,2.3595,2.3595,2.3595,2.3441,2.3,2.3354,2.3523,2.3259,2.2761,2.2608,2.2922,2.2533,2.2296,2.2296,2.2296,2.2296,2.2296,2.2733,2.2936,2.2936,2.3559,2.3935,2.4049,2.4442,2.4985,2.2649,2.3291,0.0,2.5118,2.6386,2.752,2.8263,2.8584,2.9041,3.0176,3.0412,3.0565,3.1106,3.119,3.1495,3.2462,3.2615,3.2933,3.3858,3.3203,3.2615,3.2615,3.1765,3.1698,3.2966,3.2832,3.3083,3.4088,3.3547,3.2826,3.2132,3.2516,3.2689,3.2512,3.332,3.3769,3.3769,3.3963,3.4053,3.4053,3.4053,3.4053,3.4038,3.3858,3.3664,3.3469,3.2991,3.2677,3.2452,3.1974,3.1675,3.1511,3.1511,3.1511,3.1511,3.1511,3.1511,3.1511,3.1511,3.1182,3.0761,3.0567,2.9759,2.8831,2.8652,2.8113,2.76,2.76,2.76,2.76,2.76,2.76,2.76,2.76,2.76,2.76,2.76,2.76,2.7465,2.6986,2.6746,2.6288,2.5307,2.4844,2.444,2.3954,2.3729,2.3595,2.3595,2.3595,2.3479,2.3196,2.3259,2.3312,2.3367,2.3093,2.3059,2.3467,2.3131,2.2919,2.2919,2.2919,2.2919,2.2919,2.3427,2.3697,2.3712,2.4489,2.4834,2.4828,2.5288,2.582,2.4051,0.0,2.4998,2.7148,2.8315,2.9128,2.9871,3.0581,3.1106,3.1157,3.1157,3.1173,3.119,3.119,3.1681,3.3136,3.3372,3.3858,3.5329,3.4264,3.3372,3.3372,3.2087,3.1515,0.0,3.2946,3.3972,3.5436,3.4918,3.426,3.3556,3.349,3.3181,3.2512,3.3769,3.4474,3.4474,3.5115,3.5444,3.5444,3.5444,3.5444,3.5429,3.4788,3.4098,3.3499,3.3469,3.3095,3.2512,3.2497,3.2079,3.1511,3.1511,3.1511,3.1511,3.1511,3.1511,3.1511,3.1511,3.1496,3.1361,3.0717,3.0073,2.9457,2.8801,2.8113,2.76,2.76,2.76,2.76,2.76,2.76,2.76,2.76,2.76,2.76,2.76,2.76,2.7585,2.757,2.7046,2.6572,2.6542,2.5457,2.459,2.4575,2.4029,2.3595,2.3595,2.3595,2.3794,2.4277,2.3725,2.3499,2.4034,2.3808,2.3671,2.3687,2.4157,2.4423,2.4423,2.4423,2.4423,2.4423,2.4457,2.4457,2.4457,2.4506,2.4896,2.5575,2.5591,2.5996,2.4372,0.0,2.7012,2.8281,2.9161,2.9922,3.0666,3.1021,3.1055,3.0581,3.048,3.0328,2.9839,2.9738,3.0228,3.1698,3.2341,3.3186,3.4658,3.4438,3.3947,3.3457,3.2966,0.0,0.0,0.0,0.0,3.4103,3.3136,3.2788,3.3501,3.3516,3.3608,3.383,3.4696,3.516,3.516,3.5385,3.5504,3.5504,3.5504,3.5504,3.5489,3.5265,3.504,3.4801,3.4337,3.4054,3.3754,3.2871,3.2377,3.2108,3.1675,3.1511,3.1511,3.1511,3.1511,3.1511,3.1511,3.1511,3.1466,3.1241,3.0731,3.0073,2.9445,2.8786,2.8184,2.772,2.76,2.76,2.76,2.76,2.76,2.76,2.76,2.76,2.76,2.76,2.76,2.76,2.742,2.7121,2.6686,2.6228,2.563,2.4739,2.4022,2.3595,2.3595,2.3595,2.3681,2.3858,2.364,2.3861,2.4754,2.4301,2.4253,2.4912,2.4668,2.4491,2.4491,2.4491,2.4491,2.4491,2.4983,2.522,2.5236,2.5726,2.6099,2.6336,2.6336,2.6454,2.5472,2.6928,2.8484,2.9534,3.0142,3.0615,3.1089,3.1004,3.0598,2.9854,2.9482,2.9059,2.8316,2.818,2.8773,3.0514,3.143,3.2513,3.4252,3.4489,3.432,3.3846,3.3558,3.3406,0.0,0.0,0.0,3.3801,3.3053,3.2819,3.3457,3.3751,3.4061,3.4488,3.5145,3.5504,3.5504,3.5504,3.5504,3.5504,3.5504,3.5504,3.5504,3.5504,3.5504,3.5489,3.504,3.4728,3.4444,3.3559,3.2946,3.2452,3.2019,3.1705,3.1511,3.1511,3.1511,3.1511,3.1511,3.1511,3.1511,3.1511,3.1032,3.0432,3.0028,2.946,2.8816,2.8154,2.7959,2.7899,2.766,2.76,2.76,2.76,2.76,2.76,2.76,2.76,2.76,2.76,2.76,2.7465,2.7046,2.6752,2.6228,2.5113,2.438,2.3879,2.3625,2.3595,2.3595,2.3595,2.3595,2.3879,2.4572,2.4553,2.4768,2.5426,2.5362,2.5286,2.5286,2.5286,2.5286,2.5286,2.5744,2.5998,2.5998,2.6471,2.6691,2.6691,2.6691,2.6691,2.7283,2.8467,2.945,3.0835,3.119,3.119,3.114,3.0581,2.982,2.9044,2.8247,2.7452,2.6674,0.0,2.7351,2.9583,3.0632,3.1952,3.4134,3.4506,3.4556,0.0,0.0,0.0,0.0,0.0,0.0,3.4664,0.0,3.426,3.3637,3.4174,3.4529,3.4533,3.516,3.5504,3.5504,3.5504,3.5504,3.5504,3.5504,3.5504,3.5504,3.5504,3.5504,3.5504,3.5504,3.513,3.4563,3.4518,3.3739,3.2617,3.2542,3.2108,3.1555,3.1511,3.1511,3.1511,3.1511,3.1511,3.1511,3.1511,3.1062,3.0552,3.0507,3.0088,2.9517,2.8831,2.8622,2.8442,2.7824,2.763,2.76,2.76,2.76,2.76,2.76,2.76,2.76,2.76,2.76,2.76,2.76,2.7046,2.6378,2.5749,2.5068,2.441,2.3744,2.3625,2.3595,2.3595,2.3595,2.3616,2.3638,2.4556,2.5182,2.524,2.6141,2.6674,2.6691,2.6691,2.6691,2.6691,2.6691,2.6691,2.6691,2.6691,2.6691,2.6691,2.6691,2.6691,2.8366,2.9634,3.0717,3.1106,3.119,3.1055,3.0514,2.9803,2.8908,2.7571,2.6691,2.5761,2.4475,2.5135,0.0,2.7385,2.96,0.0,3.3457,3.4641,0.0,3.5312,0.0,3.5926,3.5926,3.6434,0.0,0.0,3.4713,3.4112,3.4945,3.4699,3.4737,3.522,3.5415,3.5504,3.5504,3.5504,3.5504,3.5504,3.5504,3.5504,3.5504,3.5504,3.5504,3.5504,3.5504,3.54,3.5205,3.4728,3.4309,3.3873,3.2901,3.2392,3.2168,3.169,3.1511,3.1511,3.1511,3.1511,3.1511,3.1511,3.1391,3.1152,3.0657,3.0387,3.0133,2.9505,2.8981,2.8562,2.8382,2.7974,2.76,2.76,2.76,2.76,2.76,2.76,2.76,2.76,2.76,2.76,2.76,2.7046,2.6527,2.6363,2.5779,2.5098,2.4425,2.3924,2.3595,2.3595,2.3595,2.3752,2.4158,2.445,2.495,2.576,2.6033,2.6332,2.6691,2.6691,2.6691,2.6691,2.6691,2.6691,2.6691,2.6691,2.6691,2.6691,2.6691,2.6691,2.9262,3.0311,3.119,3.119,3.0954,3.0514,2.9786,2.8518,2.708,2.5558,2.4408,0.0,2.2141,2.3141,0.0,0.0,0.0,0.0,3.3152,3.467,3.5718,0.0,3.6541,0.0,3.7246,3.7669,3.7724,0.0,3.5505,3.4938,3.6014,3.508,3.4961,3.5944,3.5668,3.5504,3.5504,3.5504,3.5504,3.5504,3.5504,3.5504,3.5504,3.5504,3.5504,3.5504,0.0,3.5504,3.5474,3.5085,3.4788,3.4414,3.335,3.2766,3.2407,3.175,3.1511,3.1511,3.1511,3.1511,3.1511,3.1511,3.1511,3.1436,3.1047,3.0956,3.0821,3.0163,2.9714,2.931,2.8742,2.8308,2.7974,2.766,2.76,2.76,2.76,2.76,2.76,2.76,2.76,2.76,2.76,2.7285,2.7046,2.7046,2.6452,2.5899,2.554,2.4634,2.4044,2.4044,2.3789,2.3709,2.4012,2.4266,2.4672,2.5259,2.5521,2.5872,2.6367,2.6384,2.6487,2.6691,2.6691,2.6691,2.6691,2.6691,2.6691,2.6691,2.6691,2.6691,3.0057,3.0717,3.119,3.119,3.0649,2.9888,2.9025,2.7012,2.4898,2.341,0.0,2.0649,1.9862,2.113,2.2989,2.5118,0.0,3.0768,3.3085,3.4585,3.5842,3.6846,3.6948,3.7286,3.8108,3.8193,3.8169,3.8127,3.688,3.6376,3.6886,3.5657,3.5445,3.6553,3.5894,3.5504,3.5504,3.5504,3.5504,3.5504,3.5504,3.5504,3.5504,3.5504,3.5504,3.5504,3.5504,3.5504,3.5504,3.5504,3.516,3.4578,3.3784,3.314,3.2557,3.178,3.1511,3.1511,3.1511,3.1511,3.1511,3.1511,3.1511,3.1511,3.1511,3.1511,3.1376,3.0806,3.0567,3.0253,2.9146,2.8727,2.8442,2.7869,2.766,2.76,2.76,2.76,2.76,2.76,2.76,2.76,2.76,2.76,2.76,2.76,2.7106,2.6722,2.6722,2.557,2.4739,2.4739,2.4126,2.3729,2.3729,2.4094,2.4328,2.4389,2.4894,2.5411,2.587,2.6015,2.6262,2.6607,2.6674,2.6691,2.6691,2.6691,2.6691,2.6691,2.6691,2.6691,3.0801,3.1106,3.119,3.119,3.0649,2.9717,2.8331,2.5828,0.0,0.0,2.0361,1.9063,1.8324,2.0437,2.2835,2.444,0.0,0.0,0.0,0.0,3.5436,0.0,0.0,0.0,0.0,0.0,0.0,0.0,0.0,3.8116,3.7642,3.7369,3.7034,3.66,3.5894,3.5504,3.5504,3.5504,3.5504,3.5504,3.5504,3.5504,3.5504,3.5504,3.5504,3.5504,3.5504,0.0,3.5504,3.5504,3.5429,3.5205,3.3978,3.3425,3.3185,3.1944,3.1511,3.1511,3.1511,3.1511,3.1511,3.1511,3.1511,3.1511,3.1511,3.1511,3.1481,3.1361,3.0941,3.0447,3.0238,2.9385,2.8562,2.8442,2.8004,2.76,2.76,2.76,2.76,2.76,2.76,2.76,2.76,2.76,2.76,2.76,2.7495,2.742,2.742,2.6258,2.5435,2.5435,2.4829,2.4425,2.4425,2.4011,2.3943,2.4369,2.4894,2.524,2.5335,2.6139,2.6436,2.6138,2.6487,2.6691,2.6691,2.6691,2.6691,2.6691,2.6691,2.6691,3.1004,3.119,3.119,3.119,3.004,2.8517,2.6995,0.0,0.0,0.0,1.8234,1.7185,1.7219,1.9046,0.0,0.0,0.0,0.0,0.0,0.0,0.0,0.0,0.0,0.0,0.0,0.0,0.0,0.0,0.0,3.9183,3.8414,3.7616,3.6828,3.6054,3.5701,3.5504,3.5504,3.5504,3.5504,3.5504,3.5504,3.5504,3.5504,3.5504,3.5504,3.5504,3.5504,0.0,3.5504,3.5504,3.5504,3.537,3.4023,3.3499,3.3335,3.1989,3.1511,3.1511,3.1511,3.1511,3.1511,3.1511,3.1511,3.1511,3.1511,3.1511,3.1511,3.1511,3.1271,3.0928,3.0597,3.0058,2.9415,2.8757,2.8094,2.76,2.76,2.76,2.76,2.76,2.76,2.76,2.76,2.76,2.76,2.76,2.76,2.76,2.76,2.7046,2.6497,2.6153,2.5516,2.5113,2.5113,2.45,2.4243,2.4496,2.442,2.4491,2.4756,2.5508,2.5944,2.6013,2.6453,2.6691,2.6691,2.6691,2.6691,2.6708,2.7097,2.7283,3.0818,3.1072,3.119,3.119,2.9499,2.7418,2.5931,2.2567,0.0,0.0,1.639,1.5595,1.6333,0.0,1.9469,0.0,2.39,0.0,0.0,0.0,0.0,0.0,0.0,0.0,0.0,0.0,0.0,0.0,0.0,0.0,3.9166,3.7844,3.6828,3.6243,3.6085,3.599,3.599,3.5814,3.5733,3.5718,3.5587,3.5504,3.5504,3.5504,3.5504,3.5504,3.5504,0.0,0.0,3.5504,3.5504,3.537,3.4023,3.3499,3.3335,3.1989,3.1511,3.1511,3.1511,3.1511,3.1511,3.1511,3.1511,3.1511,3.1511,3.1511,3.1511,3.1511,3.1511,3.1376,3.0838,3.0612,3.0178,2.8906,2.8188,2.7779,2.763,2.76,2.76,2.76,2.76,2.76,2.76,2.76,2.76,2.76,2.76,2.76,2.76,2.76,2.7405,2.6881,2.6213,2.5809,2.5809,2.5326,2.5025,2.5025,2.4743,2.4719,2.503,2.5552,2.6032,2.6458,2.6817,2.7061,2.7182,2.7182,2.7182,2.7199,2.7791,2.806,3.0173,3.0683,3.119,3.119,2.9499,2.7418,2.5931,0.0,0.0,1.7111,1.5629,1.4825,1.5561,1.6915,1.8865,2.1823,2.3038,2.5118,0.0,0.0,0.0,0.0,0.0,0.0,0.0,0.0,0.0,0.0,0.0,0.0,3.9952,3.9166,3.8646,3.8591,3.7933,3.7589,3.7589,3.6859,3.6492,3.6492,3.5814,3.5504,3.5504,3.5504,3.5504,3.5504,3.5504,0.0,0.0,3.5504,3.5504,3.537,3.4023,3.3499,3.3335,3.1989,3.1511,3.1511,3.1511,3.1511,3.1511,3.1511,3.1511,3.1511,3.1511,3.1511,3.1511,3.1511,3.1511,3.1496,3.1421,3.0943,3.0178,2.8906,2.8547,2.8338,2.7735,2.76,2.76,2.76,2.76,2.76,2.76,2.76,2.76,2.76,2.76,2.76,2.76,2.76,2.757,2.751,2.6926,2.6497,2.6497,2.6398,2.6335,2.6335,2.7242,2.7574,2.7132,2.757,2.7898,2.7998,2.7976,2.8239,2.879,2.879,2.879,2.879,2.8857,2.8891,2.9835,3.0632,3.119,3.119,2.9144,2.6759,2.527,0.0,1.7946,1.6908,1.5528,1.4858,1.6045,1.6739,1.7963,2.0504,2.1164,2.2615,2.6218,0.0,0.0,0.0,0.0,0.0,0.0,0.0,0.0,0.0,0.0,0.0,4.007,3.8914,3.8246,3.8246,3.795,3.7793,3.7793,3.6994,3.6615,3.6569,3.5831,3.5504,3.5504,3.5504,3.5504,3.5504,3.5504,0.0,0.0,3.5504,3.5504,3.5415,3.4457,3.3874,3.338,3.2437,3.1854,3.1511,3.1511,3.1511,3.1511,3.1511,3.1511,3.1511,3.1511,3.1511,3.1511,3.1511,3.1511,3.1511,3.1511,3.0987,3.0372,2.9864,2.916,2.8532,2.8248,2.7884,2.76,2.76,2.76,2.76,2.76,2.76,2.76,2.76,2.76,2.76,2.76,2.76,2.76,2.76,2.736,2.721,2.721,2.6823,2.6719,2.7062,2.7156,2.7257,2.7387,2.7885,2.8157,2.8196,2.8496,2.8755,2.8993,2.8993,2.8993,2.901,2.9448,2.9651,2.8755,2.9803,3.0548,3.0548,2.845,2.5981,0.0,2.1042,1.7845,1.6891,1.5697,1.5206,1.6468,1.6699,1.7416,1.9642,2.0002,2.113,2.4372,2.5912,0.0,0.0,0.0,0.0,0.0,0.0,0.0,0.0,0.0,0.0,4.0096,3.9076,3.8486,3.8486,3.8486,3.8486,3.8486,3.7469,3.6934,3.6934,3.5958,3.5504,3.5504,3.5504,3.5504,3.5504,3.5504,0.0,0.0,3.5504,3.5504,3.5429,3.4741,3.4099,3.3425,3.2766,3.2064,3.1511,3.1511,3.1511,3.1511,3.1511,3.1511,3.1511,3.1511,3.1511,3.1511,3.1511,3.1511,3.1511,3.1511,3.1137,3.0761,3.0552,2.9819,2.9116,2.8921,2.8353,2.7899,2.7899,2.7735,2.76,2.76,2.76,2.76,2.76,2.76,2.76,2.76,2.76,2.76,2.76,2.76,2.76,2.76,2.7338,2.7326,2.7767,2.7686,2.7817,2.8239,2.8604,2.8917,2.9073,2.9281,2.9467,2.9653,2.9653,2.9653,2.967,3.0176,3.0429,2.6522,2.7859,2.9027,2.9027,2.73,2.5236,2.3748,2.1059,1.8482,1.6993,1.6113,1.5825,1.6553,1.6699,1.7416,1.9642,2.0002,2.1302,2.5052,2.6234,0.0,0.0,0.0,0.0,0.0,0.0,0.0,0.0,0.0,0.0,4.0096,4.007,4.0087,4.0087,4.0087,4.0087,4.0087,3.8541,3.7793,3.7764,3.6227,3.5504,3.5504,3.5504,3.5504,3.5504,0.0,0.0,0.0,3.5504,3.5504,3.5429,3.4741,3.4099,3.3425,3.2766,3.2064,3.1511,3.1511,3.1511,3.1511,3.1511,3.1511,3.1511,3.1511,3.1511,3.1511,3.1511,3.1511,3.1511,3.1511,3.1496,3.1316,3.0672,3.0492,3.0313,2.9726,2.9056,2.8592,2.8592,2.8064,2.76,2.76,2.76,2.76,2.76,2.76,2.76,2.76,2.76,2.76,2.76,2.76,2.76,2.76,2.814,2.8472,2.8487,2.9613,3.0255,3.0276,3.0276,3.0563,3.1173,3.0584,3.0584,3.1173,3.1173,3.1173,3.1173,3.1173,3.119,2.4239,2.5541,2.6556,2.6048,2.4998,2.3714,2.224,2.0344,1.8623,1.7642,1.6874,1.6587,1.732,1.7456,1.8183,2.045,2.1231,2.233,0.0,0.0,0.0,0.0,0.0,0.0,0.0,0.0,0.0,0.0,0.0,0.0,4.0096,4.0096,4.0096,4.0096,4.0096,4.0096,4.0096,3.9076,3.8553,3.8525,3.7544,3.7055,3.7055,3.7055,3.7055,0.0,0.0,0.0,0.0,3.5701,3.5504,3.5489,3.5265,3.4487,3.3469,3.326,3.2452,3.1511,3.1511,3.1511,3.1511,3.1511,3.1511,3.1511,3.1511,3.1511,3.1511,3.1511,3.1511,3.1511,3.1511,3.1511,3.1451,3.1227,3.0823,3.0447,3.0253,2.9714,2.9146,2.8682,2.8427,2.8154,2.7675,2.76,2.76,2.76,2.76,2.76,2.76,2.76,2.76,2.76,2.76,2.76,2.76,2.7785,2.8067,2.8463,2.885,2.9451,3.0272,3.0293,3.058,3.119,3.1015,3.1015,3.119,3.119,3.119,3.119,3.119,3.119,2.1688,2.3209,2.4239,2.3782,2.312,2.2189,2.0666,1.9367,1.8285,1.754,1.7027,1.6925,1.7648,1.78,1.8442,2.0433,2.113,0.0,0.0,0.0,0.0,0.0,0.0,0.0,0.0,0.0,0.0,0.0,0.0,0.0,4.0096,4.0096,4.0096,4.0096,4.0096,4.0096,4.0096,3.9315,3.8908,3.8881,3.8149,3.7793,3.7793,3.7793,3.7793,0.0,0.0,0.0,0.0,3.5814,3.5504,3.5537,3.5814,3.5071,3.389,3.3925,3.3065,3.1839,3.1585,3.1511,3.1511,3.1511,3.1511,3.1511,3.1511,3.1511,3.1511,3.1511,3.1511,3.1511,3.1511,3.1511,3.1511,3.1511,3.1182,3.0896,3.0896,3.0387,2.9744,2.9101,2.8771,2.8382,2.772,2.76,2.76,2.76,2.76,2.76,2.76,2.76,2.76,2.76,2.781,2.7959,2.7959,2.7735,2.786,2.8463,2.8709,2.9271,3.0251,3.0518,3.0818,3.119,3.119,3.119,3.119,3.119,3.119,3.119,3.119,3.119,0.0,2.0741,2.189,2.184,2.1346,2.0496,1.8995,1.8183,0.0,1.6773,1.6665,1.6942,1.7732,1.7884,1.8408,1.9968,2.0289,0.0,0.0,0.0,0.0,0.0,0.0,0.0,0.0,0.0,0.0,0.0,0.0,0.0,4.0096,4.0096,4.0096,4.0096,4.0096,4.0096,4.0096,3.9342,3.9005,3.8962,3.829,3.795,3.795,3.795,3.795,0.0,0.0,0.0,0.0,3.5894,3.5569,3.5554,3.6244,3.5675,3.4523,3.4633,3.3766,3.2392,3.1795,3.154,3.1511,3.1511,3.1511,3.1511,3.1511,3.1511,3.1511,3.1511,3.1511,3.1511,3.1511,3.1511,3.1511,3.1511,3.1511,3.1511,3.1511,3.1002,3.0387,2.9786,2.9146,2.8502,2.7794,2.771,2.772,2.7675,2.766,2.766,2.766,2.7625,2.76,2.76,2.8091,2.8439,2.8487,2.8018,2.7968,2.8535,2.9088,2.9673,3.0288,3.0838,3.1151,3.119,3.119,3.119,3.119,3.119,3.119,3.119,3.119,3.119,1.5592,0.0,1.7873,1.732,1.7467,1.7501,0.0,1.6688,1.6756,1.6011,1.6299,1.7094,1.8403,1.864,1.9502,2.2175,0.0,0.0,0.0,0.0,0.0,0.0,0.0,0.0,0.0,0.0,0.0,0.0,0.0,4.0096,4.0096,4.0096,4.0096,4.0096,4.0096,4.0096,4.0096,3.9901,3.9808,3.9808,3.9636,3.9558,3.9558,3.9558,3.9558,0.0,0.0,0.0,3.7456,3.6661,3.6006,3.5537,3.5701,3.5247,3.452,3.4542,3.3683,3.2497,3.2303,3.1929,3.1511,3.1511,3.1511,3.1511,3.1511,3.1511,3.1511,3.1511,3.1511,3.1511,3.1511,3.1511,3.1511,3.1511,3.1511,3.1511,3.1511,3.1376,3.1062,3.0417,3.0163,2.9699,2.8547,2.8758,2.887,2.8363,2.8286,2.8286,2.8286,2.7885,2.76,2.76,2.7735,2.7993,2.8463,2.8787,2.9042,2.918,2.9316,2.9673,3.0288,3.0435,3.072,3.119,3.119,3.119,3.119,3.119,3.119,3.119,3.119,3.119,1.4005,1.5561,1.7101,1.6712,1.7151,1.7518,1.6779,1.6654,1.6597,1.618,1.6417,1.7145,1.8635,1.9181,0.0,0.0,2.3814,0.0,0.0,0.0,0.0,0.0,0.0,0.0,0.0,0.0,0.0,0.0,0.0,4.0096,4.0096,4.0096,4.0096,4.0096,4.0096,4.0096,4.0096,4.0096,4.0096,4.0096,4.0096,4.0096,4.0096,4.0096,4.0096,0.0,0.0,0.0,3.7764,3.7338,3.6508,3.5569,3.629,3.5919,3.497,3.4985,3.4137,3.2916,3.2617,3.2049,3.1511,3.1511,3.1511,3.1511,3.1511,3.1511,3.1511,3.1511,3.1511,3.1582,3.1938,3.2007,3.2092,3.2379,3.2446,3.2446,3.2446,3.2201,3.181,3.111,3.0714,3.0193,2.922,2.9342,2.9536,2.9463,2.9177,2.9073,2.9375,2.8849,2.8424,2.8424,2.867,2.8957,2.9293,2.987,3.0102,2.9827,2.9805,3.0064,3.0679,3.072,3.0858,3.119,3.119,3.119,3.119,3.119,3.119,3.119,3.119,3.119,1.3667,1.5714,1.7715,1.7377,1.8031,1.8538,1.78,1.7236,1.6874,1.6874,0.0,1.7484,1.899,1.9959,0.0,0.0,0.0,0.0,0.0,0.0,0.0,0.0,0.0,0.0,0.0,0.0,0.0,0.0,0.0,4.0096,4.0096,4.0096,4.0096,4.0096,4.0096,4.0096,4.0096,4.0096,4.0096,4.0096,4.0096,4.0096,4.0096,4.0096,4.0045,3.9901,0.0,0.0,3.7793,3.7793,3.6951,3.5782,3.6981,3.6662,3.5479,3.5462,3.4607,3.338,3.2632,3.1974,3.1511,3.1511,3.1511,3.1511,3.1511,3.1511,3.1511,3.1511,3.1582,3.1796,3.2299,3.2586,3.2841,3.3209,3.3427,3.3556,3.3469,3.3093,3.2562,3.2013,3.1397,3.0791,3.0155,3.0141,3.0343,3.0829,3.0353,3.0155,3.073,3.017,2.9749,2.9749,3.0195,3.0537,3.0622,3.1095,3.1213,3.0808,3.0551,3.0679,3.1171,3.119,3.119,3.119,3.119,3.119,3.119,3.119,3.119,3.119,3.119,3.119,1.4928,1.6509,1.7343,1.5467,1.6498,1.7777,1.7044,1.7253,1.7642,0.0,0.0,0.0,0.0,2.1969,2.3579,0.0,0.0,0.0,0.0,0.0,0.0,0.0,0.0,0.0,0.0,0.0,0.0,0.0,0.0,4.0096,4.0096,4.0096,4.0096,4.0096,4.0096,4.0096,4.0096,4.0096,4.0096,4.0096,4.0096,4.0096,4.0096,4.0096,3.9731,3.9113,0.0,3.9119,3.7793,3.7793,3.7249,3.6384,3.6006,3.5716,3.5415,3.487,3.4177,3.332,3.2079,3.1585,3.1511,3.1511,3.1511,3.1511,3.1511,3.1511,3.1511,3.1511,3.1951,3.2299,3.1796,3.2544,3.3182,3.2076,3.2745,3.3427,3.2868,3.3119,3.3411,3.3326,3.3191,3.2917,3.2244,3.2554,3.2745,3.2282,3.2109,3.2066,3.218,3.1646,3.1261,3.1261,3.1348,3.1605,3.2121,3.2249,3.2468,3.2904,3.1746,3.1095,3.119,3.119,3.119,3.119,3.119,3.119,3.119,3.119,3.119,3.119,3.119,3.119,1.4234,1.5774,1.6948,1.5933,1.798,2.0132,1.9807,1.9993,2.0234,2.0234,0.0,0.0,0.0,0.0,0.0,0.0,0.0,0.0,0.0,0.0,0.0,0.0,0.0,0.0,0.0,0.0,0.0,0.0,0.0,0.0,4.0096,4.0096,4.0096,4.0096,4.0096,4.0096,4.0096,4.0096,4.0096,4.0096,4.0096,4.0096,4.0096,4.0096,3.9901,3.9542,0.0,3.9032,3.8358,3.795,3.7338,3.6584,3.6228,3.5831,3.537,3.4337,3.3529,3.2826,3.1839,3.1511,3.1511,3.1511,3.1511,3.1582,3.1979,3.1824,3.1582,3.1979,3.2064,3.2104,3.2544,3.3114,3.3608,3.371,3.4227,3.4609,3.4276,3.4178,3.4137,3.4137,3.3836,3.3512,3.3175,3.3378,3.3575,3.363,3.3297,3.3181,3.3534,3.299,3.2563,3.2563,3.2563,3.2691,3.2949,3.2988,3.2928,3.2814,3.2154,3.1633,3.1207,3.119,3.119,3.119,3.119,3.119,3.119,3.119,3.119,3.119,3.119,3.119,1.3811,1.5276,1.6783,1.7128,1.9502,2.189,2.2446,2.2564,2.2702,2.3224,0.0,0.0,0.0,0.0,0.0,0.0,0.0,0.0,0.0,0.0,0.0,0.0,0.0,0.0,0.0,0.0,0.0,0.0,0.0,0.0,3.9842,3.9842,3.9926,4.0096,4.0096,4.0096,4.0096,4.0096,4.0096,4.0096,4.0096,4.0096,4.0096,4.0096,3.9995,3.9782,3.9166,3.8799,3.858,3.7819,3.716,3.6584,3.6415,3.5809,3.4891,3.3694,3.2841,3.2183,3.1675,3.1511,3.1524,3.1697,3.1768,3.1894,3.2614,3.2449,3.2076,3.2492,3.2299,3.2201,3.313,3.3582,3.4062,3.4934,3.5362,3.5577,3.5385,3.5075,3.483,3.483,3.4423,3.4078,3.4078,3.4078,3.4235,3.4759,3.4343,3.4172,3.4677,3.4269,3.3931,3.3931,3.3931,3.3931,3.3931,3.3931,3.3592,3.2869,3.2666,3.229,3.1732,3.1715,3.1715,3.1715,3.1715,3.1715,3.1715,3.1715,3.1715,3.1715,3.1715,3.1715,1.508,1.6062,1.7037,1.8398,1.9456,2.0724,2.2835,2.3325,2.39,2.5964,0.0,0.0,0.0,0.0,0.0,0.0,0.0,0.0,0.0,0.0,0.0,0.0,0.0,0.0,0.0,0.0,0.0,0.0,0.0,0.0,3.9039,3.9073,3.9402,4.0079,4.0096,4.0096,4.0096,4.0096,4.0096,4.0096,4.0096,4.0096,4.0096,4.0096,3.9688,3.8989,3.8935,3.8497,3.7806,3.7024,3.663,3.6523,3.5831,3.4805,3.3559,3.2841,3.2138,3.157,3.1525,3.1511,3.1611,3.2299,3.252,3.2641,3.3313,3.3479,3.3339,3.2761,3.3013,3.3339,3.2815,3.3598,3.4406,3.3862,3.4704,3.5447,3.4807,3.5121,3.5515,3.5515,3.5492,3.5447,3.5447,3.5447,3.547,3.5515,3.5481,3.547,3.5515,3.5464,3.543,3.543,3.543,3.543,3.543,3.543,3.5126,3.4387,3.3694,3.3305,3.3254,3.3254,3.3254,3.3254,3.3254,3.3254,3.3254,3.3254,3.3254,3.3254,3.3254,3.3254,1.4082,1.5764,1.7523,1.8082,1.9845,2.189,2.3678,2.5152,2.664,2.845,2.9178,0.0,0.0,0.0,0.0,0.0,0.0,0.0,0.0,0.0,0.0,0.0,0.0,0.0,0.0,0.0,0.0,0.0,0.0,0.0,3.8311,3.8328,3.8447,3.8717,3.8717,3.8717,3.8717,3.9174,3.9436,3.9436,3.9893,4.0096,4.0096,4.0096,3.9927,3.9584,3.8624,3.8302,3.8358,3.6646,3.6461,3.7261,3.6526,3.5115,3.3533,3.3712,3.3377,3.2826,3.2826,3.2826,3.2837,3.313,3.3209,3.3339,3.4012,3.3937,3.3633,3.3811,3.3735,3.3443,3.2761,3.3582,3.4528,3.4284,3.4934,3.5515,3.5276,3.5407,3.56,3.56,3.56,3.56,3.56,3.56,3.56,3.56,3.56,3.56,3.56,3.56,3.56,3.56,3.56,3.56,3.56,3.56,3.5481,3.5194,3.4489,3.388,3.3423,3.3406,3.3406,3.3406,3.3406,3.3406,3.3406,3.3406,3.3406,3.3406,3.3406,3.3406,1.4082,1.6069,1.8205,1.8442,2.0589,2.3088,2.4812,2.6556,2.8365,3.0378,3.0835,3.1072,3.1765,0.0,0.0,0.0,0.0,0.0,0.0,0.0,0.0,0.0,0.0,0.0,0.0,0.0,0.0,0.0,0.0,0.0,0.0,3.755,3.7669,3.7905,3.7905,3.7905,3.7905,3.8396,3.865,3.865,3.9157,3.9537,3.9757,3.952,3.9419,3.9327,3.8008,3.7747,3.8072,3.6265,3.6131,3.7029,3.631,3.513,3.3862,3.4171,3.3998,3.3582,3.3582,3.3582,3.3633,3.3836,3.3912,3.4037,3.4712,3.4592,3.4284,3.4528,3.4406,3.4028,3.3145,3.3761,3.4664,3.4871,3.527,3.56,3.56,3.56,3.56,3.56,3.56,3.56,3.56,3.56,3.56,3.56,3.56,3.56,3.56,3.56,3.56,3.56,3.56,3.56,3.56,3.56,3.56,3.56,3.5131,3.4624,3.4134,3.4078,3.4078,3.4078,3.4078,3.4078,3.4078,3.4078,3.4078,3.4078,3.4078,3.4078,1.5595,1.7219,1.9096,1.9845,2.1738,2.4002,2.6218,2.73,2.8686,3.1718,3.1157,3.0818,3.3017,0.0,0.0,0.0,0.0,0.0,0.0,0.0,0.0,0.0,0.0,0.0,0.0,0.0,0.0,0.0,0.0,0.0,0.0,3.6795,3.711,3.7855,3.7889,3.7889,3.7889,3.7889,3.7889,3.7889,3.7889,3.8278,3.8954,3.8227,3.7905,3.7858,3.7053,3.6699,3.6648,3.59,3.5589,3.5537,3.4856,3.4595,3.4515,3.3864,3.3608,3.3608,3.3608,3.3608,3.3735,3.4382,3.46,3.4736,3.5385,3.56,3.547,3.4783,3.5075,3.5293,3.3962,3.4112,3.4783,3.543,3.56,3.56,3.56,3.56,3.56,3.56,3.56,3.56,3.56,3.56,3.56,3.56,3.56,3.56,3.56,3.56,3.56,3.56,3.56,3.56,3.56,3.56,3.56,3.56,3.56,3.56,3.56,3.56,3.56,3.56,3.56,3.56,3.56,3.56,3.56,3.56,3.56,3.56,1.5809,1.758,0.0,2.1299,0.0,0.0,0.0,2.9279,0.0,0.0,3.3863,3.3389,3.4049,0.0,0.0,0.0,0.0,0.0,0.0,0.0,0.0,0.0,0.0,0.0,0.0,0.0,0.0,0.0,0.0,0.0,0.0,3.596,3.6062,3.6276,3.6276,3.6276,3.6276,3.684,3.7134,3.7134,3.7134,3.7499,3.8227,3.8007,3.7905,3.7858,3.7053,3.6699,3.6673,3.6466,3.578,3.4995,3.5819,3.5505,3.4628,3.4906,3.5005,3.5005,3.5005,3.5005,3.5028,3.523,3.5316,3.5339,3.5538,3.56,3.5577,3.5362,3.5447,3.5515,3.5115,3.5161,3.523,3.4965,3.5253,3.56,3.56,3.56,3.56,3.56,3.56,3.56,3.56,3.56,3.56,3.56,3.56,3.56,3.56,3.56,3.56,3.56,3.56,3.56,3.56,3.56,3.56,3.56,3.56,3.56,3.56,3.56,3.56,3.56,3.56,3.56,3.56,3.56,3.56,3.56,3.56,3.56,1.7273,1.9304,0.0,2.3226,2.5389,2.7689,2.9822,0.0,0.0,0.0,3.459,3.4235,3.4827,3.41,0.0,0.0,0.0,0.0,0.0,0.0,0.0,0.0,0.0,0.0,0.0,0.0,0.0,0.0,0.0,0.0,0.0,3.56,3.56,3.56,3.56,3.56,3.56,3.6079,3.6315,3.6315,3.6315,3.6569,3.6992,3.6992,3.6992,3.6945,3.6475,3.6272,3.6272,3.6272,3.5745,3.5079,3.5981,3.5765,3.5052,3.5447,3.56,3.56,3.56,3.56,3.56,3.56,3.56,3.56,3.56,3.56,3.56,3.56,3.56,3.56,3.56,3.56,3.5492,3.5098,3.5316,3.56,3.56,3.56,3.56,3.56,3.56,3.56,3.56,3.56,3.56,3.56,3.56,3.56,3.56,3.56,3.56,3.56,3.56,3.56,3.56,3.56,3.56,3.56,3.56,3.56,3.56,3.56,3.56,3.56,3.56,3.56,3.56,3.56,3.56,3.56,3.56,3.56,1.9266,2.1502,0.0,2.5304,2.6911,0.0,3.1582,3.2763,3.3525,3.432,0.0,3.3931,3.5346,0.0,0.0,0.0,0.0,0.0,0.0,0.0,0.0,0.0,0.0,0.0,0.0,0.0,0.0,0.0,0.0,0.0,0.0,3.56,3.56,3.56,3.56,3.56,3.56,3.56,3.56,3.56,3.56,3.56,3.56,3.56,3.56,3.56,3.56,3.56,3.56,3.56,3.56,3.56,3.56,3.56,3.56,3.56,3.56,3.56,3.56,3.56,3.56,3.56,3.56,3.56,3.56,3.56,3.56,3.56,3.56,3.56,3.56,3.56,3.56,3.56,3.56,3.56,3.56,3.56,3.56,3.56,3.56,3.56,3.56,3.56,3.56,3.56,3.56,3.56,3.56,3.56,3.56,3.56,3.56,3.56,3.56,3.56,3.56,3.56,3.56,3.56,3.56,3.56,3.56,3.56,3.56,3.56,3.56,3.56,3.56,3.56,3.56,3.56,1.8217,2.0352,0.0,0.0,2.8484,3.0632,3.1275,3.2022,3.2919,3.4218,3.437,0.0,0.0,0.0,0.0,0.0,0.0,0.0,0.0,0.0,0.0,0.0,0.0,0.0,0.0,0.0,0.0,0.0,0.0,0.0,3.56,3.56,3.56,3.56,3.56,3.56,3.56,3.56,3.56,0.0,3.56,3.56,3.56,3.56,3.56,3.56,3.56,3.56,3.56,3.56,3.56,3.56,3.56,3.56,3.56,3.56,3.56,3.56,3.56,3.56,3.56,3.56,3.56,3.56,3.56,3.56,3.56,3.56,3.56,3.56,3.56,3.56,3.56,3.56,3.56,3.56,3.56,3.56,3.56,3.56,3.56,3.56,3.56,3.56,3.56,3.56,3.56,3.56,3.56,3.56,3.56,3.56,3.56,3.56,3.56,3.56,3.56,3.56,3.56,3.56,3.56,3.56,3.56,3.56,3.56,3.56,3.56,3.56,3.56,3.56,3.56,3.56,1.8421,0.0,0.0,2.6979,0.0,3.0768,3.1123,3.1515,3.209,3.3224,0.0,0.0,0.0,0.0,0.0,0.0,0.0,0.0,0.0,0.0,0.0,0.0,0.0,0.0,0.0,0.0,0.0,0.0,0.0,3.56,3.56,3.56,3.56,3.56,3.56,3.56,3.56,3.56,3.56,3.56,3.56,3.56,3.56,3.56,3.56,3.56,3.56,3.56,3.56,3.56,3.56,3.56,3.56,3.56,3.56,3.56,3.56,3.56,3.56,3.56,3.56,3.56,3.56,3.56,3.56,3.56,3.56,3.56,3.56,3.56,3.56,3.56,3.56,3.56,3.56,3.56,3.56,3.56,3.56,3.56,3.56,3.56,3.56,3.56,3.56,3.56,3.56,3.56,3.56,3.56,3.56,3.56,3.56,3.56,3.56,3.56,3.56,3.56,3.56,3.56,3.56,3.56,3.56,3.56,3.56,3.56,3.56,3.56,3.56,3.56,3.56,3.56,1.8036,0.0,2.4069,2.7706,2.9364,0.0,3.0869,3.1106,3.136,0.0,0.0,0.0,0.0,0.0,0.0,0.0,0.0,0.0,0.0,0.0,0.0,0.0,0.0,0.0,0.0,0.0,0.0,0.0,0.0,3.56,3.56,3.56,3.56,3.56,3.56,3.56,3.56,3.56,3.56,3.56,3.56,3.56,3.56,3.56,3.56,3.56,3.56,3.56,3.56,3.56,3.56,3.56,3.56,3.56,3.56,3.56,3.56,3.56,3.56,3.56,3.56,3.56,3.56,3.56,3.56,3.56,3.56,3.56,3.56,3.56,3.56,3.56,3.56,3.56,3.56,3.56,3.56,3.56,3.56,3.56,3.56,3.56,3.56,3.56,3.56,3.56,3.56,3.56,3.56,3.56,3.56,3.56,3.56,3.56,3.56,3.56,3.56,3.56,3.56,3.56,3.56,3.56,3.56,3.56,3.56,3.56,3.56,3.56,3.56,3.56,3.56,3.56,1.4149,0.0,2.3175,0.0,2.8569,3.0142,0.0,0.0,0.0,0.0,0.0,0.0,0.0,0.0,0.0,0.0,0.0,0.0,0.0,0.0,0.0,0.0,0.0,0.0,0.0,0.0,0.0,0.0,3.56,3.56,3.56,3.56,3.56,3.56,3.56,3.56,3.56,3.56,3.56,3.56,3.56,3.56,3.56,3.56,3.56,3.56,3.56,3.56,3.56,3.56,3.56,3.56,3.56,3.56,3.56,3.56,3.56,3.56,3.56,3.56,3.56,3.56,3.56,3.56,3.56,3.56,3.56,3.56,3.56,3.56,3.56,3.56,3.56,3.56,3.56,3.56,3.56,3.56,3.56,3.56,3.56,3.56,3.56,3.56,3.56,3.56,3.56,3.56,3.56,3.56,3.56,3.56,3.56,3.56,3.56,3.56,3.56,3.56,3.56,3.56,3.56,3.56,3.56,3.56,3.56,3.56,3.56,3.56,3.56,3.56,3.56,3.56,1.569,1.9041,2.2479,0.0,2.7452,2.8535,2.982,0.0,0.0,0.0,0.0,0.0,0.0,0.0,0.0,0.0,0.0,0.0,0.0,0.0,0.0,0.0,0.0,0.0,0.0,0.0,0.0,0.0,3.56,3.56,3.56,3.56,3.56,3.56,3.56,3.56,3.56,3.56,3.56,3.56,3.56,3.56,3.56,3.56,3.56,3.56,3.56,3.56,3.56,3.56,3.56,3.56,3.56,3.56,3.56,3.56,3.56,3.56,3.56,3.56,3.56,3.56,3.56,3.56,3.56,3.56,3.56,3.56,3.56,3.56,3.56,3.56,3.56,3.56,3.56,3.56,3.56,3.56,3.56,3.56,3.56,3.56,3.56,3.56,3.56,3.56,3.56,3.56,3.56,3.56,3.56,3.56,3.56,3.56,3.56,3.56,3.56,3.56,3.56,3.56,3.56,3.56,3.56,3.56,3.56,3.56,3.56,3.56,3.56,3.56,3.56,3.56,0.0,0.0,2.0666,2.4389,2.5726,2.6674,0.0,0.0,0.0,0.0,0.0,0.0,0.0,0.0,0.0,0.0,0.0,0.0,0.0,0.0,0.0,0.0,0.0,0.0,0.0,0.0,0.0,0.0,3.5042,3.5109,3.5295,3.5312,3.5397,3.5583,3.56,3.56,3.56,3.56,3.56,3.56,3.56,3.56,3.56,3.56,3.56,3.56,3.56,3.56,3.56,3.56,3.56,3.56,3.56,3.56,3.56,3.56,3.56,3.56,3.56,3.56,3.56,3.56,3.56,3.56,3.56,3.56,3.56,3.56,3.56,3.56,3.56,3.56,3.56,3.56,3.56,3.56,3.56,3.56,3.56,3.56,3.56,3.56,3.56,3.56,3.56,3.56,3.56,3.56,3.56,3.56,3.56,3.56,3.56,3.56,3.56,3.56,3.56,3.56,3.56,3.56,3.56,3.56,3.56,3.56,3.56,3.56,3.56,3.56,3.56,3.56,3.56,3.56,0.0,1.5308,0.0,2.0547,2.3052,0.0,0.0,0.0,0.0,0.0,0.0,0.0,0.0,0.0,0.0,0.0,0.0,0.0,0.0,0.0,0.0,0.0,0.0,0.0,0.0,0.0,0.0,0.0,3.3525,3.3829,3.4523,3.4556,3.4878,3.5583,3.56,3.56,3.56,3.56,3.56,3.56,3.56,3.56,3.56,3.56,3.56,3.56,3.56,3.56,3.56,3.56,3.56,3.56,3.56,3.56,3.56,3.56,3.56,3.56,3.56,3.56,3.56,3.56,3.56,3.56,3.56,3.56,3.56,3.56,3.56,3.56,3.56,3.56,3.56,3.56,3.56,3.56,3.56,3.56,3.56,3.56,3.56,3.56,3.56,3.56,3.56,3.56,3.56,3.56,3.56,3.56,3.56,3.56,3.56,3.56,3.56,3.56,3.56,3.56,3.56,3.56,3.56,3.56,3.56,3.56,3.56,3.56,3.56,3.56,3.56,3.56,3.56,3.56,0.0,0.0,0.0,1.9041,2.1055,2.2883,0.0,0.0,0.0,0.0,0.0,0.0,0.0,0.0,0.0,0.0,0.0,0.0,0.0,0.0,0.0,0.0,0.0,0.0,0.0,0.0,0.0,0.0,0.0,3.3525,3.3778,3.4235,3.4624,3.4895,3.5346,3.56,3.56,3.56,3.56,3.56,3.56,3.56,3.56,3.56,3.56,3.56,3.56,3.56,3.56,3.56,3.56,3.56,3.56,3.56,3.56,3.56,3.56,3.56,3.56,3.56,3.56,3.56,3.56,3.56,3.56,3.56,3.56,3.56,3.56,3.56,3.56,3.56,3.56,3.56,3.56,3.56,3.56,3.56,3.56,3.56,3.56,3.56,3.56,3.56,3.56,3.56,3.56,3.56,3.56,3.56,3.56,3.56,3.56,3.56,3.56,3.56,3.56,3.56,3.56,3.56,3.56,3.56,3.56,3.56,3.56,3.56,3.56,3.56,3.56,3.56,3.56,3.56,1.1376,0.0,0.0,0.0,0.0,0.0,0.0,0.0,0.0,0.0,0.0,0.0,0.0,0.0,0.0,0.0,0.0,0.0,0.0,0.0,0.0,0.0,0.0,0.0,0.0,0.0,0.0,0.0,0.0,0.0,3.3017,3.3491,3.3981,3.4472,3.4979,3.5346,3.56,3.56,3.56,3.56,3.56,3.56,3.56,3.56,3.56,3.56,3.56,3.56,3.56,3.56,3.56,3.56,3.56,3.56,3.56,3.56,3.56,3.56,3.56,3.56,3.56,3.56,3.56,3.56,3.56,3.56,3.56,3.56,3.56,3.56,3.56,3.56,3.56,3.56,3.56,3.56,3.56,3.56,3.56,3.56,3.56,3.56,3.56,3.56,3.56,3.56,3.56,3.56,3.56,3.56,3.56,3.56,3.56,3.56,3.56,3.56,3.56,3.56,3.56,3.56,3.56,3.56,3.56,3.56,3.56,3.56,3.56,3.56,3.56,3.56,3.56,3.56,0.0,0.0,0.0,0.0,0.0,0.0,0.0,0.0,0.0,0.0,0.0,0.0,0.0,0.0,0.0,0.0,0.0,0.0,0.0,0.0,0.0,0.0,0.0,0.0,0.0,0.0,0.0,0.0,3.119,3.1495,3.2226,3.2293,3.297,3.4421,3.4472,3.4844,3.5549,3.5583,3.56,3.56,3.56,3.56,3.56,3.56,3.56,3.56,3.56,3.56,3.56,3.56,3.56,3.56,3.56,3.56,3.56,3.56,3.56,3.56,3.56,3.56,3.56,3.56,3.56,3.56,3.56,3.56,3.56,3.56,3.56,3.56,3.56,3.56,3.56,3.56,3.56,3.56,3.56,3.56,3.56,3.56,3.56,3.56,3.56,3.56,3.56,3.56,3.56,3.56,3.56,3.56,3.56,3.56,3.56,3.56,3.56,3.56,3.56,3.56,3.56,3.56,3.56,3.56,3.56,3.56,3.56,3.56,3.56,3.56,3.56,3.56,3.56,3.56,1.1096,0.0,0.0,0.0,0.0,0.0,0.0,0.0,0.0,0.0,0.0,0.0,0.0,0.0,0.0,0.0,0.0,0.0,0.0,0.0,0.0,0.0,0.0,0.0,0.0,0.0,0.0,0.0,3.119,3.1275,3.1478,3.2005,3.2733,3.3677,3.4218,3.459,3.4793,3.5329,3.56,3.56,3.56,3.56,3.56,3.56,3.56,3.56,3.56,3.56,3.56,3.56,3.56,3.56,3.56,3.56,3.56,3.56,3.56,3.56,3.56,3.56,3.56,3.56,3.56,3.56,3.56,3.56,3.56,3.56,3.56,3.56,3.56,3.56,3.56,3.56,3.56,3.56,3.56,3.56,3.56,3.56,3.56,3.56,3.56,3.56,3.56,3.56,3.56,3.56,3.56,3.56,3.56,3.56,3.56,3.56,3.56,3.56,3.56,3.56,3.56,3.56,3.56,3.56,3.56,3.56,3.56,3.56,3.56,3.56,3.56,3.56,3.56,3.56,0.0,0.0,0.0,0.0,0.0,0.0,0.0,1.8427,0.0,0.0,0.0,0.0,0.0,0.0,0.0,0.0,0.0,0.0,0.0,0.0,0.0,0.0,0.0,0.0,0.0,3.1021,3.119,3.119,3.119,3.119,3.119,3.1616,3.2192,3.2916,3.3355,3.3884,3.4489,3.4928,3.5295,3.56,3.56,3.56,3.56,3.56,3.56,3.56,3.56,3.56,3.56,3.56,3.56,3.56,3.56,3.56,3.56,3.56,3.56,3.56,3.56,3.56,3.56,3.56,3.56,3.56,3.56,3.56,3.56,3.56,3.56,3.56,3.56,3.56,3.56,3.56,3.56,3.56,3.56,3.56,3.56,3.56,3.56,3.56,3.56,3.56,3.56,3.56,3.56,3.56,3.56,3.56,3.56,3.56,3.56,3.56,3.56,3.56,3.56,3.56,3.56,3.56,3.56,3.56,3.56,3.56,3.56,3.56,3.56,3.56,3.56,3.56,3.56,3.56,1.5061,1.5399,0.0,0.0,0.0,0.0,1.9121,1.8221,1.7713,0.0,0.0,0.0,0.0,0.0,0.0,0.0,0.0,0.0,0.0,0.0,0.0,0.0,0.0,0.0,2.9989,3.0632,3.1072,3.1072,3.114,3.119,3.119,3.119,3.1515,3.2158,3.2259,3.2936,3.4235,3.4404,3.4827,3.5481,3.5566,3.56,3.56,3.56,3.56,3.56,3.56,3.56,3.56,3.56,3.56,3.56,3.56,3.56,3.56,3.56,3.56,3.56,3.56,3.56,3.56,3.56,3.56,3.56,3.56,3.56,3.56,3.56,3.56,3.56,3.56,3.56,3.56,3.56,3.56,3.56,3.56,3.56,3.56,3.56,3.56,3.56,3.56,3.56,3.56,3.56,3.56,3.56,3.56,3.56,3.56,3.56,3.56,3.56,3.56,3.56,3.56,3.56,3.56,3.56,3.56,3.56,3.56,3.56,3.56,3.56,3.56,3.56,3.56,3.56,3.56,3.56,1.736,1.7693,1.8042,1.7145,0.0,0.0,1.6768,1.6628,1.6912,0.0,0.0,0.0,0.0,0.0,0.0,0.0,0.0,0.0,0.0,0.0,0.0,0.0,0.0,0.0,2.9213,2.9871,3.0311,3.0311,3.0869,3.119,3.119,3.119,3.1258,3.1413,3.1989,3.2446,3.2733,3.3918,3.4573,3.4726,3.5312,3.56,3.56,3.56,3.56,3.56,3.56,3.56,3.56,3.56,3.56,3.56,3.56,3.56,3.56,3.56,3.56,3.56,3.56,3.56,3.56,3.56,3.56,3.56,3.56,3.56,3.56,3.56,3.56,3.56,3.56,3.56,3.56,3.56,3.56,3.56,3.56,3.56,3.56,3.56,3.56,3.56,3.56,3.56,3.56,3.56,3.56,3.56,3.56,3.56,3.56,3.56,3.56,3.56,3.56,3.56,3.56,3.56,3.56,3.56,3.56,3.56,3.56,3.56,3.56,3.56,3.56,3.56,3.56,3.56,3.56,3.56,1.9705,1.9769,1.9955,1.9587,0.0,0.0,0.0,1.7871,1.7601,1.8836,0.0,0.0,0.0,0.0,0.0,0.0,0.0,0.0,0.0,0.0,0.0,0.0,0.0,0.0,2.7859,2.8873,2.9702,3.0074,3.0446,3.0818,3.1173,3.119,3.119,3.119,3.1546,3.1938,3.2293,3.3038,3.3783,3.4489,3.4878,3.525,3.56,3.56,3.56,3.56,3.56,3.56,3.56,3.56,3.56,3.56,3.56,3.56,3.56,3.56,3.56,3.56,3.56,3.56,3.56,3.56,3.56,3.56,3.56,3.56,3.56,3.56,3.56,3.56,3.56,3.56,3.56,3.56,3.56,3.56,3.56,3.56,3.56,3.56,3.56,3.56,3.56,3.56,3.56,3.56,3.56,3.56,3.56,3.56,3.56,3.56,3.56,3.56,3.56,3.56,3.56,3.56,3.56,3.56,3.56,3.56,3.56,3.56,3.56,3.56,3.56,3.56,3.56,3.56,3.56,3.56,0.0,0.0,0.0,0.0,0.0,2.0891,0.0,0.0,0.0,2.0477,0.0,0.0,0.0,0.0,0.0,0.0,0.0,0.0,0.0,0.0,0.0,0.0,0.0,0.0,0.0,2.7486,2.862,2.9803,2.9482,2.9753,3.092,3.0987,3.1055,3.119,3.119,3.1478,3.209,3.2226,3.2903,3.4087,3.4353,3.481,3.538,3.5532,3.56,3.56,3.56,3.56,3.56,3.56,3.56,3.56,3.56,3.56,3.56,3.56,3.56,3.56,3.56,3.56,3.56,3.56,3.56,3.56,3.56,3.56,3.56,3.56,3.56,3.56,3.56,3.56,3.56,3.56,3.56,3.56,3.56,3.56,3.56,3.56,3.56,3.56,3.56,3.56,3.56,3.56,3.56,3.56,3.56,3.56,3.56,3.56,3.56,3.56,3.56,3.56,3.56,3.56,3.56,3.56,3.56,3.56,3.56,3.56,3.56,3.56,3.56,3.56,3.56,3.56,3.56,3.56,0.0,0.0,0.0,0.0,2.3139,0.0,0.0,0.0,2.031,1.8573,0.0,0.0,0.0,0.0,0.0,0.0,0.0,0.0,0.0,0.0,0.0,0.0,0.0,0.0,0.0,2.5303,2.6149,2.8925,2.7249,2.7334,3.0091,3.0207,3.0531,3.1173,3.119,3.1241,3.1309,3.1972,3.2378,3.2564,3.3884,3.4539,3.4641,3.5295,3.56,3.56,3.56,3.56,3.56,3.56,3.56,3.56,3.56,3.56,3.56,3.56,3.56,3.56,3.56,3.56,3.56,3.56,3.56,3.56,3.56,3.56,3.56,3.56,3.56,3.56,3.56,3.56,3.56,3.56,3.56,3.56,3.56,3.56,3.56,3.56,3.56,3.56,3.56,3.56,3.56,3.56,3.56,3.56,3.56,3.56,3.56,3.56,3.56,3.56,3.56,3.56,3.56,3.56,3.56,3.56,3.56,3.56,3.56,3.56,3.56,3.56,3.56,3.56,3.56,3.56,3.56,3.56,0.0,0.0,0.0,0.0,0.0,0.0,2.1972,0.0,2.1055,0.0,0.0,0.0,0.0,0.0,0.0,0.0,0.0,0.0,0.0,0.0,0.0,0.0,0.0,0.0,0.0,0.0,0.0,0.0,2.5727,2.6065,2.8635,2.9599,3.0243,3.0548,3.097,3.119,3.119,3.1495,3.1887,3.231,3.2936,3.3681,3.4506,3.481,3.5199,3.56,3.56,3.56,3.56,3.56,3.56,3.56,3.56,3.56,3.56,3.56,3.56,3.56,3.56,3.56,3.56,3.56,3.56,3.56,3.56,3.56,3.56,3.56,3.56,3.56,3.56,3.56,3.56,3.56,3.56,3.56,3.56,3.56,3.56,3.56,3.56,3.5735,3.6214,3.591,3.56,3.56,3.56,3.56,3.56,3.56,3.56,3.56,3.56,3.56,3.56,3.56,3.56,3.56,3.56,3.56,3.56,3.56,3.56,3.56,3.56,3.56,3.56,3.56,3.56,3.56,3.56,3.56,2.4205,0.0,0.0,0.0,0.0,0.0,0.0,0.0,0.0,0.0,0.0,0.0,0.0,0.0,0.0,0.0,0.0,0.0,0.0,0.0,0.0,0.0,0.0,0.0,0.0,0.0,0.0,0.0,0.0,2.4289,2.7334,2.8753,2.9649,3.0091,3.0818,3.119,3.119,3.119,3.1461,3.2005,3.2209,3.297,3.4201,3.4404,3.4912,3.56,3.56,3.56,3.56,3.56,3.56,3.56,3.56,3.56,3.56,3.56,3.56,3.56,3.56,3.56,3.56,3.56,3.56,3.56,3.56,3.56,3.56,3.56,3.56,3.56,3.56,3.56,3.56,3.56,3.56,3.56,3.56,3.56,3.56,3.56,3.5769,3.6113,3.6711,3.6315,3.6011,3.6191,3.6225,3.6225,3.6225,3.6225,3.6225,3.6225,3.6225,3.614,3.596,3.5943,3.5819,3.5616,3.56,3.56,3.56,3.56,3.56,3.56,3.56,3.56,3.56,3.56,3.56,3.56,3.56,3.56,0.0,0.0,0.0,2.4863,0.0,0.0,0.0,0.0,2.3122,0.0,0.0,0.0,0.0,0.0,0.0,0.0,0.0,0.0,0.0,0.0,0.0,0.0,0.0,0.0,0.0,0.0,0.0,0.0,0.0,0.0,2.6454,2.7452,2.8568,3.0057,3.0818,3.119,3.119,3.119,3.1207,3.1241,3.1955,3.2699,3.3457,3.4167,3.4912,3.56,3.56,3.56,3.56,3.56,3.56,3.56,3.56,3.56,3.56,3.56,3.56,3.56,3.56,3.56,3.56,3.56,3.56,3.56,3.56,3.56,3.56,3.56,3.56,3.56,3.56,3.56,3.56,3.56,3.56,3.56,3.56,3.56,3.56,3.56,3.6231,3.6778,3.6795,3.6778,3.7015,3.7719,3.7838,3.7838,3.7838,3.7838,3.7838,3.7838,3.7838,3.7533,3.6829,3.6761,3.6417,3.565,3.56,3.56,3.56,3.56,3.56,3.56,3.56,3.56,3.56,3.56,3.56,3.56,3.56,3.56,0.0,0.0,2.8467,2.6454,0.0,0.0,0.0,0.0,0.0,0.0,0.0,0.0,0.0,0.0,0.0,0.0,0.0,0.0,0.0,0.0,0.0,0.0,0.0,0.0,0.0,0.0,0.0,0.0,2.02,0.0,0.0,2.6133,2.7537,2.8551,2.982,3.0717,3.119,3.119,3.119,3.119,3.1444,3.1952,3.2699,3.344,3.4167,3.4895,3.538,3.56,3.56,3.56,3.56,3.56,3.56,3.56,3.56,3.56,3.56,3.56,3.56,3.56,3.56,3.56,3.56,3.56,3.56,3.56,3.56,3.56,3.56,3.56,3.56,3.56,3.56,3.56,3.56,3.56,3.56,3.56,3.5752,3.6282,3.6626,3.7117,3.8099,3.8268,3.8159,3.7939,3.7905,3.7905,3.7905,3.7905,3.7905,3.7905,3.7905,3.7804,3.755,3.7083,3.6694,3.64,3.5887,3.56,3.56,3.56,3.56,3.56,3.56,3.56,3.56,3.56,3.5853,3.6383,3.6383,3.6383,2.823,2.8958,0.0,2.7537,2.7097,0.0,2.4305,0.0,0.0,0.0,0.0,0.0,0.0,0.0,0.0,0.0,0.0,0.0,0.0,0.0,0.0,0.0,0.0,0.0,0.0,0.0,1.7276,1.9816,1.927,0.0,0.0,0.0,2.6776,2.7773,2.9294,3.0446,3.119,3.119,3.119,3.119,3.119,3.1599,3.2327,3.278,3.3541,3.4523,3.5013,3.5346,3.56,3.56,3.56,3.56,3.56,3.56,3.56,3.56,3.56,3.56,3.56,3.56,3.56,3.56,3.56,3.56,3.56,3.56,3.56,3.56,3.56,3.56,3.56,3.56,3.56,3.56,3.56,3.56,3.56,3.56,3.5836,3.6643,3.7015,3.7567,3.8785,3.9208,3.9225,3.8751,3.8684,3.8684,3.8684,3.8684,3.8684,3.8684,3.8684,3.8582,3.8311,3.7618,3.7083,3.6829,3.6315,3.591,3.5616,3.56,3.5718,3.6028,3.5735,3.587,3.6411,3.6163,3.6434,3.7178,3.7178,3.7313]}]]